[[{"header":{"parameterUnit":"m.s-1","parameterCategory":1,"la1":30.6,"la2":28.766,"lo1":-90.7593,"lo2":-88.6598,"dy":0.0162,"dx":0.0183,"nx":116,"ny":114,"refTime":"2023-06-13T18:00:00:Z","depth":0,"parameterNumber":2,"parameterNumberName":"U-component_of_WINDS"},"data":[0.0,0.0,0.0,0.0,0.0,0.0,0.0,0.0,0.0,0.0,0.0,0.0,0.0,0.0,0.0,0.0,0.0,0.0,0.0,0.0,0.0,0.0,0.0,0.0,0.0,0.0,0.0,0.0,0.0,0.0,0.0,0.0,0.0,0.0,0.0,0.0,0.0,0.0,0.0,0.0,0.0,0.0,0.0,0.0,0.0,0.0,0.0,0.0,0.0,0.0,0.0,0.0,0.0,0.0,0.0,0.0,0.0,0.0,0.0,0.0,0.0,0.0,0.0,0.0,0.0,0.0,0.0,0.0,0.0,0.0,0.0,0.0,0.0,0.0,0.0,0.0,0.0,0.0,0.0,0.0,0.0,0.0,0.0,0.0,0.0,0.0,0.0,0.0,0.0,0.0,0.0,0.0,0.0,0.0,0.0,0.0,0.0,0.0,0.0,0.0,0.0,0.0,0.0,0.0,0.0,0.0,0.0,0.0,0.0,0.0,0.0,0.0,0.0,0.0,0.0,0.0,0.0,0.0,0.0,0.0,0.0,0.0,0.0,0.0,0.0,0.0,0.0,0.0,0.0,0.0,0.0,0.0,0.0,0.0,0.0,0.0,0.0,0.0,0.0,0.0,0.0,0.0,0.0,0.0,0.0,0.0,0.0,0.0,0.0,0.0,0.0,0.0,0.0,0.0,0.0,0.0,0.0,0.0,0.0,0.0,0.0,0.0,0.0,0.0,0.0,0.0,0.0,0.0,0.0,0.0,0.0,0.0,0.0,0.0,0.0,0.0,0.0,0.0,0.0,0.0,0.0,0.0,0.0,0.0,0.0,0.0,0.0,0.0,0.0,0.0,0.0,0.0,0.0,0.0,0.0,0.0,0.0,0.0,0.0,0.0,0.0,0.0,0.0,0.0,0.0,0.0,0.0,0.0,0.0,0.0,0.0,0.0,0.0,0.0,0.0,0.0,0.0,0.0,0.0,0.0,0.0,0.0,0.0,0.0,0.0,0.0,0.0,0.0,0.0,0.0,0.0,0.0,0.0,0.0,0.0,0.0,0.0,0.0,0.0,0.0,0.0,0.0,0.0,0.0,0.0,0.0,0.0,0.0,0.0,0.0,0.0,0.0,0.0,0.0,0.0,0.0,0.0,0.0,0.0,0.0,0.0,0.0,0.0,0.0,0.0,0.0,0.0,0.0,0.0,0.0,0.0,0.0,0.0,0.0,0.0,0.0,0.0,0.0,0.0,0.0,0.0,0.0,0.0,0.0,0.0,0.0,0.0,0.0,0.0,0.0,0.0,0.0,0.0,0.0,0.0,0.0,0.0,0.0,0.0,0.0,0.0,0.0,0.0,0.0,0.0,0.0,0.0,0.0,0.0,0.0,0.0,0.0,0.0,0.0,0.0,0.0,0.0,0.0,0.0,0.0,0.0,0.0,0.0,0.0,0.0,0.0,0.0,0.0,0.0,0.0,0.0,0.0,0.0,0.0,0.0,0.0,0.0,0.0,0.0,0.0,0.0,0.0,0.0,0.0,0.0,0.0,0.0,0.0,0.0,0.0,0.0,0.0,0.0,0.0,0.0,0.0,0.0,0.0,0.0,0.0,0.0,0.0,0.0,0.0,0.0,0.0,0.0,0.0,0.0,0.0,0.0,0.0,0.0,0.0,0.0,0.0,0.0,0.0,0.0,0.0,0.0,0.0,0.0,0.0,0.0,0.0,0.0,0.0,0.0,0.0,0.0,0.0,0.0,0.0,0.0,0.0,0.0,0.0,0.0,0.0,0.0,0.0,0.0,0.0,0.0,0.0,0.0,0.0,0.0,0.0,0.0,0.0,0.0,0.0,0.0,0.0,0.0,0.0,0.0,0.0,0.0,0.0,0.0,0.0,0.0,0.0,0.0,0.0,0.0,0.0,0.0,0.0,0.0,0.0,0.0,0.0,0.0,0.0,0.0,0.0,0.0,0.0,0.0,0.0,0.0,0.0,0.0,0.0,0.0,0.0,0.0,0.0,0.0,0.0,0.0,0.0,0.0,0.0,0.0,0.0,0.0,0.0,0.0,0.0,0.0,0.0,0.0,0.0,0.0,0.0,0.0,0.0,0.0,0.0,0.0,0.0,0.0,0.0,0.0,0.0,0.0,0.0,0.0,0.0,0.0,0.0,0.0,0.0,0.0,0.0,0.0,0.0,0.0,0.0,0.0,0.0,0.0,0.0,0.0,0.0,0.0,0.0,0.0,0.0,0.0,0.0,0.0,0.0,0.0,0.0,0.0,0.0,0.0,0.0,0.0,0.0,0.0,0.0,0.0,0.0,0.0,0.0,0.0,0.0,0.0,0.0,0.0,0.0,0.0,0.0,0.0,0.0,0.0,0.0,0.0,0.0,0.0,0.0,0.0,0.0,0.0,0.0,0.0,0.0,0.0,0.0,0.0,0.0,0.0,0.0,0.0,0.0,0.0,0.0,0.0,0.0,0.0,0.0,0.0,0.0,0.0,0.0,0.0,0.0,0.0,0.0,0.0,0.0,0.0,0.0,0.0,0.0,0.0,0.0,0.0,0.0,0.0,0.0,0.0,0.0,0.0,0.0,0.0,0.0,0.0,0.0,0.0,0.0,0.0,0.0,0.0,0.0,0.0,0.0,0.0,0.0,0.0,0.0,0.0,0.0,0.0,0.0,0.0,0.0,0.0,0.0,0.0,0.0,0.0,0.0,0.0,0.0,0.0,0.0,0.0,0.0,0.0,0.0,0.0,0.0,0.0,0.0,0.0,0.0,0.0,0.0,0.0,0.0,0.0,0.0,0.0,0.0,0.0,0.0,0.0,0.0,0.0,0.0,0.0,0.0,0.0,0.0,0.0,0.0,0.0,0.0,0.0,0.0,0.0,0.0,0.0,0.0,0.0,0.0,0.0,0.0,0.0,0.0,0.0,0.0,0.0,0.0,0.0,0.0,0.0,0.0,0.0,0.0,0.0,0.0,0.0,0.0,0.0,0.0,0.0,0.0,0.0,0.0,0.0,0.0,0.0,0.0,0.0,0.0,0.0,0.0,0.0,0.0,0.0,0.0,0.0,0.0,0.0,0.0,0.0,0.0,0.0,0.0,0.0,0.0,0.0,0.0,0.0,0.0,0.0,0.0,0.0,0.0,0.0,0.0,0.0,0.0,0.0,0.0,0.0,0.0,0.0,0.0,0.0,0.0,0.0,0.0,0.0,0.0,0.0,0.0,0.0,0.0,0.0,0.0,0.0,0.0,0.0,0.0,0.0,0.0,0.0,0.0,0.0,0.0,0.0,0.0,0.0,0.0,0.0,0.0,0.0,0.0,0.0,0.0,0.0,0.0,0.0,0.0,0.0,0.0,0.0,0.0,0.0,0.0,0.0,0.0,0.0,0.0,0.0,0.0,0.0,0.0,0.0,0.0,0.0,0.0,0.0,0.0,0.0,0.0,0.0,0.0,0.0,0.0,0.0,0.0,0.0,0.0,0.0,0.0,0.0,0.0,0.0,0.0,0.0,0.0,0.0,0.0,0.0,0.0,0.0,0.0,0.0,0.0,0.0,0.0,0.0,0.0,0.0,0.0,0.0,0.0,0.0,0.0,0.0,0.0,0.0,0.0,0.0,0.0,0.0,0.0,0.0,0.0,0.0,0.0,0.0,0.0,0.0,0.0,0.0,0.0,0.0,0.0,0.0,0.0,0.0,0.0,0.0,0.0,0.0,0.0,0.0,0.0,0.0,0.0,0.0,0.0,0.0,0.0,0.0,0.0,0.0,0.0,0.0,0.0,0.0,0.0,0.0,0.0,0.0,0.0,0.0,0.0,0.0,0.0,0.0,0.0,0.0,0.0,0.0,0.0,0.0,0.0,0.0,0.0,0.0,0.0,0.0,0.0,0.0,0.0,0.0,0.0,0.0,0.0,0.0,0.0,0.0,0.0,0.0,0.0,0.0,0.0,0.0,0.0,0.0,0.0,0.0,0.0,0.0,0.0,0.0,0.0,0.0,0.0,0.0,0.0,0.0,0.0,0.0,0.0,0.0,0.0,0.0,0.0,0.0,0.0,0.0,0.0,0.0,0.0,0.0,0.0,0.0,0.0,0.0,0.0,0.0,0.0,0.0,0.0,0.0,0.0,0.0,0.0,0.0,0.0,0.0,0.0,0.0,0.0,0.0,0.0,0.0,0.0,0.0,0.0,0.0,0.0,0.0,0.0,0.0,0.0,0.0,0.0,0.0,0.0,0.0,0.0,0.0,0.0,0.0,0.0,0.0,0.0,0.0,0.0,0.0,0.0,0.0,0.0,0.0,0.0,0.0,0.0,0.0,0.0,0.0,0.0,0.0,0.0,0.0,0.0,0.0,0.0,0.0,0.0,0.0,0.0,0.0,0.0,0.0,0.0,0.0,0.0,0.0,0.0,0.0,0.0,0.0,0.0,0.0,0.0,0.0,0.0,0.0,0.0,0.0,0.0,0.0,0.0,0.0,0.0,0.0,0.0,0.0,0.0,0.0,0.0,0.0,0.0,0.0,0.0,0.0,0.0,0.0,0.0,0.0,0.0,0.0,0.0,0.0,0.0,0.0,0.0,0.0,0.0,0.0,0.0,0.0,0.0,0.0,0.0,0.0,0.0,0.0,0.0,0.0,0.0,0.0,0.0,0.0,0.0,0.0,0.0,0.0,0.0,0.0,0.0,0.0,0.0,0.0,0.0,0.0,0.0,0.0,0.0,0.0,0.0,0.0,0.0,0.0,0.0,0.0,0.0,0.0,0.0,0.0,0.0,0.0,0.0,0.0,0.0,0.0,0.0,0.0,0.0,0.0,0.0,0.0,0.0,0.0,0.0,0.0,0.0,0.0,0.0,0.0,0.0,0.0,0.0,0.0,0.0,0.0,0.0,0.0,0.0,0.0,0.0,0.0,0.0,0.0,0.0,0.0,0.0,0.0,0.0,0.0,0.0,0.0,0.0,0.0,0.0,0.0,0.0,0.0,0.0,0.0,0.0,0.0,0.0,0.0,0.0,0.0,0.0,0.0,0.0,0.0,0.0,0.0,0.0,0.0,0.0,0.0,0.0,0.0,0.0,0.0,0.0,0.0,0.0,0.0,0.0,0.0,0.0,0.0,0.0,0.0,0.0,0.0,0.0,0.0,0.0,0.0,0.0,0.0,0.0,0.0,0.0,0.0,0.0,0.0,0.0,0.0,0.0,0.0,0.0,0.0,0.0,0.0,0.0,0.0,0.0,0.0,0.0,0.0,0.0,0.0,0.0,0.0,0.0,0.0,0.0,0.0,0.0,0.0,0.0,0.0,0.0,0.0,0.0,0.0,0.0,0.0,0.0,0.0,0.0,0.0,0.0,0.0,0.0,0.0,0.0,0.0,0.0,0.0,0.0,0.0,0.0,0.0,0.0,0.0,0.0,0.0,0.0,0.0,0.0,0.0,0.0,0.0,0.0,0.0,0.0,0.0,0.0,0.0,0.0,0.0,0.0,0.0,0.0,0.0,0.0,0.0,0.0,0.0,0.0,0.0,0.0,0.0,0.0,0.0,0.0,0.0,0.0,0.0,0.0,0.0,0.0,0.0,0.0,0.0,0.0,0.0,0.0,0.0,0.0,0.0,0.0,0.0,0.0,0.0,0.0,0.0,0.0,0.0,0.0,0.0,0.0,0.0,0.0,0.0,0.0,0.0,0.0,0.0,0.0,0.0,0.0,0.0,0.0,0.0,0.0,0.0,0.0,0.0,0.0,0.0,0.0,0.0,0.0,0.0,0.0,0.0,0.0,0.0,0.0,0.0,0.0,0.0,0.0,0.0,0.0,0.0,0.0,0.0,0.0,0.0,0.0,0.0,0.0,0.0,0.0,0.0,0.0,0.0,0.0,0.0,0.0,0.0,0.0,0.0,0.0,0.0,0.0,0.0,0.0,0.0,0.0,0.0,0.0,0.0,0.0,0.0,0.0,0.0,0.0,0.0,0.0,0.0,0.0,0.0,0.0,0.0,0.0,0.0,0.0,0.0,0.0,0.0,0.0,0.0,0.0,0.0,0.0,0.0,0.0,0.0,0.0,0.0,0.0,0.0,0.0,0.0,0.0,0.0,0.0,0.0,0.0,0.0,0.0,0.0,0.0,-2.1024,-1.9043,0.0,0.0,0.0,0.0,0.0,0.0,0.0,0.0,0.0,0.0,0.0,0.0,0.0,0.0,0.0,0.0,0.0,0.0,0.0,0.0,0.0,0.0,0.0,0.0,0.0,0.0,0.0,0.0,0.0,0.0,0.0,0.0,0.0,0.0,0.0,0.0,0.0,0.0,0.0,0.0,0.0,0.0,0.0,0.0,0.0,0.0,0.0,0.0,0.0,0.0,0.0,0.0,0.0,0.0,0.0,0.0,0.0,0.0,0.0,0.0,0.0,0.0,0.0,0.0,0.0,0.0,0.0,0.0,0.0,0.0,0.0,0.0,0.0,0.0,0.0,0.0,0.0,0.0,0.0,0.0,0.0,0.0,0.0,0.0,0.0,0.0,0.0,0.0,0.0,0.0,0.0,0.0,0.0,0.0,0.0,0.0,0.0,0.0,0.0,0.0,0.0,0.0,0.0,0.0,0.0,0.0,0.0,0.0,0.0,0.0,0.0,0.0,0.0,0.0,-2.2087,-2.1248,0.0,0.0,0.0,0.0,0.0,0.0,0.0,0.0,0.0,0.0,0.0,0.0,0.0,0.0,0.0,0.0,0.0,0.0,0.0,0.0,0.0,0.0,0.0,0.0,0.0,0.0,0.0,0.0,0.0,0.0,0.0,0.0,0.0,0.0,0.0,0.0,0.0,0.0,0.0,0.0,0.0,0.0,0.0,0.0,0.0,0.0,0.0,0.0,0.0,0.0,0.0,0.0,0.0,0.0,0.0,0.0,0.0,0.0,0.0,0.0,0.0,0.0,0.0,0.0,0.0,0.0,0.0,0.0,0.0,0.0,0.0,0.0,0.0,0.0,0.0,0.0,0.0,0.0,0.0,0.0,0.0,0.0,0.0,0.0,0.0,0.0,0.0,0.0,0.0,0.0,0.0,0.0,0.0,0.0,0.0,0.0,0.0,0.0,0.0,0.0,0.0,0.0,0.0,0.0,0.0,0.0,0.0,0.0,-2.2003,-2.2164,-2.2236,-2.2236,-2.2357,-2.2653,-2.365,-2.4076,-2.3958,-2.3033,0.0,0.0,0.0,0.0,0.0,0.0,0.0,0.0,0.0,0.0,0.0,0.0,0.0,0.0,0.0,0.0,0.0,0.0,0.0,0.0,0.0,0.0,0.0,0.0,0.0,0.0,0.0,0.0,0.0,0.0,0.0,0.0,0.0,0.0,0.0,0.0,0.0,0.0,-2.4036,-2.4036,-2.4128,-2.4236,-2.4617,0.0,0.0,0.0,0.0,0.0,0.0,0.0,0.0,0.0,0.0,0.0,0.0,0.0,0.0,0.0,0.0,0.0,0.0,0.0,0.0,0.0,0.0,0.0,0.0,0.0,0.0,0.0,0.0,0.0,0.0,0.0,0.0,0.0,0.0,0.0,0.0,0.0,0.0,0.0,0.0,0.0,0.0,0.0,-2.1601,-2.2474,0.0,0.0,0.0,0.0,0.0,0.0,0.0,0.0,0.0,0.0,0.0,0.0,0.0,-2.0953,-2.0899,-2.2664,-2.3555,-2.3573,-2.5124,-2.6079,-2.6408,-2.6408,-2.6591,-2.6848,-2.4517,0.0,-2.4661,-2.4681,0.0,0.0,0.0,0.0,0.0,0.0,0.0,0.0,0.0,0.0,0.0,0.0,0.0,0.0,0.0,0.0,0.0,0.0,0.0,0.0,0.0,0.0,0.0,0.0,0.0,0.0,0.0,0.0,0.0,0.0,0.0,0.0,0.0,0.0,0.0,0.0,-2.4763,-2.5375,-2.5823,-2.5823,-2.6203,-2.6832,-2.688,-2.5998,-2.4513,-2.4839,0.0,0.0,0.0,0.0,0.0,0.0,0.0,0.0,0.0,0.0,0.0,0.0,0.0,0.0,0.0,0.0,0.0,0.0,0.0,0.0,0.0,0.0,0.0,0.0,0.0,0.0,0.0,0.0,0.0,0.0,0.0,0.0,0.0,0.0,0.0,0.0,0.0,0.0,0.0,-2.1497,-2.2325,-2.2821,-2.28,-2.2317,0.0,0.0,0.0,0.0,0.0,0.0,0.0,0.0,0.0,-2.115,-2.2173,-2.2727,-2.2727,-2.4517,-2.5532,-2.5761,-2.6582,-2.7123,-2.7564,-2.7564,-2.7656,-2.7737,-2.6691,-2.5995,-2.5599,-2.4013,-2.2646,-2.1441,0.0,0.0,0.0,0.0,-1.5623,-1.6393,0.0,0.0,0.0,0.0,0.0,0.0,0.0,0.0,0.0,0.0,0.0,0.0,0.0,0.0,0.0,-2.3996,0.0,0.0,0.0,0.0,0.0,0.0,0.0,0.0,0.0,0.0,0.0,0.0,-2.5466,-2.645,-2.7309,-2.7309,-2.7748,-2.8568,-2.8378,-2.7421,-2.5914,-2.6166,-2.5589,0.0,0.0,0.0,0.0,0.0,0.0,0.0,0.0,0.0,0.0,0.0,0.0,0.0,0.0,0.0,0.0,0.0,0.0,0.0,0.0,0.0,0.0,0.0,0.0,0.0,0.0,0.0,0.0,0.0,0.0,0.0,0.0,0.0,0.0,0.0,0.0,0.0,0.0,-2.2061,-2.2923,-2.3325,-2.3539,-2.3199,0.0,0.0,0.0,0.0,0.0,0.0,-2.1858,-2.1664,-2.1851,-2.2553,-2.3913,-2.459,-2.459,-2.6033,-2.6885,-2.7178,-2.7279,-2.7536,-2.793,-2.793,-2.7985,-2.8095,-2.7687,-2.6958,-2.5897,-2.4048,-2.2428,-2.1104,-2.1101,-1.9738,-1.7672,-1.7423,-1.7589,-1.7962,0.0,0.0,0.0,0.0,0.0,0.0,0.0,0.0,0.0,0.0,0.0,0.0,0.0,0.0,-2.5721,-2.5751,-2.6436,-2.6265,0.0,0.0,0.0,0.0,0.0,0.0,0.0,0.0,0.0,-2.5688,-2.6744,-2.7258,-2.7309,-2.7309,-2.7748,-2.8618,-2.8568,-2.8169,-2.7511,-2.7911,-2.7329,-2.6126,0.0,0.0,0.0,0.0,0.0,0.0,0.0,0.0,0.0,0.0,0.0,0.0,0.0,0.0,0.0,0.0,0.0,0.0,0.0,0.0,0.0,0.0,0.0,0.0,0.0,0.0,0.0,0.0,0.0,0.0,0.0,0.0,0.0,0.0,0.0,0.0,0.0,0.0,0.0,-2.451,-2.5702,0.0,0.0,0.0,0.0,-2.2079,-2.1518,-2.1938,-2.3673,-2.3755,-2.4545,-2.6298,-2.6426,-2.6463,-2.6463,-2.6921,-2.716,-2.7178,-2.761,-2.7957,-2.8361,-2.8361,-2.8563,-2.8801,-2.6244,-2.5154,-2.5146,-2.629,-2.5217,-2.2806,-2.1234,-1.9955,-1.8715,-1.7055,-1.7495,-1.8897,0.0,0.0,0.0,0.0,0.0,0.0,0.0,0.0,0.0,0.0,0.0,0.0,0.0,-2.6368,-2.8343,-2.8043,-2.8885,-2.8841,-2.7315,0.0,0.0,0.0,0.0,0.0,0.0,0.0,-2.5011,-2.5659,-2.676,-2.7309,-2.7309,-2.7309,-2.7748,-2.8568,-2.8428,-2.8664,-2.9167,-2.9281,-2.8685,-2.757,-2.7349,-2.6434,0.0,0.0,0.0,0.0,0.0,0.0,0.0,0.0,0.0,0.0,0.0,0.0,0.0,0.0,0.0,0.0,0.0,0.0,0.0,0.0,0.0,0.0,0.0,0.0,0.0,0.0,0.0,0.0,0.0,0.0,0.0,0.0,0.0,0.0,0.0,0.0,0.0,-2.4583,-2.5048,0.0,-2.4821,-2.4427,-2.4113,-2.3852,-2.4148,-2.4744,-2.5587,-2.5447,-2.571,-2.6573,-2.6839,-2.6967,-2.6967,-2.7417,-2.7691,-2.7957,-2.8104,-2.8379,-2.8773,-2.8773,-2.8847,-2.8925,-2.7993,-2.6589,-2.5056,-2.5546,-2.4186,-2.1727,-2.1128,-2.0686,-2.0285,-1.9654,-1.982,-2.0332,0.0,0.0,0.0,0.0,0.0,0.0,0.0,0.0,0.0,0.0,0.0,-2.4898,-2.544,-2.8567,-3.0529,-3.0182,-3.085,-3.04,-2.8402,0.0,0.0,0.0,0.0,0.0,0.0,-2.4535,-2.5351,-2.6038,-2.6867,-2.7309,-2.7309,-2.7455,-2.7893,-2.8618,-2.8582,-2.9075,-2.9994,-2.9994,-2.9539,-2.8849,-2.8591,-2.7472,-2.5854,0.0,0.0,0.0,0.0,0.0,0.0,0.0,0.0,0.0,0.0,0.0,0.0,0.0,0.0,0.0,0.0,0.0,0.0,0.0,0.0,0.0,0.0,0.0,0.0,0.0,0.0,0.0,0.0,0.0,0.0,0.0,0.0,0.0,0.0,-2.2208,-2.3556,-2.4656,-2.5021,-2.5215,-2.539,-2.5267,-2.5215,-2.539,-2.5963,-2.6354,-2.6582,-2.6409,-2.6418,-2.6784,-2.704,-2.7242,-2.737,-2.7774,-2.8113,-2.8397,-2.8526,-2.8728,-2.8984,-2.8549,-2.8133,-2.7714,-2.7218,-2.5753,-2.3729,-2.3695,-2.2716,-2.1235,-2.1172,-2.1109,-2.1109,-2.1109,-2.1172,-2.1299,0.0,0.0,0.0,0.0,0.0,0.0,0.0,0.0,0.0,0.0,-2.487,-2.6846,-2.9274,-3.1047,-3.2065,-3.2033,-3.2015,-3.0749,-2.7833,-2.6549,0.0,0.0,0.0,0.0,-2.5396,-2.5111,-2.563,-2.6921,-2.7177,-2.732,-2.734,-2.7728,-2.8183,-2.8659,-2.9104,-2.9559,-2.9994,-2.9994,-2.9994,-2.9922,-2.8818,-2.7963,-2.7189,0.0,0.0,0.0,0.0,0.0,0.0,0.0,0.0,0.0,0.0,0.0,0.0,0.0,0.0,0.0,0.0,0.0,0.0,0.0,0.0,0.0,0.0,0.0,0.0,0.0,0.0,0.0,0.0,0.0,0.0,0.0,0.0,0.0,-2.0649,-2.3024,-2.4785,-2.4831,-2.5876,-2.6591,-2.6591,-2.6591,-2.6591,-2.6591,-2.6591,-2.6591,-2.6591,-2.6554,-2.671,-2.7086,-2.7123,-2.7381,-2.7767,-2.8177,-2.8416,-2.8416,-2.8801,-2.8984,-2.8925,-2.7624,-2.6392,-2.5296,-2.3791,-2.2487,-2.1371,-2.1245,-2.1355,-2.1544,-2.1235,-2.1109,-2.1109,-2.1109,-2.1299,-2.167,0.0,0.0,0.0,0.0,0.0,0.0,0.0,0.0,0.0,0.0,-2.4534,-2.6907,-2.8096,-3.0494,-3.2185,-3.2606,-3.2088,-3.0843,-2.8831,0.0,0.0,0.0,0.0,0.0,-2.632,-2.6458,-2.6742,-2.7331,-2.7332,-2.7475,-2.7738,-2.7872,-2.8349,-2.9125,-2.9249,-2.9559,-2.9994,-2.9994,-2.9994,-2.9973,-2.9673,-2.8816,-2.7748,0.0,0.0,0.0,0.0,0.0,0.0,0.0,0.0,0.0,0.0,0.0,0.0,0.0,0.0,0.0,0.0,0.0,0.0,0.0,0.0,0.0,0.0,0.0,0.0,0.0,0.0,0.0,0.0,0.0,0.0,0.0,-2.2354,-2.3611,-2.3611,-2.4073,-2.4817,-2.5949,-2.6389,-2.6591,-2.6591,-2.6591,-2.6591,-2.6591,-2.6591,-2.6591,-2.6591,-2.5757,-2.5335,-2.5436,-2.6048,-2.6398,-2.6508,-2.8031,-2.8819,-2.8819,-2.8929,-2.8984,-2.8925,-2.7624,-2.685,-2.6473,-2.5064,-2.3795,-2.2571,-2.2565,-2.216,-2.1544,-2.1235,-2.1235,-2.1425,-2.1172,-2.1299,-2.1547,0.0,0.0,0.0,0.0,0.0,0.0,0.0,0.0,0.0,0.0,-2.4953,-2.7307,-2.8927,-3.0959,-3.2329,-3.2551,-3.209,-3.0754,-2.8305,0.0,0.0,0.0,0.0,-2.6286,-2.7429,-2.7431,-2.7531,-2.779,-2.7721,-2.7868,-2.8214,-2.8411,-2.8794,-2.9311,-2.9508,-2.9746,-2.9994,-2.9994,-2.9994,-2.9994,-2.9994,-2.928,-2.8245,-2.8514,-2.7717,-2.6573,-2.7112,-2.718,-2.7019,-2.6549,0.0,0.0,0.0,0.0,0.0,0.0,0.0,0.0,0.0,0.0,0.0,0.0,0.0,0.0,0.0,0.0,0.0,0.0,0.0,0.0,0.0,0.0,0.0,0.0,-2.3244,-2.4959,-2.5463,-2.5326,-2.5527,-2.6481,-2.6591,-2.6591,-2.6591,-2.6591,-2.6591,-2.6591,-2.6591,-2.6655,-2.682,-2.6169,-2.5628,-2.5289,-2.6389,-2.6738,-2.6278,-2.8058,-2.8984,-2.8984,-2.8984,-2.8984,-2.8925,-2.7021,-2.5884,-2.5394,-2.3948,-2.2653,-2.1612,-2.2253,-2.2223,-2.1734,0.0,0.0,0.0,0.0,-2.1734,-2.1943,0.0,0.0,0.0,0.0,0.0,0.0,0.0,0.0,0.0,0.0,0.0,-2.7878,-3.0606,-3.181,-3.2319,-3.2078,-3.1916,-3.0429,0.0,0.0,0.0,0.0,0.0,0.0,-2.8466,-2.8126,-2.8046,-2.8208,-2.8258,-2.8408,-2.87,-2.9114,-2.9332,-2.9404,-2.9808,-2.9994,-2.9994,-2.9994,-2.9994,-2.9994,-3.0047,-2.9559,-2.8773,-2.8773,-2.8315,-2.7658,-2.7658,-2.7658,-2.7585,-2.7066,0.0,0.0,0.0,0.0,0.0,0.0,0.0,0.0,0.0,0.0,0.0,0.0,0.0,0.0,0.0,0.0,0.0,0.0,0.0,0.0,0.0,0.0,0.0,0.0,-2.3941,-2.5362,-2.6435,-2.6591,-2.6591,-2.6591,-2.6591,-2.6591,-2.6591,-2.6591,-2.6591,-2.6591,-2.6628,-2.6811,-2.716,-2.7086,0.0,0.0,0.0,-2.7673,-2.66,-2.8177,-2.8984,-2.8984,-2.8856,-2.8797,-2.8677,-2.6034,-2.4253,-2.3203,-2.1737,-2.0521,-1.9698,-2.0984,-2.1734,-2.1985,-2.1425,-2.1362,-2.1594,-2.177,-2.2179,-2.2591,0.0,0.0,0.0,0.0,0.0,0.0,0.0,0.0,0.0,-2.4101,-2.6221,-2.8214,-3.0136,-3.1258,-3.1852,-3.1842,-3.0676,-2.9386,0.0,0.0,0.0,0.0,0.0,0.0,0.0,0.0,-2.8624,-2.846,-2.8502,-2.8754,-2.9177,-2.9259,-2.9508,-2.986,-2.9953,-2.9994,-2.9994,-2.9994,-2.9994,-2.9994,-3.0245,-3.0078,-2.9725,-2.9725,-2.9766,-2.9805,-2.9805,-2.9805,-2.9679,-2.883,-2.8307,-2.8103,-2.8376,0.0,0.0,0.0,0.0,0.0,0.0,0.0,0.0,0.0,0.0,0.0,0.0,0.0,0.0,0.0,0.0,0.0,0.0,0.0,0.0,-2.428,-2.539,-2.6325,-2.6554,-2.6591,-2.6591,-2.6591,-2.6591,-2.6591,-2.6591,-2.6591,-2.6591,-2.6591,-2.6885,-2.7095,-2.7169,-2.6609,-2.6177,-2.6021,-2.66,-2.683,-2.6591,-2.8177,-2.8984,-2.8984,-2.7873,0.0,-2.7323,-2.4679,-2.337,-2.3078,-2.1686,-2.0982,-2.0788,-2.1078,-2.1418,-2.1734,-2.1859,-2.1607,-2.1121,-2.0527,-2.1143,-2.2089,0.0,0.0,0.0,0.0,0.0,0.0,0.0,0.0,0.0,0.0,-2.5417,-2.7208,-2.8887,-2.9556,-3.0068,-3.0606,-2.9203,0.0,0.0,0.0,0.0,0.0,0.0,0.0,0.0,0.0,0.0,-2.9071,-2.9096,-2.926,-2.9653,-2.9653,-2.9777,-2.9994,-2.9994,-2.9994,-2.9994,-2.9994,-3.0099,-3.0193,-3.0339,-3.0401,-3.0412,-3.0412,-3.0464,-3.0609,-3.0609,-3.0609,-3.0546,-3.0071,-2.9764,-2.9656,-2.9979,-2.9554,-2.8625,0.0,0.0,0.0,0.0,0.0,0.0,0.0,0.0,0.0,0.0,0.0,0.0,0.0,0.0,-2.3634,-2.314,0.0,-2.3996,-2.445,-2.5152,-2.5894,-2.6509,-2.6591,-2.6591,-2.6591,-2.6591,-2.6591,-2.6591,-2.6591,-2.6664,-2.6866,-2.7068,-2.7361,-2.7765,-2.7398,-2.6903,-2.6298,-2.726,-2.7398,-2.6591,-2.8177,-2.8984,-2.8984,-2.7633,-2.7013,-2.6892,-2.4309,-2.3076,-2.3014,-2.1853,-2.1362,-2.1369,-2.1899,-2.2215,-2.2356,-2.251,-2.2354,-2.2082,-2.1656,-2.2164,-2.3056,0.0,0.0,0.0,0.0,0.0,0.0,0.0,0.0,0.0,0.0,0.0,-2.6234,-2.7828,-2.7977,-2.8195,0.0,0.0,0.0,0.0,0.0,0.0,0.0,0.0,0.0,0.0,0.0,0.0,0.0,-2.9711,-2.9774,-2.9994,-2.9994,-2.9994,-2.9994,-2.9994,-2.9994,-2.9994,-3.0047,-3.0193,-3.0391,-3.0495,-3.0661,-3.0879,-3.0931,-3.0931,-3.0827,-3.062,-3.0672,-3.0827,-3.0609,-3.0672,-3.0931,-3.1086,-3.1178,-3.0712,-2.795,-2.8097,0.0,0.0,0.0,0.0,0.0,0.0,0.0,0.0,-2.6437,-2.6367,-2.5787,-2.5151,-2.4555,-2.4107,-2.3811,-2.3877,-2.4569,-2.4964,-2.5472,-2.6454,-2.6591,-2.6591,-2.6591,-2.6591,-2.6591,-2.6591,-2.6655,-2.6839,-2.716,-2.7325,-2.7701,-2.8361,-2.8471,-2.8058,-2.7086,-2.8306,-2.8361,-2.7068,-2.8342,-2.8856,-2.8609,-2.7263,-2.6459,-2.6156,-2.3814,-2.2772,-2.2772,-2.2104,-2.1823,-2.185,-2.2794,-2.3178,-2.3207,-2.3197,-2.3306,-2.3393,-2.3135,-2.3472,-2.4021,0.0,0.0,0.0,0.0,0.0,0.0,0.0,0.0,0.0,0.0,0.0,0.0,0.0,0.0,0.0,0.0,0.0,0.0,0.0,0.0,0.0,0.0,0.0,0.0,0.0,0.0,0.0,0.0,0.0,-2.9994,-2.9994,-2.9994,-2.9994,-2.9994,-2.9994,-2.9994,-2.9994,-3.0245,-3.0391,-3.0443,-3.092,-3.1127,-3.1178,-3.1424,-3.1373,-3.1023,-3.0005,-3.0276,-3.1013,-3.0005,-3.0328,-3.1127,-3.0931,-3.1178,-3.116,-2.9139,0.0,-2.8481,-2.52,-2.3351,-2.271,-2.4198,-2.5289,-2.6066,0.0,-2.7983,-2.9034,-2.7269,-2.7357,-2.7631,-2.7055,-2.6507,-2.6206,-2.6307,-2.6353,-2.6435,-2.6564,-2.6591,-2.6591,-2.6591,-2.6591,-2.6591,-2.6591,-2.6903,-2.7132,-2.7169,-2.7847,-2.8297,-2.8388,-2.8728,-2.8856,-2.8718,-2.8893,-2.8893,-2.8718,-2.8893,-2.843,-2.7203,-2.5851,-2.4617,-2.3504,-2.1971,-2.1481,-2.181,-2.2278,-2.246,-2.2545,-2.3249,-2.3508,-2.3573,-2.3869,-2.4174,-2.4298,-2.3346,-2.3268,-2.3695,0.0,0.0,0.0,0.0,0.0,0.0,0.0,0.0,0.0,0.0,0.0,0.0,0.0,0.0,0.0,0.0,0.0,0.0,0.0,0.0,0.0,0.0,0.0,0.0,0.0,0.0,0.0,0.0,0.0,0.0,-2.9994,-2.9994,-2.9994,-2.9994,-2.9994,-2.9994,-2.9994,-3.0297,-3.0495,-3.0661,-3.1075,-3.127,-3.1424,-3.1578,-3.1527,-3.1297,-3.028,-3.0017,0.0,0.0,-3.0056,-3.029,-3.0869,-3.0852,-3.0376,-2.9171,-2.8481,-2.7814,-2.6126,-2.5902,-2.6265,-2.6997,-2.8066,-2.8953,-2.8926,-2.9623,-2.987,-2.8521,-2.8278,-2.813,-2.7485,-2.6377,-2.5766,-2.6472,-2.5995,-2.5784,-2.649,-2.6591,-2.6591,-2.6591,-2.6169,-2.5876,-2.5876,-2.6664,-2.7077,-2.6848,-2.7801,-2.8498,-2.8728,-2.8893,-2.8984,-2.8984,-2.8984,-2.8984,-2.8984,-2.8984,-2.8737,-2.8122,-2.6771,-2.5912,-2.5293,-2.3387,-2.251,-2.2511,-2.2773,-2.3128,-2.3515,-2.397,-2.4167,-2.4188,-2.4303,-2.4529,-2.481,-2.415,-2.415,-2.4516,0.0,0.0,0.0,0.0,0.0,0.0,0.0,0.0,0.0,0.0,0.0,0.0,0.0,0.0,0.0,0.0,0.0,0.0,0.0,0.0,0.0,0.0,0.0,0.0,0.0,0.0,0.0,0.0,0.0,0.0,-2.9994,-2.9994,-2.9994,-2.9994,-2.9994,-2.9994,-2.9994,-3.0297,-3.0557,-3.0827,-3.1075,-3.1373,-3.1618,-3.1618,-3.1465,-3.1087,-3.0104,-2.9726,0.0,0.0,-2.9499,-2.9768,-3.0255,-3.0162,-2.9715,-2.8695,-2.7533,-2.6551,-2.6683,-2.7254,-2.8068,-2.8949,-2.9882,-3.0592,-3.0742,-3.0672,-3.0235,-2.929,-2.8708,-2.8174,-2.7539,-2.6228,-2.5564,-2.6444,-2.5848,-2.5582,-2.6463,-2.6591,-2.6509,-2.6279,-2.5729,-2.5197,-2.4748,-2.6105,-2.704,-2.7086,-2.8003,-2.8682,-2.8966,-2.8984,-2.8984,-2.8984,-2.8984,-2.8984,-2.8984,-2.8984,-2.8797,-2.843,-2.7082,-2.6277,-2.5973,-2.4293,-2.3354,-2.3092,-2.34,-2.3804,-2.424,-2.4569,-2.4767,-2.473,-2.4687,-2.4849,-2.5097,-2.4863,-2.4921,-2.5127,0.0,0.0,0.0,0.0,0.0,0.0,0.0,0.0,0.0,0.0,0.0,0.0,0.0,0.0,0.0,0.0,0.0,0.0,0.0,0.0,0.0,0.0,0.0,0.0,0.0,0.0,0.0,0.0,0.0,0.0,0.0,-2.9994,-2.9994,-2.9994,-2.9994,-2.9994,-2.9994,-3.0297,-3.0557,-3.0827,-3.1075,-3.1373,-3.1618,-3.1618,-3.105,-3.0095,-2.8956,0.0,0.0,0.0,-2.8529,-2.9986,-2.8856,-2.9143,0.0,-2.795,-2.6007,-2.4735,-2.6287,-2.5604,-2.5221,-2.8405,-2.9053,-2.9196,-3.0519,-3.0776,-3.0464,-2.9343,-2.8857,-2.8422,-2.7584,-2.6926,-2.6545,-2.6582,-2.6554,-2.6545,-2.6582,-2.6591,-2.6298,-2.5552,-2.539,-2.4757,-2.3133,-2.5197,-2.7086,-2.8251,-2.8728,-2.8975,-2.8984,-2.8984,-2.8984,-2.8984,-2.8984,-2.8984,-2.8984,-2.8984,-2.837,-2.7013,-2.5729,-2.4564,-2.3705,-2.3294,-2.3142,-2.3121,-2.4131,-2.4547,-2.4583,-2.4973,-2.5105,-2.5112,-2.5052,-2.5119,-2.5127,-2.5112,-2.5119,-2.5127,0.0,0.0,0.0,0.0,0.0,0.0,0.0,0.0,0.0,0.0,0.0,0.0,0.0,0.0,0.0,0.0,0.0,0.0,0.0,0.0,0.0,0.0,0.0,0.0,0.0,0.0,0.0,0.0,0.0,0.0,0.0,0.0,-2.9994,-2.9994,-2.9994,-2.9994,-2.9994,-3.0297,-3.0443,-3.0557,-3.0827,-3.0983,-3.1011,-3.059,-2.9953,-2.9085,0.0,0.0,0.0,0.0,0.0,-2.7631,-2.7885,-2.7511,-2.6663,-2.4735,-2.5189,-2.6156,-2.5349,-2.6276,-2.7807,-2.8906,-2.9817,-3.0496,-3.0968,-3.0672,-2.9984,-2.9016,-2.8032,-2.7058,-2.624,-2.5209,-2.4831,-2.5647,-2.4876,-2.4739,-2.6362,-2.5197,-2.4776,-2.638,-2.5433,-2.5139,-2.6435,-2.6582,-2.6536,-2.6399,-2.8003,-2.8984,-2.8984,-2.8984,-2.8984,-2.8984,-2.8984,-2.8984,-2.8984,-2.8984,-2.831,-2.7021,-2.5928,-2.5129,-2.4601,-2.4472,-2.4336,-2.4123,-2.4474,-2.476,-2.4973,-2.5075,-2.5127,-2.5127,-2.5127,-2.5127,-2.5127,-2.5127,-2.5127,-2.5127,0.0,0.0,0.0,0.0,0.0,0.0,0.0,0.0,0.0,0.0,0.0,0.0,0.0,0.0,0.0,0.0,0.0,0.0,0.0,0.0,0.0,0.0,0.0,0.0,0.0,0.0,0.0,0.0,0.0,0.0,0.0,0.0,0.0,-2.9994,-2.9994,-2.9994,-2.9994,-3.0193,-3.0297,-3.0349,-3.0071,-3.0022,-2.9955,-2.9042,-2.8325,0.0,0.0,0.0,0.0,0.0,-2.6259,-2.6462,-2.6668,-2.5816,-2.4671,-2.4357,-2.521,-2.6275,-2.6072,-2.7613,-2.9321,-2.9927,-3.0701,-3.127,-3.0961,-3.0765,-3.0183,-2.8688,-2.7927,-2.6995,-2.5493,-2.4519,-2.4244,-2.5032,-2.429,-2.4308,-2.6307,-2.5362,-2.5032,-2.6618,-2.5773,-2.5681,-2.716,-2.7004,-2.6582,-2.6059,-2.7462,-2.8342,-2.8342,-2.8342,-2.8535,-2.8966,-2.8984,-2.8984,-2.8984,-2.8984,-2.8191,-2.6476,-2.5631,-2.4952,-2.4406,-2.4655,-2.4434,-2.3903,-2.4488,-2.4598,-2.4393,-2.4936,-2.5127,-2.5127,-2.5127,-2.5127,-2.5127,-2.5127,-2.5127,-2.5127,0.0,0.0,0.0,0.0,0.0,0.0,0.0,0.0,0.0,0.0,0.0,0.0,0.0,0.0,0.0,0.0,0.0,0.0,0.0,0.0,0.0,0.0,0.0,0.0,0.0,0.0,0.0,0.0,0.0,0.0,0.0,0.0,0.0,-2.9787,-2.9787,-2.9787,-2.9787,-2.9787,-2.9933,-3.0066,-2.8793,-2.8412,-2.8514,-2.7139,0.0,0.0,0.0,0.0,0.0,0.0,-2.5455,-2.6487,-2.5378,-2.4273,-2.3919,-2.6494,-2.6007,-2.5211,-2.8272,-2.9213,-2.9672,-3.1229,-3.1618,-3.1414,-3.0651,-3.1002,-3.0815,-2.8396,-2.839,-2.7999,-2.5145,-2.4574,-2.4574,-2.4693,-2.4647,-2.5051,-2.6344,-2.6793,-2.6793,-2.6122,-2.6344,-2.6316,-2.5628,-2.6591,-2.7242,-2.7178,-2.7233,-2.727,-2.727,-2.727,-2.7801,-2.8948,-2.8984,-2.8984,-2.8984,-2.8925,-2.7822,-2.5692,-2.505,-2.4181,-2.3249,-2.3962,-2.3674,-2.2835,-2.4386,-2.4357,-2.3303,-2.4613,-2.5127,-2.5127,-2.5127,-2.5127,-2.5127,-2.5127,-2.5127,-2.5127,0.0,0.0,0.0,0.0,0.0,0.0,0.0,0.0,0.0,0.0,0.0,0.0,0.0,0.0,0.0,0.0,0.0,0.0,0.0,0.0,0.0,0.0,0.0,0.0,0.0,0.0,0.0,0.0,0.0,0.0,0.0,0.0,0.0,0.0,-2.6931,-2.6931,-2.6931,-2.6931,-2.6967,-2.703,0.0,-2.6587,-2.656,0.0,0.0,0.0,0.0,0.0,0.0,0.0,-2.5112,-2.6142,-2.6393,-2.6361,-2.6163,-2.567,-2.6812,-2.8115,-2.7904,-2.9381,-3.107,-3.148,-3.1618,-3.1578,-3.1362,-3.0806,-2.9839,-2.7885,-2.6458,-2.4957,-2.2871,-2.1777,-2.1759,-2.3565,-2.2841,-2.2896,-2.5335,-2.4986,-2.495,-2.627,-2.6527,-2.6976,-2.7967,-2.8342,-2.815,-2.7242,-2.8012,-2.8517,-2.8517,-2.8517,-2.8663,-2.8975,-2.8984,-2.8984,-2.8984,-2.8002,-2.7332,-2.703,-2.6438,-2.5761,-2.4978,-2.5703,-2.5474,-2.4459,-2.4943,-2.4936,-2.465,-2.4987,-2.5127,-2.5127,-2.5127,-2.5127,-2.5127,-2.5127,-2.5127,-2.5127,0.0,0.0,0.0,0.0,0.0,0.0,0.0,0.0,0.0,0.0,0.0,0.0,0.0,0.0,0.0,0.0,0.0,0.0,0.0,0.0,0.0,0.0,0.0,0.0,0.0,0.0,0.0,0.0,0.0,0.0,0.0,0.0,0.0,-2.6145,-2.6145,-2.6145,-2.6145,0.0,0.0,0.0,0.0,0.0,0.0,0.0,0.0,0.0,0.0,0.0,0.0,0.0,0.0,-2.6107,-2.7468,-2.7468,-2.7092,-2.7528,-2.8407,-2.9191,-2.9096,-3.0305,-3.1567,-3.1476,-3.1527,-3.1302,-3.0159,-2.9629,-2.864,-2.6092,-2.4917,-2.3737,-2.1774,-2.0863,-2.1028,-2.2922,-2.2474,-2.2722,-2.5041,-2.4931,-2.5096,-2.6426,-2.6747,-2.7407,-2.8847,-2.8984,-2.87,-2.8022,-2.8104,-2.8196,-2.8196,-2.8196,-2.8434,-2.8966,-2.8984,-2.8984,-2.8984,-2.7822,-2.7323,-2.7521,-2.7083,-2.6455,-2.5623,-2.6348,-2.5785,-2.4232,-2.481,-2.4797,-2.4247,-2.4892,-2.5127,-2.5127,-2.5127,-2.5127,-2.5127,-2.5127,-2.5127,-2.5127,0.0,0.0,0.0,0.0,0.0,0.0,0.0,0.0,0.0,0.0,0.0,0.0,0.0,0.0,0.0,0.0,0.0,0.0,0.0,0.0,0.0,0.0,0.0,0.0,0.0,0.0,0.0,0.0,0.0,0.0,0.0,0.0,0.0,0.0,0.0,0.0,0.0,0.0,0.0,0.0,0.0,0.0,0.0,0.0,0.0,0.0,0.0,0.0,0.0,0.0,-2.6438,-2.6474,-2.8547,-2.8209,-2.7625,-3.0223,-3.006,-2.9351,-3.0643,-3.1224,-3.1424,-3.123,-3.127,-3.0783,-2.8551,-2.8206,-2.7397,-2.4173,-2.3688,-2.3267,-2.1431,-2.1108,-2.1511,-2.2702,-2.295,-2.3435,-2.4785,-2.5644,-2.6195,-2.6399,-2.6921,-2.7711,-2.8865,-2.8897,-2.8869,-2.8975,-2.8012,-2.7416,-2.7416,-2.7416,-2.7902,-2.8948,-2.8984,-2.8984,-2.8984,-2.8122,-2.7702,-2.7702,-2.7695,-2.7131,-2.6064,-2.672,-2.5757,-2.3673,-2.4694,-2.4415,-2.3457,-2.4591,-2.5127,-2.5127,-2.5127,-2.5127,-2.5127,-2.5127,-2.5127,-2.5127,0.0,0.0,0.0,0.0,0.0,0.0,0.0,0.0,0.0,0.0,-2.8587,-2.8587,0.0,0.0,0.0,0.0,0.0,0.0,0.0,0.0,0.0,0.0,0.0,0.0,0.0,0.0,0.0,0.0,0.0,0.0,0.0,0.0,0.0,0.0,0.0,0.0,0.0,0.0,0.0,0.0,0.0,0.0,0.0,0.0,0.0,0.0,0.0,0.0,0.0,0.0,-2.7133,-2.743,-2.9511,-2.9982,-2.977,-2.9785,-3.0112,-3.0359,-2.9928,-3.0344,-3.0983,-3.1178,-3.0754,-3.0203,-2.9973,-2.8339,-2.6339,-2.4454,-2.2993,-2.1855,-2.124,-2.1108,-2.1511,-2.2702,-2.3178,-2.3261,-2.2905,-2.495,-2.6261,-2.5708,-2.6681,-2.7872,-2.8924,-2.824,-2.8122,-2.897,-2.8792,-2.8673,-2.8673,-2.8673,-2.8764,-2.8975,-2.8984,-2.8984,-2.8984,-2.8797,-2.8737,-2.8746,-2.9952,-2.9828,-2.8529,-2.8707,-2.7876,-2.6343,-2.548,-2.4995,-2.4804,-2.5031,-2.5127,-2.5127,-2.5127,-2.5127,-2.5127,-2.5127,-2.5127,-2.5127,0.0,0.0,0.0,0.0,0.0,0.0,0.0,-2.8587,-2.8587,-2.8587,-2.8587,-2.8709,-2.9021,-2.8777,-2.8722,0.0,0.0,0.0,0.0,0.0,0.0,0.0,0.0,0.0,0.0,0.0,-2.4906,-2.4744,0.0,0.0,-2.3137,-2.2604,-2.2241,-2.2036,0.0,0.0,0.0,0.0,0.0,0.0,0.0,0.0,0.0,0.0,0.0,0.0,0.0,0.0,0.0,0.0,-2.6594,-2.6998,-2.9412,-3.0193,-3.0068,-2.9439,-2.988,-3.0409,-2.9468,-3.0003,-3.0776,-3.0765,-3.038,-2.958,-2.8015,-2.6422,-2.4598,-2.2163,-2.0997,-2.0338,-2.0214,-2.0163,-2.0842,-2.2876,-2.337,-2.3727,-2.4455,-2.5729,-2.6518,-2.6388,-2.693,-2.751,-2.8042,-2.7621,-2.752,-2.8051,-2.804,-2.8315,-2.8948,-2.8984,-2.8984,-2.8984,-2.8984,-2.8984,-2.8984,-2.8984,-2.8984,-2.8993,-3.0531,-3.0467,-2.9101,-2.9163,-2.8403,-2.702,-2.5712,-2.4766,-2.4335,-2.4914,-2.4826,-2.4349,-2.4929,-2.5127,-2.5127,-2.5127,-2.5127,-2.5127,0.0,0.0,0.0,0.0,0.0,0.0,0.0,-2.8587,-2.8587,-2.8587,-2.8587,-2.8872,-2.9591,-2.9034,-2.8777,0.0,0.0,0.0,0.0,0.0,0.0,0.0,0.0,0.0,0.0,0.0,0.0,-2.6024,-2.4477,0.0,0.0,0.0,0.0,0.0,-2.2216,-2.2179,-2.2083,0.0,0.0,0.0,0.0,-2.1062,0.0,0.0,0.0,0.0,0.0,0.0,0.0,0.0,-2.5751,-2.602,-2.8483,-2.9383,-2.9433,-2.8987,-2.9436,-2.9971,-2.9436,-2.9947,-3.0568,-3.0443,-3.0015,-2.8911,-2.6124,-2.4656,-2.3128,-2.026,-1.9485,-1.9384,-1.9641,-1.976,-2.064,-2.3096,-2.3425,-2.402,-2.594,-2.6279,-2.6536,-2.7105,-2.7224,-2.7335,-2.7536,-2.7381,-2.7335,-2.7545,-2.7563,-2.7976,-2.8929,-2.8984,-2.8984,-2.8984,-2.8984,-2.8984,-2.8984,-2.8984,-2.8984,-2.8993,-3.0438,-3.0568,-2.9537,-2.9535,-2.8975,-2.7932,-2.6561,-2.5272,-2.4108,-2.5107,-2.4804,-2.3691,-2.4745,-2.5127,-2.5127,-2.5127,-2.5127,-2.5127,0.0,0.0,0.0,0.0,0.0,0.0,0.0,-2.8587,-2.8587,-2.8587,-2.8587,-2.9034,-3.0201,-2.9292,-2.8614,0.0,0.0,0.0,0.0,0.0,0.0,0.0,0.0,0.0,0.0,0.0,0.0,-2.7326,-2.518,0.0,0.0,0.0,0.0,0.0,0.0,-2.1508,-2.1213,-2.1135,0.0,0.0,0.0,0.0,0.0,0.0,0.0,0.0,0.0,0.0,0.0,0.0,0.0,-2.4879,-2.6413,-2.7369,-2.7977,-2.8341,0.0,-2.9289,-3.0055,-3.0182,-3.0151,-3.0339,-2.9448,-2.8121,-2.6993,-2.4785,-2.2612,-2.1218,-2.0063,-1.9632,-2.0741,-2.1255,-2.1916,-2.327,-2.3197,-2.3416,-2.4766,-2.5262,-2.5957,-2.704,-2.7336,-2.7826,-2.8768,-2.7982,-2.7854,-2.8796,-2.8819,-2.8865,-2.8975,-2.8984,-2.8984,-2.8984,-2.8984,-2.8984,-2.8984,-2.8984,-2.8984,-2.8993,-3.0096,-3.0802,-3.0987,-3.0714,-3.072,-3.0854,-2.9444,-2.7586,-2.5604,-2.6527,-2.5635,-2.3691,-2.4745,-2.5127,-2.5127,-2.5127,-2.5127,-2.5127,0.0,0.0,0.0,0.0,0.0,0.0,-2.8587,-2.8587,-2.8587,-2.8587,-2.8587,-2.8777,-2.9265,-2.9197,-2.9279,-2.9659,0.0,0.0,0.0,0.0,0.0,0.0,0.0,0.0,0.0,0.0,-2.7723,-2.7855,-2.6427,0.0,0.0,0.0,0.0,0.0,0.0,-2.2385,-2.2179,-2.1312,0.0,0.0,0.0,0.0,0.0,0.0,0.0,0.0,0.0,0.0,-2.2718,-2.4188,0.0,0.0,-2.3712,-2.4106,0.0,0.0,-2.7124,-2.8299,-2.8161,-2.9039,-2.9942,-2.9659,-2.8973,-2.7796,-2.5858,-2.4089,-2.2447,-2.0722,-1.9802,-1.9531,-2.0223,-2.0497,-2.1165,-2.2867,-2.3004,-2.3672,-2.5913,-2.6362,-2.6903,-2.8122,-2.8376,-2.8275,-2.7978,-2.7566,-2.7483,-2.7914,-2.8113,-2.8462,-2.8957,-2.8984,-2.8984,-2.8984,-2.8984,-2.8984,-2.8984,-2.8984,-2.9103,-2.934,-3.0169,-3.0895,-3.1507,-3.0937,-3.0937,-3.1249,-2.9835,-2.7904,-2.5901,-2.6769,-2.628,-2.4984,-2.5088,-2.5577,-2.6301,-2.6301,-2.6301,-2.6435,0.0,0.0,0.0,0.0,0.0,-2.8587,-2.8587,-2.8587,-2.8587,-2.8587,-2.8587,-2.8655,-2.8831,-2.9108,-2.9536,-3.0337,-2.9455,0.0,0.0,0.0,0.0,0.0,0.0,0.0,0.0,0.0,-2.806,-2.8345,-2.6961,-2.6515,0.0,0.0,-2.5012,-2.4964,0.0,0.0,0.0,0.0,0.0,0.0,0.0,0.0,0.0,0.0,0.0,0.0,0.0,0.0,0.0,0.0,0.0,0.0,0.0,0.0,0.0,0.0,-2.5647,-2.7262,-2.7034,-2.8452,-2.9889,-2.9448,-2.863,-2.7395,-2.5157,-2.3582,-2.2047,-2.0266,-1.968,-1.9577,-1.9838,-2.0076,-2.0827,-2.262,-2.3004,-2.3901,-2.6307,-2.6692,-2.7095,-2.8306,-2.8443,-2.8251,-2.7765,-2.771,-2.771,-2.771,-2.7967,-2.837,-2.8948,-2.8984,-2.8984,-2.8984,-2.8984,-2.8984,-2.8984,-2.9103,-2.9272,-2.9509,-3.0225,-3.0694,-3.095,-3.0912,-3.104,-3.1146,-3.0546,-2.9048,-2.7167,-2.7997,-2.7596,-2.644,-2.6324,-2.6894,-2.7742,-2.7742,-2.7742,-2.7874,0.0,0.0,0.0,0.0,0.0,0.0,-2.8587,-2.8587,-2.8587,-2.8587,-2.8587,-2.8817,-2.9434,-2.894,-2.9089,-3.031,-2.9835,0.0,0.0,0.0,0.0,0.0,0.0,0.0,0.0,0.0,-2.7945,-2.8877,-2.6482,-2.6057,-2.7447,-2.5767,-2.5012,-2.5012,0.0,0.0,0.0,0.0,0.0,0.0,0.0,0.0,0.0,0.0,0.0,0.0,0.0,0.0,0.0,0.0,0.0,0.0,0.0,0.0,0.0,0.0,-2.4478,-2.6196,-2.7541,-2.8928,-2.9994,-2.9994,-2.8554,-2.6818,-2.5563,-2.3491,-2.1443,-2.0167,-1.9922,-1.9884,-1.9893,-2.0567,-2.1502,-2.2702,-2.3233,-2.3919,-2.5216,-2.5442,-2.5892,-2.7105,-2.7196,-2.7664,-2.8847,-2.8966,-2.8966,-2.8966,-2.8966,-2.8975,-2.8984,-2.8984,-2.8984,-2.8984,-2.8984,-2.8984,-2.8984,-2.9331,-2.9499,-2.9509,-3.0098,-2.9959,-2.9199,-3.0762,-3.1309,-3.0986,-3.2195,-3.1673,-2.993,-3.0881,-2.9896,-2.7849,-2.8802,-2.9191,-2.9182,-2.9182,-2.9182,-2.9182,0.0,0.0,0.0,0.0,0.0,0.0,0.0,-2.8587,-2.8587,-2.8587,-2.8587,-2.8655,-2.8845,-2.9094,-2.938,-2.974,-2.9624,0.0,0.0,0.0,0.0,0.0,0.0,0.0,0.0,0.0,-2.7648,-2.7945,-2.7079,-2.6909,-2.734,-2.6807,-2.6772,-2.7054,-2.5768,-2.5192,0.0,0.0,0.0,0.0,0.0,0.0,-2.4022,0.0,0.0,0.0,0.0,0.0,0.0,0.0,0.0,0.0,0.0,0.0,0.0,0.0,0.0,0.0,-2.5037,-2.6144,-2.7084,-2.6693,-2.6131,-2.5235,-2.3697,-2.2534,-2.1509,-2.0526,-2.0068,-2.0058,-2.064,-2.0943,-2.1603,-2.3068,-2.3416,-2.4212,-2.6316,-2.66,-2.7059,-2.8269,-2.8407,-2.8563,-2.8948,-2.848,-2.8388,-2.8938,-2.8462,-2.8397,-2.8948,-2.8984,-2.8984,-2.8984,-2.8984,-2.8984,-2.8984,-2.9331,-2.9558,-2.9804,-3.0216,-3.0055,-2.9507,-3.0859,-3.1113,-3.0488,-3.1797,-3.1519,-3.0112,-3.0389,-3.0045,-2.9387,-2.8937,-2.9369,-3.0246,-3.0506,-3.0669,-3.0798,0.0,0.0,0.0,0.0,0.0,0.0,0.0,-2.8587,-2.8587,-2.8587,-2.8587,-2.8587,-2.8587,-2.8926,-2.9319,-2.9794,-2.9618,0.0,0.0,0.0,0.0,0.0,0.0,0.0,0.0,-2.7623,-2.7496,-2.7937,-2.7319,-2.7329,-2.7896,-2.7482,-2.7469,-2.7758,-2.635,-2.5776,0.0,0.0,0.0,0.0,0.0,0.0,-2.4862,0.0,0.0,0.0,0.0,0.0,0.0,0.0,0.0,0.0,0.0,0.0,0.0,0.0,-2.3279,-2.3689,0.0,-2.51,-2.583,-2.5412,-2.4946,-2.4277,0.0,0.0,-2.1624,-2.092,-2.1053,-2.1278,-2.1099,-2.1701,-2.2299,-2.2777,-2.3678,-2.4702,-2.5656,-2.6206,-2.6774,-2.7536,-2.8136,-2.8597,-2.8938,-2.8526,-2.8434,-2.8948,-2.8517,-2.8443,-2.8957,-2.8984,-2.9044,-2.9153,-2.9044,-2.9035,-2.9213,-2.9509,-2.9804,-3.0098,-3.046,-3.015,-2.9365,-3.0684,-3.0801,-3.0029,-3.1357,-3.1553,0.0,-3.0891,-3.093,-3.0869,-3.0236,-3.0506,-3.1302,-3.1555,-3.1649,-3.1775,0.0,0.0,0.0,0.0,0.0,0.0,0.0,-2.8587,-2.8587,-2.8587,-2.8587,-2.8587,-2.8587,-2.8587,-2.9089,-3.0262,0.0,0.0,0.0,0.0,0.0,0.0,0.0,0.0,-2.757,-2.7175,-2.7498,-2.8551,-2.7177,-2.7268,-2.875,-2.772,-2.7278,-2.7256,-2.67,-2.5985,0.0,0.0,0.0,0.0,0.0,0.0,0.0,0.0,0.0,0.0,0.0,0.0,0.0,0.0,0.0,0.0,0.0,0.0,0.0,0.0,0.0,0.0,0.0,-2.5307,-2.564,-2.5627,-2.4705,-2.3721,0.0,0.0,0.0,0.0,0.0,-2.3119,-2.1572,-2.2778,-2.3519,-2.2061,-2.3978,-2.5215,-2.3831,-2.473,-2.5515,-2.5433,-2.6726,-2.7928,-2.8814,-2.8929,-2.8984,-2.8984,-2.8984,-2.8984,-2.8984,-2.8984,-2.9153,-2.945,-2.9153,-2.9153,-2.9499,-2.9804,-2.9992,-3.0257,-3.0655,-3.0089,-2.8774,-3.0244,-3.0391,-2.96,-3.0908,-3.1699,-3.2141,-3.2141,-3.2141,-3.208,-3.2109,-3.2119,-3.2129,-3.2219,-3.2229,-3.2229,0.0,0.0,0.0,0.0,0.0,0.0,0.0,0.0,0.0,0.0,-2.8587,-2.8587,-2.8587,-2.8587,-2.9009,0.0,0.0,0.0,0.0,0.0,0.0,0.0,0.0,0.0,-2.7947,-2.7323,-2.7306,-2.7975,-2.6987,-2.6901,-2.7657,-2.7002,-2.6914,-2.7278,-2.6273,-2.5473,0.0,0.0,0.0,0.0,0.0,0.0,0.0,0.0,0.0,0.0,-2.599,-2.5664,0.0,0.0,0.0,0.0,0.0,0.0,0.0,0.0,-2.472,-2.3988,-2.465,0.0,-2.2842,-2.3205,-2.2807,-2.2403,0.0,0.0,0.0,0.0,0.0,0.0,0.0,-2.4101,-2.4587,-2.327,-2.4431,-2.5374,-2.4977,-2.5986,-2.6408,-2.5534,-2.7307,-2.8364,-2.7664,-2.8443,-2.8984,-2.8984,-2.8984,-2.8984,-2.8984,-2.8984,-2.9044,-2.9103,-2.9044,-2.9272,-2.9804,-2.9863,-2.9506,-2.8679,-2.993,-2.9331,-2.7288,-2.9787,-3.0225,-2.915,-3.0469,-3.1094,-3.1191,-3.1191,-3.1191,-3.1221,-3.1543,-3.167,-3.1709,-3.2041,-3.2229,-3.2229,0.0,0.0,0.0,0.0,0.0,0.0,0.0,0.0,0.0,0.0,0.0,0.0,0.0,0.0,0.0,0.0,0.0,0.0,0.0,0.0,0.0,0.0,0.0,-2.7947,-2.759,-2.7209,-2.7186,-2.7586,-2.6867,-2.6776,-2.7268,-2.6751,-2.665,-2.6901,-2.5988,-2.5094,0.0,0.0,0.0,0.0,-2.5803,0.0,0.0,0.0,0.0,0.0,-2.7165,-2.6795,0.0,-2.5875,-2.5203,-2.4627,0.0,0.0,0.0,0.0,-2.5335,-2.4622,-2.4489,-2.3581,-2.2822,-2.3556,-2.3074,-2.2686,-2.3584,0.0,0.0,0.0,0.0,0.0,0.0,-2.4137,-2.4467,-2.3648,-2.4196,-2.4882,-2.5341,-2.6143,-2.6363,-2.5497,-2.6744,-2.7558,-2.7243,-2.8269,-2.8984,-2.8984,-2.8984,-2.8984,-2.8984,-2.8984,-2.9044,-2.9213,-2.9213,-2.939,-2.9686,-2.9745,-2.9181,-2.8131,-2.9498,-2.9202,-2.7385,-2.9516,-3.0142,-2.9589,-2.9715,-3.0227,-3.084,-3.0234,-3.0342,-3.0918,-3.1143,-3.123,-3.126,-3.1494,-3.1582,-3.1582,0.0,0.0,0.0,0.0,0.0,0.0,0.0,0.0,0.0,0.0,0.0,0.0,0.0,0.0,0.0,0.0,0.0,0.0,0.0,0.0,0.0,0.0,0.0,-2.7703,-2.7074,-2.6973,-2.7049,-2.7281,-2.6763,-2.6738,-2.7178,-2.6713,-2.6411,-2.6223,-2.5774,-2.4848,0.0,0.0,-2.4691,-2.4618,-2.5319,0.0,0.0,0.0,0.0,0.0,0.0,0.0,0.0,-2.7216,-2.6452,-2.5686,-2.621,0.0,0.0,0.0,0.0,0.0,-2.4441,-2.4093,-2.4207,-2.5166,-2.4292,-2.3608,-2.5057,0.0,0.0,0.0,0.0,0.0,0.0,-2.4372,-2.4535,-2.3629,-2.3849,-2.4436,-2.5277,-2.5893,-2.6044,-2.5494,-2.6166,-2.6833,-2.7318,-2.8443,-2.9163,-2.9163,-2.9044,-2.8984,-2.8984,-2.8984,-2.9153,-2.939,-2.945,-2.945,-2.945,-2.945,-2.8999,-2.802,-2.9268,-2.9211,-2.8048,-2.9354,-3.0039,-3.0266,-2.92,-2.9477,-3.0684,-2.9565,-2.9817,-3.083,-3.0889,-3.0889,-3.0889,-3.0889,-3.0889,-3.0889,0.0,0.0,0.0,0.0,0.0,0.0,0.0,0.0,0.0,0.0,0.0,0.0,0.0,0.0,0.0,0.0,0.0,0.0,0.0,0.0,0.0,-2.872,-2.7985,-2.7536,-2.7423,-2.6863,-2.6798,-2.7281,-2.6763,-2.6537,-2.6612,-2.6537,-2.5996,-2.5096,-2.5435,-2.47,-2.3265,-2.4349,-2.4788,-2.4793,-2.5352,0.0,0.0,0.0,0.0,0.0,0.0,0.0,0.0,-2.6776,-2.6185,-2.5611,-2.5699,0.0,0.0,0.0,0.0,0.0,-2.498,-2.4941,-2.5363,-2.6063,-2.4723,-2.3772,-2.5914,0.0,0.0,0.0,0.0,0.0,0.0,-2.7258,-2.7798,-2.4091,-2.4459,-2.5212,-2.5396,-2.6359,-2.6626,-2.5543,-2.7734,-2.8956,-2.8031,-2.9078,-2.9745,-2.9745,-2.9281,-2.8984,-2.8984,-2.8984,-2.9044,-2.9103,-2.9103,-2.9103,-2.9103,-2.9331,-2.8883,-2.7715,-2.8969,-2.8913,-2.7743,-2.9229,-2.9922,-2.9971,-2.9781,-2.981,-3.0089,-3.0122,-3.0267,-3.0509,-3.0762,-3.0889,-3.0889,-3.0889,-3.0889,-3.0889,0.0,0.0,0.0,0.0,0.0,0.0,0.0,0.0,0.0,0.0,0.0,0.0,0.0,0.0,0.0,0.0,0.0,0.0,0.0,0.0,0.0,-2.8645,-2.7914,-2.7423,-2.7242,-2.6918,-2.6654,-2.6377,-2.6113,-2.5883,-2.5573,-2.5573,-2.531,-2.4788,-2.4757,-2.4142,-2.3133,-2.3659,-2.4061,-2.4443,0.0,0.0,0.0,0.0,0.0,0.0,0.0,0.0,0.0,0.0,-2.6562,-2.6097,-2.6097,0.0,0.0,0.0,0.0,0.0,-2.619,-2.5822,-2.599,-2.8054,-2.6203,-2.4764,-2.8041,-2.6066,0.0,0.0,0.0,0.0,0.0,-2.657,-2.6332,-2.4794,-2.6096,-2.7095,-2.6435,-2.693,-2.7234,-2.6894,-2.8217,-2.8973,-2.8645,-2.9355,-2.9922,-2.9922,-2.934,-2.8984,-2.8984,-2.8984,-2.8984,-2.8984,-2.8984,-2.8984,-2.8984,-2.9153,-2.8602,-2.7401,-2.863,-2.8575,-2.7428,-2.8774,-2.9509,-2.9648,-2.8914,-2.9124,-2.9874,-2.9298,-2.9537,-3.0157,-3.0284,-3.046,-3.0635,-3.083,-3.0889,-3.0889,0.0,0.0,0.0,0.0,0.0,0.0,0.0,0.0,0.0,0.0,0.0,0.0,0.0,0.0,0.0,0.0,0.0,0.0,0.0,0.0,-2.8522,-2.836,-2.7802,-2.7324,-2.6948,-2.6768,-2.6265,-2.541,-2.541,-2.5209,-2.4788,-2.4788,-2.4725,-2.4587,-2.4318,-2.3791,-2.312,-2.3384,-2.3822,-2.4456,0.0,0.0,0.0,0.0,0.0,0.0,0.0,0.0,0.0,0.0,0.0,0.0,0.0,0.0,0.0,-2.6499,-2.6499,-2.6578,-2.6905,-2.6429,-2.6472,-2.9261,0.0,-2.5571,-2.9746,-2.7105,-2.4877,0.0,0.0,-2.483,-2.6888,-2.5846,-2.501,-2.6011,-2.7511,-2.8391,-2.7918,-2.7986,-2.8155,-2.8492,-2.8949,-2.9385,-2.9642,-3.0092,-3.0333,-3.0333,-2.9627,-2.9213,-2.9213,-2.9103,-2.8984,-2.8984,-2.8984,-2.8984,-2.8984,-2.8984,-2.8517,-2.7609,-2.8544,-2.8498,-2.7636,-2.8563,-2.9163,-2.9335,-2.8281,-2.8583,-2.962,-2.871,-2.8936,-2.9804,-2.9863,-3.0039,-3.0333,-3.0645,-3.0762,-3.0762,0.0,0.0,0.0,0.0,0.0,0.0,0.0,0.0,0.0,0.0,0.0,0.0,0.0,0.0,0.0,0.0,0.0,0.0,0.0,0.0,-2.8295,-2.759,-2.7523,-2.7255,-2.6739,-2.6059,-2.5431,-2.4838,-2.4838,-2.4825,-2.4788,-2.4788,-2.4512,-2.4079,-2.4556,-2.4123,-2.317,-2.4224,-2.5008,-2.5536,-2.6185,0.0,0.0,0.0,0.0,0.0,0.0,0.0,0.0,0.0,0.0,0.0,0.0,0.0,-2.6499,-2.6499,-2.6499,-2.6439,-2.625,-2.6429,-2.7035,-2.8307,-2.6541,0.0,-2.9746,-2.7105,0.0,-2.8188,-2.8162,-2.765,-2.794,-2.7007,-2.6674,-2.8269,-2.7854,-2.79,-2.9463,-2.9731,-2.9731,-2.9789,-3.0839,-3.1589,-3.1589,-3.1622,-3.1672,-3.1672,-3.0509,-2.9872,-2.9872,-2.9272,-2.8984,-2.8984,-2.8984,-2.8984,-2.8984,-2.8984,-2.8938,-2.8856,-2.8938,-2.8938,-2.8856,-2.8948,-2.8984,-2.9035,-2.8952,-2.8961,-2.9094,-2.9297,-2.9425,-2.9558,-2.9804,-2.9922,-2.9981,-3.0333,-3.045,-3.045,0.0,0.0,0.0,0.0,0.0,0.0,0.0,0.0,0.0,0.0,0.0,0.0,0.0,0.0,0.0,0.0,0.0,0.0,0.0,-2.8729,-2.8398,-2.7527,-2.7294,-2.666,-2.546,-2.5541,-2.5172,-2.4305,-2.3923,-2.3923,-2.4305,-2.391,-2.3822,-2.3991,-2.381,-2.3898,-2.4186,-2.4612,-2.5523,-2.6691,-2.7256,-2.7858,0.0,0.0,0.0,0.0,0.0,0.0,0.0,0.0,-2.6499,-2.6461,0.0,-2.6323,-2.6499,-2.6499,-2.6499,-2.6618,-2.7172,-2.6681,-2.685,-3.0408,-2.8294,0.0,0.0,-2.86,-2.6837,-2.9988,-2.8545,-2.662,-2.6585,-2.7597,-2.851,-2.8748,-2.9151,-2.9709,-3.0354,-3.049,-3.0606,-3.1034,-3.1498,-3.1971,-3.2315,-3.2028,-3.1787,-3.1787,-3.0956,-3.049,-3.049,-2.9912,-2.9568,-2.9568,-2.9222,-2.8984,-2.8984,-2.8984,-2.8984,-2.8984,-2.8984,-2.8984,-2.8984,-2.8984,-2.8984,-2.8984,-2.8984,-2.8984,-2.8984,-2.9163,-2.9213,-2.9213,-2.9686,-2.9922,-2.999,-3.0518,-3.0704,-3.0704,0.0,0.0,0.0,0.0,0.0,0.0,0.0,0.0,0.0,0.0,0.0,0.0,0.0,0.0,0.0,0.0,0.0,0.0,-2.9118,-2.9013,-2.8592,-2.7721,-2.7319,-2.6411,-2.5031,-2.5405,-2.4983,-2.3728,-2.3296,-2.3308,-2.3715,-2.3283,-2.3308,-2.3715,-2.3659,-2.4061,-2.4825,-2.5339,-2.6352,-2.757,-2.7959,-2.821,0.0,0.0,0.0,0.0,0.0,0.0,0.0,0.0,-2.6336,0.0,0.0,0.0,0.0,0.0,-2.6314,-2.634,-2.7222,-2.6705,-2.6846,-3.0661,0.0,0.0,-3.116,-2.9628,-2.8148,-3.063,-2.9366,-2.7673,-2.7259,-2.862,-2.9687,-2.9426,-2.9882,-3.0419,-3.1014,-3.1121,-3.1305,-3.173,-3.1971,-3.2258,-3.2669,-3.2326,-3.2086,-3.2086,-3.1478,-3.1121,-3.1121,-3.0548,-3.0089,-2.9931,-2.9509,-2.9213,-2.8984,-2.8984,-2.8984,-2.8984,-2.8984,-2.8984,-2.8984,-2.8984,-2.8984,-2.8984,-2.8984,-2.8984,-2.8984,-2.8984,-2.8984,-2.9044,-2.945,-2.9636,-2.9686,-3.0225,-3.0528,-3.0587,0.0,0.0,0.0,0.0,0.0,0.0,0.0,0.0,0.0,0.0,0.0,0.0,0.0,0.0,0.0,0.0,0.0,0.0,-3.0123,-2.9537,-2.8877,-2.811,-2.7566,-2.6763,-2.5632,-2.5586,-2.4795,-2.312,-2.312,-2.312,-2.312,-2.312,-2.312,-2.3183,-2.4311,-2.4825,-2.4926,-2.6615,-2.762,-2.8109,-2.8109,-2.8436,-2.8762,0.0,0.0,0.0,0.0,0.0,0.0,0.0,-2.6021,0.0,0.0,0.0,0.0,0.0,-2.5933,-2.542,-2.5973,-2.6503,-2.7141,0.0,0.0,0.0,-3.142,-2.9873,-2.8282,-2.9434,-3.0786,-3.1536,-3.0807,-3.0302,-3.015,-3.0634,-2.9742,-2.9707,-3.1539,-3.1787,-3.1787,-3.1787,-3.2315,-3.2669,-3.2669,-3.2669,-3.2669,-3.2669,-3.2143,-3.1787,-3.1787,-3.1179,-3.0548,-2.9922,-2.9922,-2.9627,-2.9044,-2.9044,-2.9044,-2.9044,-2.8984,-2.8984,-2.8984,-2.8984,-2.8984,-2.8984,-2.8984,-2.8984,-2.8984,-2.8984,-2.8984,-2.8984,-2.8984,-2.8984,-2.9044,-2.939,-2.9686,-2.9981,0.0,0.0,0.0,0.0,0.0,0.0,0.0,0.0,0.0,0.0,0.0,0.0,0.0,0.0,0.0,0.0,0.0,0.0,-2.9537,-2.9472,-2.8773,-2.717,-2.6971,-2.6337,-2.5189,-2.5079,-2.4775,-2.4299,-2.4299,-2.4299,-2.4299,-2.4299,-2.4519,-2.4933,-2.6452,-2.713,-2.7243,-2.8913,-2.9264,-2.865,-2.865,-2.8323,-2.7733,0.0,0.0,0.0,0.0,0.0,0.0,0.0,0.0,0.0,0.0,0.0,0.0,-2.8372,-2.7538,-2.6588,-2.8697,-2.737,0.0,-2.8935,0.0,0.0,0.0,-2.9354,0.0,-3.0241,-3.038,-3.0075,-2.9374,-3.0704,-3.1639,-3.0843,-3.1209,-3.1799,-3.2322,-3.244,-3.244,-3.244,-3.2612,-3.2669,-3.2669,-3.2669,-3.2669,-3.2669,-3.2555,-3.244,-3.244,-3.1845,-3.1431,-3.1267,-3.0781,-3.0431,-3.0255,-3.0255,-3.0255,-3.0246,-2.9853,-2.939,-2.8984,-2.8984,-2.8984,-2.8984,-2.8984,-2.8984,-2.9044,-2.9272,-2.9331,-2.939,-2.9804,-2.9981,-3.0039,-3.0343,-3.0528,-3.0645,0.0,0.0,0.0,0.0,0.0,0.0,0.0,0.0,0.0,0.0,0.0,0.0,0.0,0.0,0.0,0.0,0.0,0.0,0.0,-2.9406,-2.8657,-2.7306,-2.6968,-2.6456,-2.5605,-2.5539,-2.5473,-2.5473,-2.5034,-2.4788,-2.48,-2.5034,-2.5297,-2.5674,-2.7356,-2.8109,-2.8185,-2.9428,-2.9515,-2.885,-2.8448,-2.7871,-2.7291,0.0,0.0,0.0,0.0,0.0,0.0,0.0,0.0,0.0,0.0,0.0,0.0,-2.8372,-2.7705,-2.7173,-2.8721,-2.7357,0.0,-2.9274,-2.8766,-2.7751,-2.8879,-2.9245,-2.9804,-3.12,-3.1154,-3.0778,-3.0292,-3.1554,-3.2457,-3.164,-3.2188,-3.2669,-3.2669,-3.2669,-3.2669,-3.2669,-3.2669,-3.2669,-3.2669,-3.2669,-3.2669,-3.2669,-3.2669,-3.2669,-3.2669,-3.2383,-3.2028,-3.1787,-3.1431,-3.1063,-3.082,-3.082,-3.082,-3.0762,-3.0206,-2.9695,-2.934,-2.9103,-2.8984,-2.8984,-2.8984,-2.8984,-2.9044,-2.939,-2.9499,-2.9558,-3.0039,-3.0216,-3.0216,-3.0411,-3.0587,-3.0704,0.0,0.0,0.0,0.0,0.0,0.0,0.0,0.0,0.0,0.0,0.0,0.0,0.0,0.0,0.0,0.0,0.0,0.0,0.0,0.0,-2.8489,-2.801,-2.7314,-2.6807,-2.6499,-2.6499,-2.6512,-2.6562,-2.5485,-2.4996,-2.5026,-2.5536,-2.5799,-2.5975,-2.7607,-2.8285,-2.8222,-2.8787,-2.8925,-2.865,-2.7682,-2.7291,-2.719,-2.6688,0.0,0.0,0.0,0.0,0.0,0.0,0.0,0.0,0.0,0.0,-2.9126,-2.7341,-2.7184,-2.7615,-2.7474,-2.7124,0.0,-2.9368,-2.8838,-2.8267,-3.0204,-2.9668,-2.9549,-3.229,-3.268,-3.2582,-3.2706,-3.2669,-3.2669,-3.2669,-3.2669,-3.2669,-3.2669,-3.2669,-3.2669,-3.2669,-3.2669,-3.2669,-3.2669,-3.2669,-3.2669,-3.2669,-3.2669,-3.2669,-3.2669,-3.2669,-3.244,-3.1903,-3.1903,-3.1604,-3.1005,-3.0946,-3.0946,-3.0946,-3.0382,-3.0039,-2.9981,-2.9272,-2.8984,-2.8984,-2.8984,-2.8984,-2.9044,-2.939,-2.9568,-2.9568,-2.9863,-2.9981,-2.9981,-2.9981,-3.0157,-3.045,0.0,0.0,0.0,0.0,0.0,0.0,0.0,0.0,0.0,0.0,0.0,0.0,0.0,0.0,0.0,0.0,0.0,0.0,0.0,0.0,-2.8087,-2.7284,-2.6837,-2.6568,-2.6499,-2.6499,-2.6713,-2.714,-2.6474,-2.6361,-2.6753,-2.6866,-2.7381,-2.826,-2.9515,-2.9591,-2.8775,-2.9829,-2.9239,-2.7607,-2.7381,-2.7052,-2.6663,-2.6537,-2.6499,0.0,0.0,0.0,0.0,0.0,0.0,0.0,-2.6499,-2.6826,-2.7467,-2.8699,-2.9172,-2.967,-3.1321,-3.0277,0.0,0.0,-2.7954,-2.7825,-3.1407,-3.1171,-3.0965,-3.3576,-3.2511,-3.1454,-3.253,-3.2669,-3.2669,-3.2669,-3.2669,-3.2669,-3.2669,-3.2669,-3.2669,-3.2669,-3.2669,-3.2669,-3.2669,-3.2669,-3.2669,-3.2669,-3.2669,-3.2669,-3.2669,-3.2669,-3.2612,-3.2498,-3.2498,-3.243,-3.2315,-3.2315,-3.2315,-3.2258,-3.1672,-3.1141,-3.0597,-2.9499,-2.8984,-2.8984,-2.8984,-2.8984,-2.9044,-2.9568,-2.9804,-2.9863,-3.047,-3.0713,-3.0713,-3.0713,-3.0704,-3.0762,0.0,0.0,0.0,0.0,0.0,0.0,0.0,0.0,0.0,0.0,0.0,0.0,0.0,0.0,0.0,0.0,0.0,0.0,0.0,0.0,-2.7917,-2.7193,-2.6794,-2.6681,-2.6889,-2.6889,-2.7165,-2.767,-2.7394,-2.7394,-2.7682,-2.7946,-2.8373,-2.8913,-2.9502,-2.9439,-2.89,-2.9001,-2.8348,-2.7291,-2.7027,-2.6751,-2.6499,-2.6499,-2.6499,-2.6499,-2.6499,0.0,0.0,0.0,0.0,0.0,0.0,0.0,-2.8108,-2.8209,-2.8712,-2.9505,-3.0707,0.0,0.0,-3.0384,0.0,-3.0762,-3.2231,-3.2551,-3.2886,-3.4216,-3.345,-3.2577,-3.2649,-3.3172,-3.3388,-3.2784,-3.2669,-3.2669,-3.2669,-3.2669,-3.2669,-3.2669,-3.2669,-3.2669,-3.2669,-3.2669,-3.2669,-3.2669,-3.2669,-3.2669,-3.2669,-3.2669,-3.2669,-3.2669,-3.2669,-3.2669,-3.2669,-3.2669,-3.2669,-3.2669,-3.2086,-3.1315,-3.0314,-2.945,-2.8984,-2.8984,-2.8984,-2.8984,-2.9044,-2.9509,-2.9686,-2.9745,-3.0225,-3.0528,-3.0645,-3.0645,-3.0762,-3.0889,0.0,0.0,0.0,0.0,0.0,0.0,0.0,0.0,0.0,0.0,0.0,0.0,0.0,0.0,0.0,0.0,0.0,0.0,0.0,0.0,0.0,-2.7655,-2.7177,-2.7116,-2.7513,-2.7454,-2.7695,-2.8247,-2.8247,-2.8436,-2.8825,-2.9189,-2.9314,-2.9314,-2.9214,-2.8963,-2.8574,-2.757,-2.7178,-2.714,-2.6675,-2.6499,-2.6499,-2.6499,-2.6499,-2.6499,-2.6499,-2.6499,-2.6499,-2.6499,0.0,0.0,0.0,0.0,-2.885,-2.704,-2.7668,-2.897,0.0,0.0,-3.1078,-3.2594,-3.3484,0.0,-3.319,-3.3722,-3.4395,-3.4481,-3.4312,-3.3875,-3.2898,-3.3491,-3.3875,-3.2841,-3.2669,-3.2669,-3.2669,-3.2669,-3.2669,-3.2669,-3.2669,-3.2669,-3.2669,-3.2669,-3.2669,-3.2669,-3.2669,-3.2669,-3.2669,-3.2669,-3.2669,-3.2669,-3.2669,-3.2669,-3.2669,-3.2669,-3.2669,-3.2669,-3.2086,-3.1267,-3.0216,-2.945,-2.9103,-2.8984,-2.8984,-2.8984,-2.9044,-2.939,-2.9499,-2.9509,-2.9804,-3.0098,-3.0323,-3.0323,-3.0518,-3.0772,0.0,0.0,0.0,0.0,0.0,0.0,0.0,0.0,0.0,0.0,0.0,0.0,0.0,0.0,0.0,0.0,0.0,0.0,0.0,0.0,0.0,-2.9035,-2.8303,-2.8102,-2.8503,-2.8178,-2.826,-2.8787,-2.8787,-2.9753,-3.165,-3.1248,-3.106,-3.1047,-3.0595,-2.9315,-2.7457,-2.6876,-2.66,-2.66,-2.6524,-2.6499,-2.6499,-2.6499,-2.6499,-2.6499,-2.6499,-2.6499,-2.6499,-2.6499,-2.6499,0.0,0.0,0.0,-2.6876,-2.6587,-2.8336,-3.0348,0.0,0.0,-3.3287,0.0,-3.3555,-3.2727,-3.5123,-3.4721,-3.3945,-3.4384,-3.366,-3.2898,-3.2727,-3.2841,-3.2898,-3.2727,-3.2669,-3.2669,-3.2669,-3.2669,-3.2669,-3.2669,-3.2669,-3.2669,-3.2669,-3.2669,-3.2669,-3.2669,-3.2669,-3.2669,-3.2669,-3.2669,-3.2669,-3.2669,-3.2669,-3.2669,-3.2669,-3.2669,-3.2669,-3.2669,-3.2086,-3.173,-3.1498,-3.0333,-2.9518,-2.8984,-2.8984,-2.8984,-2.9044,-2.939,-2.9499,-2.9509,-2.9804,-2.9922,-2.9981,-2.9981,-2.999,-3.0108,0.0,0.0,0.0,0.0,0.0,0.0,0.0,0.0,0.0,0.0,0.0,0.0,0.0,0.0,0.0,0.0,0.0,0.0,0.0,0.0,0.0,-2.9574,-2.8856,-2.8649,-2.9125,-2.8747,-2.885,-2.9415,-2.9415,-3.0859,0.0,-3.337,-3.2754,-3.1863,-3.2277,-3.0532,-2.7366,-2.807,-2.7454,-2.6034,-2.6361,-2.6499,-2.6499,-2.6499,-2.6499,-2.6499,-2.6499,-2.6499,-2.6499,-2.6499,-2.6499,-2.6499,-2.6499,0.0,0.0,0.0,-2.7783,-2.9289,-3.1788,-3.2111,-3.258,0.0,-3.4129,-3.2271,-3.5443,-3.4921,-3.4009,-3.5183,-3.5002,-3.4469,-3.3818,-3.3717,-3.3717,-3.3717,-3.3172,-3.2669,-3.2669,-3.2669,-3.2669,-3.2669,-3.2669,-3.2669,-3.2669,-3.2669,-3.2669,-3.2669,-3.2669,-3.2669,-3.2669,-3.2669,-3.2669,-3.2669,-3.2669,-3.2669,-3.2669,-3.2669,-3.2669,-3.2669,-3.244,-3.2143,-3.1787,-3.1208,-3.045,-2.9518,-2.9163,-2.8984,-2.8984,-2.9153,-2.9213,-2.9213,-2.9331,-2.9509,-2.9686,-2.9686,-2.9745,-2.9922,0.0,0.0,0.0,0.0,0.0,0.0,0.0,0.0,0.0,0.0,0.0,0.0,0.0,0.0,0.0,0.0,0.0,0.0,0.0,0.0,0.0,-3.0188,-2.9499,-2.9342,-2.9739,-2.9315,-2.9365,-2.9792,0.0,0.0,-3.3884,-3.4311,-3.3847,-3.2667,-3.3382,-3.1851,-2.88,-2.9503,-2.8586,-2.6703,-2.7165,-2.7002,-2.6499,-2.6499,-2.6499,-2.6499,-2.6499,-2.6499,-2.6499,-2.6499,-2.6499,-2.6512,-2.6663,-2.67,0.0,0.0,0.0,-2.8549,0.0,0.0,-3.1914,-3.606,-3.4243,-3.2205,-3.516,-3.484,-3.4353,-3.5736,-3.6363,-3.636,-3.5498,-3.5124,-3.4858,-3.4536,-3.3717,-3.3058,-3.2727,-3.2669,-3.2669,-3.2669,-3.2669,-3.2669,-3.2669,-3.2669,-3.2669,-3.2669,-3.2669,-3.2669,-3.2669,-3.2669,-3.2669,-3.2669,-3.2669,-3.2669,-3.2669,-3.2669,-3.2669,-3.2669,-3.2669,-3.244,-3.2028,-3.1845,-3.1267,-3.0333,-2.9736,-2.939,-2.9222,-2.9222,-2.9163,-2.8984,-2.8984,-2.9153,-2.939,-2.939,-2.9509,-2.9745,0.0,0.0,0.0,0.0,0.0,0.0,0.0,0.0,0.0,0.0,0.0,0.0,-3.0547,-3.0051,-2.9754,-3.0054,-3.0635,0.0,0.0,0.0,0.0,-3.1217,-3.0657,0.0,-3.0355,-2.996,-2.9767,-2.9792,0.0,0.0,-3.1599,-3.3194,-3.3897,-3.3796,-3.3319,-3.2993,-3.2696,-3.0645,-2.9716,-2.9578,-2.9616,-2.8385,-2.6499,-2.6499,-2.6499,-2.6499,-2.6499,-2.6499,-2.6499,-2.6499,-2.6499,-2.6587,-2.7115,-2.7278,-2.7344,0.0,0.0,0.0,0.0,-3.221,0.0,-3.4422,-3.3514,-3.2621,-3.4395,-3.4719,-3.4842,-3.5426,-3.6737,-3.7779,-3.7725,-3.6846,-3.5761,-3.4692,-3.4424,-3.3987,-3.2841,-3.2669,-3.2669,-3.2669,-3.2669,-3.2669,-3.2669,-3.2669,-3.2669,-3.2669,-3.2669,-3.2669,-3.2669,-3.2669,-3.2669,-3.2669,-3.2669,-3.2669,-3.2669,-3.2669,-3.2669,-3.2669,-3.2669,-3.2669,-3.2612,-3.2086,-3.1787,-3.1672,-3.1005,-3.0372,-2.9863,-2.9863,-2.9509,-2.8984,-2.8984,-2.8984,-2.9044,-2.9044,-2.9044,-2.9103,0.0,0.0,0.0,0.0,0.0,0.0,0.0,0.0,0.0,0.0,0.0,0.0,0.0,-3.0575,-3.0744,-3.1383,-3.1649,0.0,0.0,0.0,0.0,-3.1693,-3.099,-3.0411,-3.0004,-2.936,-2.891,0.0,0.0,-2.9252,-3.0909,-3.1512,-3.2541,-3.3997,-3.6295,-3.5152,-3.1612,-3.3294,-3.159,-2.7945,-3.0746,-2.9755,-2.665,-2.8096,-2.8636,-2.8448,-2.7014,-2.7643,-2.8913,-2.7505,-2.7218,-2.7607,-2.816,-2.8335,-2.8524,-2.944,-2.9854,-3.0419,-3.2265,0.0,0.0,-3.4003,-3.2679,-3.1373,-3.4053,-3.468,-3.4752,-3.4957,-3.7171,-3.8716,-3.7653,-3.6759,-3.6306,-3.6642,-3.5454,-3.4368,-3.3931,-3.3172,-3.2669,-3.2669,-3.2669,-3.2669,-3.2669,-3.2669,-3.2669,-3.2669,-3.1909,-3.1805,-3.2628,-3.1899,-3.1816,-3.2649,-3.2669,-3.2669,-3.2669,-3.2669,-3.2669,-3.2669,-3.2669,-3.2669,-3.2669,-3.2498,-3.2383,-3.2383,-3.2133,-3.1421,-3.0431,-3.003,-2.9971,-3.0138,-2.9745,-2.9577,-2.9577,-2.9577,-2.934,-2.9044,0.0,0.0,0.0,0.0,0.0,0.0,0.0,0.0,0.0,-3.0176,0.0,0.0,0.0,0.0,-3.1474,-3.1857,-3.1884,-3.1789,-3.1514,-3.1549,-3.1442,-3.1118,-3.0646,-3.0062,-2.9398,-2.888,0.0,0.0,0.0,0.0,0.0,-3.0269,-3.1399,-3.2955,-3.6458,-3.6081,-3.2968,-3.5366,-3.3866,-3.0006,-3.2231,-3.1351,-2.88,-2.9515,-2.9905,-2.9942,-2.9051,-2.9515,-3.0507,-2.9754,-2.9252,-2.9076,-2.9765,-2.9654,-2.9365,-3.0118,-3.0331,-3.0583,-3.1675,0.0,0.0,0.0,-3.1549,-3.0645,-3.2842,-3.4154,-3.4956,-3.4956,-3.75,-3.9346,-3.8228,-3.7706,-3.7501,-3.7832,-3.6642,-3.5344,-3.4591,-3.3829,-3.3161,-3.2727,-3.2669,-3.2669,-3.2669,-3.2669,-3.2669,-3.2669,-3.1888,-3.1774,-3.2628,-3.1868,-3.1851,-3.282,-3.2955,-3.3012,-3.3012,-3.2898,-3.2851,-3.2851,-3.2727,-3.2669,-3.2669,-3.2669,-3.2669,-3.2669,-3.2669,-3.2076,-3.1121,-3.0675,-3.0665,-3.0772,-3.0372,-3.0206,-3.0206,-2.9981,-2.9627,-2.9272,0.0,0.0,0.0,0.0,0.0,0.0,0.0,0.0,-3.0127,-3.0127,0.0,0.0,0.0,0.0,0.0,-3.1341,-3.1273,-3.0945,-3.0164,-3.0288,-3.0129,-2.9557,0.0,0.0,0.0,0.0,0.0,0.0,0.0,0.0,0.0,0.0,-3.0545,-3.0683,-3.3407,-3.5516,-3.701,-3.6609,-3.6307,-3.6003,-3.4079,-3.3162,-3.2667,-3.0733,-3.0244,-3.0834,-3.2503,-3.2089,-3.1085,-3.3219,-3.2491,-3.0859,-3.1851,-3.1097,-2.9842,-2.9842,-2.9829,-2.9817,0.0,0.0,0.0,-2.9792,-3.0193,-3.0595,-3.062,-3.3088,-3.542,-3.542,-3.7701,-3.9634,-3.9622,-3.9659,-3.931,-3.8161,-3.7938,-3.7138,-3.4914,-3.4536,-3.4099,-3.2898,-3.2727,-3.2669,-3.2669,-3.2669,-3.2669,-3.2669,-3.2638,-3.2685,-3.2669,-3.2727,-3.2851,-3.3193,-3.3466,-3.3568,-3.3568,-3.3306,-3.3193,-3.3193,-3.2851,-3.2669,-3.2669,-3.2669,-3.2669,-3.2669,-3.2669,-3.2373,-3.1855,-3.1787,-3.1431,-3.082,-3.082,-3.083,-3.0772,-3.0147,-2.9922,-2.9813,0.0,0.0,0.0,0.0,0.0,-3.0934,-3.0777,-3.0751,-3.0751,0.0,0.0,0.0,-3.1596,-3.1514,-3.1441,-3.1314,-3.0907,-3.0547,-3.0336,-3.037,-3.0254,-2.9963,-2.9719,-2.924,-2.8469,0.0,0.0,0.0,0.0,0.0,0.0,0.0,0.0,0.0,-3.1436,-3.2792,-3.3734,-3.6006,-3.4424,-3.0821,-3.5843,-3.4067,-2.8787,-3.2986,-3.2905,-3.0884,-3.2943,-3.3897,-3.4229,-3.4843,-3.3897,-3.224,-3.1336,-3.1009,-3.0947,-3.0947,-3.0683,-3.0382,-3.0382,0.0,0.0,0.0,0.0,0.0,-3.052,-3.224,-3.3759,-3.3759,-3.627,-3.8354,-3.7952,-3.8868,-3.9581,-3.9258,-3.8489,-3.7672,-3.7031,-3.5564,-3.4368,-3.4043,-3.3218,-3.2669,-3.2669,-3.2669,-3.2669,-3.2669,-3.1816,-3.1681,-3.2675,-3.2908,-3.3182,-3.3466,-3.3353,-3.3306,-3.3306,-3.3022,-3.2851,-3.2851,-3.2727,-3.2669,-3.2669,-3.2669,-3.2669,-3.2669,-3.2669,-3.2612,-3.244,-3.1971,-3.196,-3.2133,-3.1662,-3.1546,-3.1488,-3.1325,-3.0684,-2.9863,0.0,0.0,0.0,0.0,0.0,-3.0986,-3.0986,-3.0986,-3.0986,0.0,0.0,0.0,-3.1481,-3.1361,-3.1192,-3.0948,-3.0608,-3.0405,-3.0405,-3.0405,-3.037,-3.024,-2.9984,-2.9612,-2.9003,-2.8481,-2.8002,0.0,0.0,0.0,0.0,-2.8185,-2.8587,-2.8938,0.0,0.0,-3.1373,-3.3997,-3.3872,-3.219,-3.5579,-3.509,-3.2641,-3.5638,-3.5604,-3.4324,-3.6295,-3.6973,-3.7073,-3.799,-3.6584,-3.4331,-3.3319,-3.1964,-3.0896,-3.1825,-3.1223,-3.0269,-3.0269,-3.0043,-2.9792,-2.9792,0.0,0.0,-3.0821,-3.2754,-3.4557,-3.4738,-3.7249,-3.9019,-3.7764,-3.8329,-3.8919,-3.868,-3.8062,-3.7658,-3.7853,-3.675,-3.5564,-3.4591,-3.3875,-3.3275,-3.2727,-3.2669,-3.2669,-3.2669,-3.1992,-3.1944,-3.2867,-3.3182,-3.3523,-3.3805,-3.3749,-3.3692,-3.359,-3.3239,-3.3012,-3.2908,-3.2794,-3.2669,-3.2669,-3.2669,-3.2669,-3.2669,-3.2669,-3.2669,-3.2669,-3.2315,-3.2383,-3.2669,-3.2315,-3.2201,-3.2143,-3.1903,-3.1325,-3.0626,0.0,0.0,-3.1123,-3.1024,-3.0986,-3.0986,-3.0986,-3.0986,-3.1024,0.0,-3.1373,-3.1566,-3.1319,-3.13,-3.1083,-3.0554,-3.0446,-3.0405,-3.0405,-3.0405,-3.0405,-3.0405,-3.0405,-3.0206,-2.984,-2.9469,-2.9093,0.0,0.0,0.0,0.0,0.0,-2.8988,-2.9013,0.0,0.0,-2.988,-3.126,-3.3696,-3.6458,-3.4437,-3.6132,-3.971,-3.8216,-3.8002,-3.8768,-4.0727,-4.0362,-3.9309,-4.127,-3.9648,-3.6694,-3.6204,-3.3357,-3.057,-3.2269,-3.1361,-2.9867,-2.9817,-2.9792,-2.9792,-2.9792,-3.0168,0.0,-3.126,-3.3727,-3.6065,-3.6759,-3.8881,-3.9959,-3.809,-3.7739,-3.755,-3.6998,-3.6849,-3.7022,-3.7718,-3.7882,-3.7014,-3.4692,-3.4437,-3.4043,-3.2841,-3.2669,-3.2669,-3.2669,-3.2669,-3.2841,-3.325,-3.3466,-3.3749,-3.4142,-3.4356,-3.43,-3.403,-3.3749,-3.3409,-3.3136,-3.2841,-3.2669,-3.2669,-3.2669,-3.2669,-3.2669,-3.2669,-3.2669,-3.2669,-3.2669,-3.2669,-3.2669,-3.2669,-3.2669,-3.2623,-3.2086,-3.1845,-3.173,0.0,-3.2123,-3.1882,-3.1123,-3.0986,-3.0986,-3.0986,-3.0986,-3.1061,-3.1235,-3.1582,-3.1698,-3.1319,-3.13,-3.1246,-3.1124,-3.069,-3.0405,-3.0405,-3.0405,-3.0405,-3.0405,-3.0405,-3.0288,-3.0054,-2.9819,-2.9588,-2.9403,0.0,0.0,0.0,0.0,0.0,-2.9628,0.0,0.0,-2.9779,-2.9641,-3.0972,-3.3407,-3.6006,-3.6571,-3.6194,-3.9282,-3.868,-3.6697,-4.0601,-4.094,-3.9597,-4.0023,-3.9672,-3.8417,-3.4896,-3.3432,-3.2742,-3.0959,-3.0444,-3.0357,-2.9917,-2.9792,-2.9792,-2.9792,-2.988,0.0,-3.1173,-3.1901,-3.2905,-3.4813,-3.5583,-3.5972,-3.5972,-3.5984,-3.5796,-3.529,-3.4613,-3.4887,-3.7034,-3.766,-3.6879,-3.4168,-3.4249,-3.4043,-3.2841,-3.2669,-3.2669,-3.2669,-3.2669,-3.2955,-3.3466,-3.3568,-3.3851,-3.4412,-3.4255,-3.403,-3.3681,-3.3409,-3.3136,-3.2794,-3.2727,-3.2669,-3.2669,-3.2669,-3.2669,-3.2669,-3.2669,-3.2669,-3.2669,-3.2669,-3.2669,-3.2669,-3.2669,-3.2669,-3.268,-3.2555,-3.2201,-3.1787,-3.322,-3.3059,-3.2918,-3.2434,-3.1992,-3.1713,-3.1713,-3.1296,-3.1061,-3.1123,-3.1522,-3.1639,-3.1319,-3.13,-3.13,-3.13,-3.1015,-3.0975,-3.1273,-3.13,-3.13,-3.13,-3.13,-3.1251,-3.1167,-3.0856,-3.0677,-3.0582,0.0,0.0,0.0,0.0,0.0,-2.9792,0.0,0.0,-2.9779,-2.9478,-3.0633,-3.2867,-3.5366,-3.6533,-3.7161,-4.0475,-4.0701,-3.9546,-4.1769,-4.2032,-4.1204,-4.0388,-3.9923,-3.9308,-3.7073,-3.5052,-3.3219,-3.1838,-3.0846,-3.0143,-2.9867,-2.9792,-2.9792,-2.9792,-2.9792,0.0,0.0,-3.1637,-3.2704,-3.4374,-3.5378,-3.578,-3.5194,-3.4868,-3.455,-3.3985,-3.3282,-3.3104,-3.3929,-3.571,-3.6439,-3.5125,-3.5199,-3.4902,-3.3717,-3.3058,-3.2794,-3.2965,-3.2784,-3.3012,-3.3805,-3.3692,-3.3851,-3.4468,-3.4255,-3.3918,-3.3625,-3.3353,-3.3022,-3.2669,-3.2669,-3.2669,-3.2669,-3.2669,-3.2669,-3.2669,-3.2669,-3.2669,-3.2669,-3.2669,-3.2669,-3.2669,-3.2669,-3.2669,-3.2669,-3.2669,-3.2498,-3.2258,-3.4148,-3.3979,-3.391,-3.3739,-3.3129,-3.2599,-3.2434,-3.175,-3.1196,-3.0904,-3.1368,-3.1723,-3.1757,-3.1563,-3.1527,-3.1879,-3.2015,-3.2082,-3.2146,-3.2603,-3.2657,-3.2232,-3.2218,-3.2218,-3.2218,-3.1863,-3.1716,-3.168,-3.0885,0.0,0.0,0.0,0.0,-2.9792,0.0,0.0,0.0,-3.0432,-3.17,-3.3866,-3.514,-3.6772,-3.873,-4.137,-4.2389,-4.2396,-4.2823,-4.2974,-4.271,-4.0953,-4.0061,-3.9622,-3.9182,-3.637,-3.3219,-3.3106,-3.1599,-2.993,-2.9829,-2.9792,-2.9792,-2.9792,-2.9792,-2.9942,0.0,0.0,0.0,-3.401,-3.5303,-3.5818,-3.4487,-3.3872,-3.3357,-3.2704,-3.1938,-3.1203,-3.0748,-3.2795,-3.4365,-3.4571,-3.4876,-3.4631,-3.3475,-3.2717,-3.256,-3.3172,-3.2908,-3.3126,-3.403,-3.3805,-3.3851,-3.4468,-3.4311,-3.3974,-3.3625,-3.3409,-3.3069,-3.2669,-3.2669,-3.2669,-3.2669,-3.2669,-3.2669,-3.2669,-3.2669,-3.2669,-3.2669,-3.2669,-3.2669,-3.2669,-3.2669,-3.2669,-3.2669,-3.2669,-3.2669,-3.2669,-3.5142,-3.4945,-3.4666,-3.3842,-3.3636,-3.329,-3.2506,-3.2304,-3.1802,-3.0609,-3.1445,-3.2438,-3.3311,-3.2489,-3.2452,-3.3987,-3.4632,-3.408,-3.2061,-3.4034,-3.438,-3.2314,-3.2218,-3.2218,-3.2218,-3.2146,-3.2023,-3.189,-3.1248,0.0,0.0,0.0,0.0,-2.9792,-2.9792,-3.0884,-3.2747,-3.2747,-3.4016,-3.6216,-3.8278,-3.8153,-3.7149,-4.1304,-4.1706,-4.0325,-4.2283,-4.2974,-4.2647,-4.0513,-3.9747,-3.9346,-3.741,-3.5391,-3.3709,-3.3262,-3.1863,-3.0419,-2.993,-2.9792,-2.9792,-2.9792,-2.9792,-2.9942,-3.0495,0.0,-3.1198,-3.2277,0.0,-3.2717,-3.2528,0.0,0.0,-3.106,-2.9525,-2.8801,-2.9725,-2.9077,-2.86,-2.8797,-3.0138,-3.0586,-2.9377,-3.0296,-3.1587,-3.3098,-3.2908,-3.3126,-3.403,-3.3805,-3.3851,-3.4468,-3.4468,-3.4188,-3.3636,-3.3568,-3.3296,-3.2669,-3.2669,-3.2669,-3.2669,-3.2669,-3.2669,-3.2669,-3.2669,-3.2669,-3.2669,-3.2669,-3.2669,-3.2669,-3.2669,-3.2669,-3.2669,-3.2669,-3.2669,-3.2669,-3.5975,-3.5896,-3.5625,-3.4666,-3.4518,-3.4216,-3.329,-3.2741,-3.228,-3.1905,-3.1847,-3.264,-3.4656,-3.4412,-3.498,-3.7116,-3.7536,-3.7252,-3.6251,-3.5778,-3.5156,-3.4272,-3.2803,-3.2036,-3.2036,-3.2036,-3.1927,-3.172,-3.1248,-3.0949,0.0,0.0,0.0,-2.9972,-2.9972,-3.113,-3.3124,-3.3124,-3.4394,-3.6493,-3.7436,-3.7211,-3.6885,-4.1304,-4.2409,-4.1593,-4.1568,-4.2158,-4.2484,-3.9308,-3.9735,-4.099,-3.7511,-3.5906,-3.5316,-3.5077,-3.2704,-3.0369,-3.1411,-3.17,-3.17,-3.17,-3.17,-3.1763,-3.1989,-3.106,-3.0444,-3.1512,0.0,0.0,0.0,0.0,0.0,0.0,-3.0388,-2.9407,-2.9054,-2.8175,-2.7996,-2.9116,-2.9664,-2.9943,-2.9818,-2.9373,-2.9922,-3.2078,-3.1517,-3.1692,-3.3052,-3.3412,-3.3851,-3.4468,-3.4356,-3.4019,-3.3625,-3.3466,-3.3126,-3.2669,-3.2669,-3.2669,-3.2669,-3.2669,-3.2669,-3.2669,-3.2669,-3.2669,-3.2669,-3.2669,-3.2669,-3.2669,-3.2669,-3.2669,-3.2669,-3.2669,-3.2669,-3.2669,-3.6492,-3.6492,-3.6289,-3.5593,-3.5482,-3.5175,-3.4216,-3.3797,-3.3606,-3.3679,-3.3403,-3.3948,-3.6007,-3.5453,-3.6008,-3.8729,-3.927,-3.9392,-3.923,-3.7493,-3.6534,-3.67,-3.3682,-3.2273,-3.2845,-3.2226,-3.178,-3.1522,-3.1174,-3.0986,0.0,0.0,0.0,-3.019,-3.0113,-3.1238,-3.3235,-3.3765,-3.5299,-3.7373,-3.7976,-3.8191,-3.8492,-4.1091,-4.2459,-4.2823,-4.1618,-4.1957,-4.2459,-3.9032,-3.9747,-4.1517,-3.8341,-3.6872,-3.6533,-3.7136,-3.46,-3.1938,-3.3589,-3.4016,-3.3878,-3.3275,-3.3124,-3.296,-3.2315,-3.0934,-3.0055,-3.0984,-3.1286,0.0,0.0,0.0,-3.239,-3.224,0.0,-2.9856,-2.8748,-2.7567,-2.7261,-2.8418,-2.8629,-2.8796,-2.9174,-2.8421,-2.8682,-3.0606,-3.0339,-3.0716,-3.2193,-3.32,-3.3963,-3.4356,-3.4255,-3.403,-3.3625,-3.3409,-3.3069,-3.2669,-3.2669,-3.2669,-3.2669,-3.2669,-3.2898,-3.3161,-3.3161,-3.3388,-3.3649,-3.3649,-3.3649,-3.3649,-3.3649,-3.3649,-3.3604,-3.2944,-3.2669,-3.2669,-3.6492,-3.6492,-3.6492,-3.646,-3.646,-3.6148,-3.5207,-3.5905,-3.6353,-3.5787,-3.6537,-3.7237,-3.7618,-3.4794,-3.4309,-3.7836,-3.9195,-3.9644,-3.9034,-3.9091,-3.9183,-3.9183,-3.4679,-3.3179,-3.5238,-3.306,-3.1693,-3.131,-3.1099,-3.0911,0.0,0.0,0.0,-3.0368,-3.019,-3.1318,-3.3538,-3.5478,-3.7586,-3.9772,-4.1907,-4.2773,-4.2547,-4.0551,-4.1128,-4.2974,-4.2924,-4.2936,-4.2635,-4.0375,-3.9697,-3.9772,-3.9634,-3.8128,-3.6835,-3.8969,-3.7965,-3.6216,-3.6279,-3.6304,-3.5789,-3.3652,-3.3124,-3.2516,-3.0382,-2.9842,-2.9955,-3.052,-3.1035,-3.1562,-3.2139,-3.2679,-3.2867,-3.2303,-3.0577,0.0,0.0,-2.6591,-2.4789,-2.4533,-2.5401,-2.5847,-2.5396,-2.6884,-2.814,-2.8737,-2.9787,-3.081,-3.1867,-3.331,-3.4086,-3.4086,-3.4367,-3.4188,-3.3636,-3.3568,-3.3296,-3.2669,-3.2669,-3.2669,-3.2669,-3.2669,-3.3332,-3.4424,-3.4424,-3.5068,-3.6077,-3.6077,-3.6077,-3.6077,-3.6077,-3.6077,-3.5815,-3.3547,-3.2669,-3.2669,-3.6753,-3.6492,-3.632,-3.5657,-3.6085,-3.6383,-3.607,-3.5263,-3.5319,-3.6953,-3.6269,-3.698,-4.0728,-3.9976,-3.9747,-4.0945,-4.3052,-4.3444,-4.1517,-4.1443,-4.1538,-4.1679,-3.8482,-3.6234,-3.5208,-3.442,-3.3063,-3.1099,-3.1024,-3.0986,0.0,0.0,0.0,0.0,-3.033,-3.1385,-3.3348,-3.55,-3.7676,-3.976,-4.0501,-4.0802,-4.0877,-4.1593,-4.2333,-4.2974,-4.2974,-4.2974,-4.2635,-4.0438,-4.0664,-4.1618,-4.0149,-3.9182,-3.9019,-4.1216,-3.9309,-3.6732,-3.8165,-3.8567,-3.8379,-3.7638,-3.6392,-3.5097,-3.4356,-3.1876,-3.0043,-3.0947,-3.0997,-3.1273,-3.2554,-3.2629,-3.2566,-3.2754,-3.1631,-3.04,0.0,-2.6992,-2.5084,-2.4993,-2.4205,-2.4178,-2.5523,-2.513,-2.5542,-2.7378,-2.7594,-2.7984,-2.8903,-3.1132,-3.2458,-3.2717,-3.3469,-3.3794,-3.3625,-3.3409,-3.3512,-3.3875,-3.3875,-3.4312,-3.5002,-3.5002,-3.5223,-3.5663,-3.5663,-3.587,-3.6185,-3.6185,-3.6185,-3.6185,-3.6185,-3.6185,-3.6077,-3.5322,-3.4514,-3.3773,-3.6892,-3.6492,-3.632,-3.5689,-3.5832,-3.6437,-3.772,-3.6512,-3.6665,-4.0009,-3.8478,-3.8533,-4.2336,-4.2125,-4.1956,-4.2639,-4.3566,-4.4117,-4.3962,-4.1443,-4.1207,-4.4054,-4.0046,-3.7722,-3.7752,-3.6022,-3.459,-3.3605,-3.1861,-3.1392,-3.2176,0.0,0.0,0.0,-3.0444,-3.1058,-3.2339,-3.5173,-3.7224,-3.8617,-3.9597,-4.0337,-4.0953,-4.1794,-4.2472,-4.2974,-4.2974,-4.2974,-4.276,-4.1342,-4.1806,-4.2735,-4.1304,-4.0865,-4.1141,-4.2559,-4.1006,-3.9082,-4.0475,-4.0865,-4.0664,-3.9885,-3.8617,-3.7385,-3.6593,-3.4205,-3.2328,-3.3031,-3.3056,-3.3093,-3.3571,-3.352,-3.3332,-3.3119,-3.1964,-3.0595,0.0,-2.698,-2.5516,-2.5336,-2.4314,-2.4039,-2.503,-2.4377,-2.447,-2.5834,-2.6151,-2.6546,-2.7193,-3.0328,-3.1983,-3.1667,-3.3737,-3.4602,-3.4054,-3.4267,-3.4636,-3.5124,-3.5124,-3.5498,-3.6185,-3.6185,-3.6402,-3.6792,-3.6792,-3.7061,-3.7447,-3.7447,-3.7447,-3.7447,-3.7447,-3.7447,-3.7329,-3.6522,-3.5498,-3.4368,-3.6938,-3.6507,-3.6492,-3.6492,-3.5874,-3.6499,-3.9883,-3.9439,-4.023,-4.4369,-4.2862,-4.1684,-4.2447,-4.1288,-4.105,-4.2527,-4.1058,-4.174,-4.5872,-3.9414,-3.8751,-4.617,-3.9735,-3.8038,-4.2501,-3.7899,-3.6385,-3.8344,-3.3526,-3.2306,-3.4387,0.0,0.0,0.0,-3.0596,-3.0406,-3.0663,-3.4691,-3.6483,-3.6835,-3.9346,-4.1354,-4.2685,-4.1091,-4.1517,-4.2974,-4.2974,-4.2974,-4.2974,-4.2974,-4.2974,-4.2974,-4.2974,-4.2974,-4.2974,-4.2974,-4.2974,-4.2974,-4.2974,-4.2974,-4.2472,-4.0375,-3.9772,-3.9132,-3.7059,-3.6493,-3.643,-3.6433,-3.681,-3.6684,-3.5165,-3.5182,-3.4956,-3.3445,-3.175,-2.9867,-2.7708,-2.6735,-2.5985,-2.5444,-2.5548,-2.5188,-2.3853,-2.4545,-2.4831,-2.4263,-2.5556,-2.6515,-2.6861,-3.0751,-3.2424,-3.1137,-3.4747,-3.6167,-3.4902,-3.5954,-3.6387,-3.6294,-3.6294,-3.6306,-3.6348,-3.6348,-3.6954,-3.8003,-3.8003,-3.8659,-3.9697,-3.9697,-3.9697,-3.9697,-3.9697,-3.9697,-3.9413,-3.7115,-3.5597,-3.4636,-3.7646,-3.683,-3.6492,-3.6492,-3.7943,-3.9096,-3.9071,-3.9906,-4.0858,-4.1859,-4.1772,-4.2011,-4.2973,-4.3758,-4.2961,-3.9774,-4.0788,-4.1338,-4.0737,-4.0663,-4.2442,-4.6319,-4.4654,-4.3309,-4.2622,-4.1362,-3.998,-3.8602,-3.5423,-3.4149,-3.4622,0.0,0.0,0.0,0.0,-3.0457,-3.0444,-3.4781,-3.7722,-3.9383,-3.8429,-3.9283,-4.1053,-4.0224,-4.1178,-4.2974,-4.2974,-4.2974,-4.2974,-4.2974,-4.2974,-4.2974,-4.2974,-4.2974,-4.2974,-4.2974,-4.2974,-4.2974,-4.2974,-4.2974,-4.2836,-4.2271,-4.0902,-3.9546,-3.8969,-3.7575,-3.6508,-3.6897,-3.6772,-3.6744,-3.7098,-3.5943,-3.4881,-3.4868,-3.2449,-3.0269,-2.9289,-2.8238,-2.7311,-2.6503,-2.5935,-2.524,-2.4235,-2.3889,-2.3898,-2.4375,-2.5114,-2.5853,-2.6645,-2.8034,-2.9546,-3.1031,-3.1538,-3.2753,-3.4891,-3.4619,-3.5451,-3.7447,-3.7447,-3.7938,-3.8816,-3.8816,-3.8985,-3.9258,-3.9258,-3.9413,-3.9697,-3.9697,-3.9697,-3.9697,-3.9697,-3.9697,-3.953,-3.8003,-3.7287,-3.6911,-3.7523,-3.6753,-3.6492,-3.6492,-3.9234,-4.119,-4.0456,-4.1044,-4.2106,-4.3466,-4.2735,-4.264,-4.4138,-4.5101,-4.4543,-4.1892,-4.0952,-4.0893,-4.1855,-4.0094,-4.1143,-4.5898,-4.5156,-4.3933,-4.244,-4.256,-4.1804,-4.0228,-3.6665,-3.5396,-3.6267,0.0,0.0,0.0,0.0,-3.0546,-3.0522,-3.4902,-3.8273,-4.0597,-3.9487,-4.012,0.0,-4.0648,-4.1374,-4.2974,-4.2974,-4.2974,-4.2974,-4.2974,-4.2974,-4.2974,-4.2974,-4.2974,-4.2974,-4.2974,-4.2974,-4.2974,-4.2974,-4.2974,-4.2974,-4.2974,-4.2045,-4.1128,-4.1128,-4.0174,-3.9371,-3.9659,-3.9522,-3.9271,-3.912,-3.7487,-3.5658,-3.4267,-3.2528,-3.1035,-3.0269,-3.0231,-2.9749,-2.8269,-2.7486,-2.664,-2.5608,-2.4303,-2.3784,-2.4445,-2.4743,-2.512,-2.5637,-2.7587,-2.8802,-2.9147,-3.0865,-3.2325,-3.351,-3.3523,-3.492,-3.7582,-3.7582,-3.8333,-3.9697,-3.9697,-3.9697,-3.9697,-3.9697,-3.9697,-3.9697,-3.9697,-3.9697,-3.9697,-3.9697,-3.9362,-3.8868,-3.8764,-3.8319,-3.7832,-3.7046,-3.6492,-3.6599,-3.6953,-3.9914,-4.2408,-4.2834,-4.2783,-4.3656,-4.6238,-4.4488,-4.354,-4.505,-4.5515,-4.5635,-4.5524,-4.1413,-4.0752,-4.5242,-3.9203,-3.849,-4.5368,-4.3715,-4.2635,-4.2635,-4.2919,-4.2919,-4.2684,-3.7812,-3.6432,-3.8238,0.0,0.0,0.0,0.0,0.0,-3.1535,-3.5124,-3.8329,-4.1012,-4.122,-4.2049,-4.2992,-4.1707,-4.1976,-4.303,-4.303,-4.303,-4.2974,-4.2974,-4.2974,-4.2974,-4.2974,-4.2974,-4.2974,-4.2974,-4.2974,-4.2974,-4.2974,-4.2974,-4.2974,-4.2974,-4.2974,-4.2974,-4.2974,-4.2974,-4.2974,-4.2974,-4.2974,-4.2534,-4.1103,-3.9283,-3.6835,-3.3232,-3.2403,-3.1888,-3.0959,-3.219,-3.2306,-2.9928,-2.9392,0.0,-2.6986,-2.5056,-2.4064,-2.4466,-2.454,-2.4612,-2.4755,-2.7871,-2.8852,-2.7092,-3.1289,-3.3088,-3.1984,-3.3051,-3.4811,-3.7305,-3.7238,-3.8065,-3.9697,-3.9697,-3.9697,-3.9697,-3.9697,-3.9697,-3.9697,-3.9697,-3.9697,-3.9697,-3.9697,-3.8985,-3.8056,-3.9089,-3.8712,-3.7725,-3.7138,-3.6492,-3.72,-3.9398,-4.0169,-4.1317,-4.3929,-4.5196,-4.528,-4.3541,-4.4371,-4.4637,-4.3493,-4.4925,-4.5071,-4.3041,-4.2035,-4.1999,-4.3112,-4.1718,-4.2341,-4.5767,-4.5367,-4.4982,-4.4982,-4.5245,-4.5402,-4.535,-4.0422,-3.8247,-3.8496,-3.3383,0.0,0.0,0.0,0.0,-3.6129,-3.5865,-3.7903,-4.1285,-4.1064,-4.1295,-4.1835,-4.2652,-4.314,-4.3338,-4.3338,-4.3184,-4.2974,-4.2974,-4.2974,-4.2974,-4.2974,-4.2974,-4.2974,-4.2974,-4.2974,-4.2974,-4.2974,-4.2974,-4.2974,-4.2974,-4.2974,-4.2974,-4.2974,-4.2974,-4.2974,-4.2974,-4.2974,-4.2886,-4.2597,-4.0061,-3.7337,-3.5245,-3.3364,-3.2139,-3.1964,-3.298,-3.255,-2.9268,-2.9952,-2.9342,-2.5858,-2.4523,-2.4064,-2.4466,-2.47,-2.5234,-2.62,-2.5986,-2.6926,-2.9236,-3.0018,-3.1354,-3.332,-3.4097,-3.5591,-3.7778,-3.7382,-3.8065,-3.9697,-3.9697,-3.9697,-3.9697,-3.9697,-3.9697,-3.9697,-3.9697,-3.9697,-3.9697,-3.9697,-3.8985,-3.795,-3.8161,-3.7501,-3.6792,-3.8908,-3.7446,-3.7015,-3.8677,-3.9698,-4.0984,-4.3049,-4.5275,-4.6035,-4.4124,-4.4758,-4.5116,-4.4371,-4.5181,-4.5353,-4.428,-4.2961,-4.2837,-4.4245,-4.2984,-4.3258,-4.5701,-4.5808,-4.5194,-4.3875,-4.5232,-4.5363,-4.4052,-4.0307,-3.8466,-3.836,-3.3343,-3.0986,-3.1039,0.0,-3.4306,-3.6876,-3.8232,-4.0095,-4.2123,-4.2866,-4.3123,-4.3161,-4.365,-4.3683,-4.3394,-4.3394,-4.324,-4.2974,-4.2974,-4.2974,-4.2974,-4.2974,-4.2974,-4.2974,-4.2974,-4.2974,-4.2974,-4.2974,-4.2974,-4.2974,-4.2974,-4.2974,-4.2974,-4.2974,-4.2974,-4.2974,-4.2974,-4.2974,-4.271,-4.1856,-4.0388,-3.8768,-3.705,-3.5157,-3.389,-3.389,-3.4367,-3.4122,-3.2447,-3.305,-3.2323,-2.9054,-2.7878,-2.6563,-2.4634,-2.4615,-2.4949,-2.5482,-2.6121,-2.7252,-2.8997,-3.0146,-3.1611,-3.3535,-3.3853,-3.5213,-3.7538,-3.7306,-3.8065,-3.9697,-3.9697,-3.9697,-3.9697,-3.9697,-3.9697,-3.9697,-3.9697,-3.9697,-3.9633,-3.8985,-3.8056,-3.7007,-3.7007,-3.6306,-3.5553,-4.128,-3.9644,-3.8569,-3.9677,-4.0669,-4.1924,-4.3645,-4.5422,-4.6363,-4.5688,-4.5688,-4.5795,-4.6007,-4.5914,-4.5714,-4.5482,-4.401,-4.3634,-4.4824,-4.3718,-4.367,-4.5088,-4.566,-4.499,-4.2955,-4.4962,-4.5002,-4.3015,-4.0459,-3.8859,-3.8111,-3.4003,-3.2042,-3.2147,-3.4541,-3.6279,-3.7674,-4.0799,-4.2544,-4.333,-4.4559,-4.4951,-4.4681,-4.4422,-4.4026,-4.356,-4.3517,-4.3295,-4.3098,-4.3168,-4.3074,-4.2974,-4.2974,-4.2974,-4.2974,-4.2974,-4.2974,-4.2974,-4.2974,-4.2974,-4.2974,-4.2974,-4.2974,-4.2974,-4.2974,-4.2974,-4.2974,-4.2974,-4.2974,-4.2585,-4.1279,-4.0752,-3.9961,-3.8278,-3.6574,-3.537,-3.5019,-3.5132,-3.5205,-3.5205,-3.5017,-3.4156,-3.2204,-3.0767,-2.8689,-2.5647,-2.5179,-2.5115,-2.5291,-2.6844,-2.7988,-2.8567,-3.048,-3.2008,-3.3037,-3.3586,-3.5104,-3.7518,-3.754,-3.8417,-4.0049,-4.0049,-4.0049,-4.0049,-4.0049,-4.0049,-4.0049,-4.0049,-3.9867,-3.9541,-3.8606,-3.739,-3.6244,-3.6244,-3.5469,-3.4577,-4.3846,-4.3852,-4.4618,-4.7142,-4.5475,-4.5139,-4.9273,-4.7767,-4.6364,-4.6933,-4.7205,-4.7359,-4.741,-4.6794,-4.57,-4.3835,-4.5148,-4.4753,-4.1497,-4.403,-4.5014,-4.3694,-4.4913,-4.5555,-4.5276,-4.5741,-4.5913,-4.5632,-4.3331,-4.0757,-3.7909,-3.63,-3.5538,-3.5645,-3.8047,-4.0061,-4.1679,-4.2555,-4.3683,-4.4956,-4.4832,-4.4735,-4.4681,-4.4422,-4.4258,-4.4203,-4.3942,-4.364,-4.3427,-4.3664,-4.3388,-4.2974,-4.2974,-4.2974,-4.2974,-4.2974,-4.2974,-4.2974,-4.2974,-4.2974,-4.2974,-4.2974,-4.2974,-4.2974,-4.2974,-4.2974,-4.2974,-4.2974,-4.2974,-4.2924,-4.2773,-4.153,-3.9961,-3.8278,-3.6574,-3.4969,-3.352,-3.3838,-3.4218,-3.4218,-3.2695,-3.1743,-3.1992,-2.9712,-2.8288,-2.8379,-2.7448,-2.7161,-2.7909,-2.7442,-2.7905,-2.9443,-3.043,-3.1243,-3.1852,-3.4161,-3.6442,-3.8633,-3.8697,-3.9584,-4.1125,-4.1125,-4.1125,-4.1125,-4.1125,-4.1125,-4.1125,-4.1125,-4.0496,-3.9399,-3.9278,-3.8013,-3.6299,-3.6299,-3.5449,-3.4289,-4.6631,-4.5437,-4.4895,-4.6502,-4.6169,-4.6455,-4.876,-4.9001,-4.9033,-4.9499,-4.8382,-4.7666,-4.7819,-4.7053,-4.6184,-4.5335,-4.5996,-4.5872,-4.4333,-4.5513,-4.5987,-4.527,-4.5814,-4.6139,-4.6139,-4.6073,-4.6007,-4.6007,-4.248,-4.0107,-3.8826,-3.6917,-3.6783,-3.8238,-4.0442,-4.1979,-4.304,-4.4458,-4.544,-4.5941,-4.5435,-4.5221,-4.5167,-4.4735,-4.4684,-4.4817,-4.472,-4.4703,-4.4686,-4.463,-4.4099,-4.3526,-4.3865,-4.3966,-4.3903,-4.3564,-4.3476,-4.3401,-4.3074,-4.2974,-4.2974,-4.2974,-4.2974,-4.2974,-4.2974,-4.2974,-4.2974,-4.2974,-4.2974,-4.2974,-4.2974,-4.2434,-4.1555,-4.0224,-3.9119,-3.8065,-3.6747,-3.6522,-3.6825,-3.7827,-3.639,-3.5539,-3.6192,-3.3684,-3.1658,-3.0811,-2.9095,-2.8099,-2.8119,-2.9557,-3.0678,-3.1285,-3.317,-3.4893,-3.6318,-3.7145,-3.8491,-4.0323,-4.034,-4.0701,-4.1288,-4.1288,-4.1288,-4.1288,-4.1288,-4.1288,-4.1288,-4.1288,-4.1101,-4.0698,-3.9236,-3.8276,-3.7485,-3.6096,-3.5242,-3.479,-4.9423,-4.7965,-4.6925,-4.7563,-4.8147,-4.8488,-4.8558,-5.014,-5.1147,-5.0759,-4.9508,-4.8596,-4.8496,-4.7298,-4.6252,-4.5657,-4.617,-4.6021,-4.4925,-4.5885,-4.629,-4.5761,-4.6197,-4.6469,-4.6469,-4.6245,-4.6126,-4.6126,-4.3053,-4.1065,-4.0121,-3.8448,-3.8787,-4.0905,-4.29,-4.3976,-4.4422,-4.5874,-4.6416,-4.6311,-4.6009,-4.5808,-4.5714,-4.5452,-4.5438,-4.558,-4.558,-4.5615,-4.5705,-4.5527,-4.5023,-4.4445,-4.4556,-4.4618,-4.4556,-4.4154,-4.4041,-4.3928,-4.3376,-4.3225,-4.3187,-4.3024,-4.2974,-4.2974,-4.2974,-4.2974,-4.2974,-4.2974,-4.2974,-4.2974,-4.2974,-4.2974,-4.2572,-4.1304,-4.0777,-4.0074,-3.8793,-3.8017,-3.8203,-3.9821,-3.7878,-3.7119,-3.8859,-3.6295,-3.4102,-3.3101,-3.1629,-3.0359,-2.9398,-3.0926,-3.2036,-3.2439,-3.4044,-3.5946,-3.8123,-3.8336,-3.9459,-4.158,-4.1743,-4.1819,-4.1819,-4.1819,-4.1819,-4.1819,-4.1819,-4.1819,-4.1819,-4.1861,-4.1643,-4.1016,-3.9365,-3.8503,-3.7873,-3.6241,-3.5596,-3.5596,-5.2215,-5.2441,-5.2621,-5.2621,-5.2592,-5.1946,-4.9989,-5.1405,-5.1946,-4.9989,-5.0487,-5.0671,-4.9664,-4.7731,-4.5684,-4.3619,-4.5321,-4.4925,-4.1093,-4.4401,-4.572,-4.3927,-4.557,-4.6469,-4.6469,-4.6469,-4.6469,-4.6469,-4.6414,-4.4766,-4.1652,-4.1625,-4.2403,-4.381,-4.5614,-4.6428,-4.6442,-4.6469,-4.6297,-4.6008,-4.6369,-4.6283,-4.6049,-4.6671,-4.6728,-4.646,-4.646,-4.6291,-4.6042,-4.6322,-4.6165,-4.5758,-4.4852,-4.4618,-4.4618,-4.4618,-4.4618,-4.4493,-4.394,-4.379,-4.3664,-4.3112,-4.2974,-4.2974,-4.2974,-4.2974,-4.2974,-4.2974,-4.2974,-4.2974,-4.2974,-4.2974,-4.2434,-4.0789,-4.0526,-3.9936,-3.8253,-3.7206,-3.7201,-3.8717,-3.5206,-3.4298,-3.8517,-3.599,-3.4454,-3.539,-3.5411,-3.4578,-3.2644,-3.0946,-3.0838,-3.2539,-3.1856,-3.2643,-3.5114,-3.6537,-3.8868,-4.2213,-4.2753,-4.2961,-4.2961,-4.2961,-4.2961,-4.2961,-4.2961,-4.2961,-4.3017,-4.327,-4.1943,-3.9756,-3.9954,-3.8803,-3.6911,-3.6911,-3.679,-3.6627,-4.8019,-5.0045,-5.1622,-5.0649,-5.1538,-5.2288,-5.1807,-5.2298,-5.2483,-5.1836,-5.1364,-5.0802,-4.995,-4.8463,-4.696,-4.5641,-4.4837,-4.4573,-4.4931,-4.4839,-4.5138,-4.6116,-4.5232,-4.4908,-4.5284,-4.4711,-4.4611,-4.4991,-4.4776,-4.4135,-4.315,-4.315,-4.4017,-4.5693,-4.6263,-4.6469,-4.6496,-4.6704,-4.6706,-4.6639,-4.6738,-4.688,-4.6948,-4.6898,-4.7215,-4.7741,-4.7741,-4.7779,-4.7791,-4.7684,-4.7373,-4.6995,-4.6298,-4.5952,-4.5698,-4.5321,-4.5208,-4.5095,-4.4518,-4.4367,-4.4229,-4.3677,-4.3539,-4.3438,-4.3062,-4.2974,-4.2974,-4.2974,-4.2974,-4.2974,-4.2974,-4.2974,-4.2559,-4.1279,-4.1706,-4.1743,-4.041,-4.0012,-3.9969,-4.0485,-3.8398,-3.785,-4.0322,-3.8266,-3.6859,-3.7175,-3.553,-3.4406,-3.4069,-3.495,-3.5658,-3.6146,-3.7072,-3.8125,-3.9177,-3.9389,-4.0551,-4.2778,-4.2898,-4.2974,-4.2974,-4.2974,-4.2974,-4.2974,-4.2974,-4.2974,-4.303,-4.3085,-4.2781,-4.2081,-4.0685,-3.9884,-3.9251,-3.7785,-3.7226,-3.7156,-4.8281,-5.0078,-5.1486,-5.0539,-5.1391,-5.1971,-5.1357,-5.1953,-5.2167,-5.1402,-5.1592,-5.1473,-5.063,-4.9595,-4.8401,-4.6907,-4.5605,-4.5486,-4.6932,-4.5889,-4.5822,-4.7218,-4.5942,-4.5329,-4.5675,-4.5113,-4.5044,-4.5432,-4.5213,-4.5129,-4.5129,-4.5129,-4.5735,-4.68,-4.68,-4.68,-4.6827,-4.6987,-4.7094,-4.727,-4.7336,-4.7575,-4.7894,-4.794,-4.8189,-4.8636,-4.8736,-4.8762,-4.8677,-4.8489,-4.8055,-4.7632,-4.7244,-4.684,-4.6431,-4.5959,-4.5799,-4.5673,-4.5108,-4.4945,-4.4756,-4.3991,-4.3802,-4.3652,-4.3099,-4.2974,-4.2974,-4.2974,-4.2974,-4.2974,-4.2974,-4.2974,-4.276,-4.2057,-4.2534,-4.2735,-4.2057,-4.1539,-4.1288,-4.1288,-3.9873,-3.9521,-4.1125,-3.9898,-3.8956,-3.8956,-3.6837,-3.5937,-3.6837,-3.666,-3.6961,-3.7843,-3.896,-3.9982,-4.0893,-4.0641,-4.1342,-4.2974,-4.2974,-4.2974,-4.2974,-4.2974,-4.2974,-4.2974,-4.2974,-4.2974,-4.303,-4.3141,-4.2725,-4.1899,-4.0628,-3.9697,-3.8885,-3.7544,-3.7082,-3.7203,-5.1501,-5.1759,-5.191,-5.1805,-5.1896,-5.1304,-4.9408,-5.0772,-5.1334,-4.9423,-5.1425,-5.2612,-5.1586,-5.1042,-4.9904,-4.782,-4.7329,-4.7165,-4.7338,-4.7176,-4.7176,-4.7349,-4.7189,-4.7123,-4.7163,-4.7138,-4.7152,-4.7285,-4.7285,-4.7285,-4.7285,-4.7285,-4.7285,-4.7285,-4.7285,-4.7285,-4.7285,-4.7325,-4.7518,-4.7874,-4.8158,-4.8455,-4.8803,-4.9368,-4.9398,-4.9183,-4.9512,-4.9227,-4.8735,-4.8735,-4.836,-4.7808,-4.7749,-4.7362,-4.6853,-4.6434,-4.6313,-4.62,-4.5686,-4.5547,-4.5271,-4.4141,-4.3802,-4.3614,-4.3087,-4.2974,-4.2974,-4.2974,-4.2974,-4.2974,-4.2974,-4.2974,-4.2974,-4.2974,-4.2974,-4.2949,-4.2873,-4.1982,-4.1263,-4.1175,-3.9936,-3.9647,-4.1137,-4.094,-4.0639,-4.0526,-3.9069,-3.8868,-4.0438,-3.6689,-3.5684,-3.8254,-3.8354,-3.9107,-4.0676,-4.0689,-4.1455,-4.2974,-4.2974,-4.2974,-4.2974,-4.2974,-4.2974,-4.2974,-4.2974,-4.2974,-4.303,-4.3295,-4.1955,-3.9838,-3.9978,-3.8636,-3.6473,-3.6423,-3.6606,-3.6861,-4.7182,-4.9329,-5.0982,-4.9642,-5.0668,-5.1575,-5.1304,-5.1683,-5.2002,-5.2032,-5.2594,-5.2848,-5.2497,-5.2377,-5.1917,-5.1021,-4.7311,-4.5777,-4.7532,-4.6231,-4.6173,-4.7932,-4.6317,-4.5595,-4.5973,-4.5365,-4.5766,-4.7285,-4.7285,-4.7285,-4.7285,-4.7285,-4.7285,-4.7285,-4.7285,-4.7285,-4.7311,-4.7806,-4.8006,-4.8172,-4.8659,-4.907,-4.9368,-4.9573,-4.9683,-4.9783,-4.9897,-4.9683,-4.9398,-4.9398,-4.9112,-4.8708,-4.8463,-4.8289,-4.801,-4.6972,-4.6494,-4.6288,-4.615,-4.6112,-4.5849,-4.4719,-4.379,-4.3137,-4.3011,-4.2974,-4.2974,-4.2974,-4.2974,-4.2974,-4.2974,-4.2974,-4.2974,-4.2974,-4.2974,-4.2685,-4.1844,-4.1451,-4.0974,-4.0187,-4.0488,-4.0862,-4.125,-4.1982,-4.1869,-4.0614,-4.0149,-4.0099,-4.0488,-3.9553,-3.9877,-4.1756,-4.1806,-4.1995,-4.2384,-4.2396,-4.2585,-4.2974,-4.2974,-4.2974,-4.2974,-4.2974,-4.2974,-4.2974,-4.2974,-4.2974,-4.2974,-4.3085,-4.215,-4.0697,-4.0059,-3.8814,-3.7402,-3.6646,-3.6423,-3.6545,-4.8207,-4.9748,-5.0885,-4.9944,-5.068,-5.1448,-5.1602,-5.1649,-5.189,-5.2554,-5.2901,-5.317,-5.3414,-5.3246,-5.3007,-5.2905,-4.9797,-4.8475,-4.9858,-4.8954,-4.8558,-4.915,-4.7974,-4.7147,-4.6787,-4.6327,-4.6626,-4.7687,-4.7687,-4.7687,-4.7687,-4.7687,-4.7687,-4.7687,-4.7687,-4.7687,-4.7713,-4.8201,-4.8518,-4.8659,-4.915,-4.9512,-4.9783,-4.9783,-4.984,-5.001,-5.001,-4.984,-4.9626,-4.9626,-4.9398,-4.9068,-4.8881,-4.8695,-4.8463,-4.7834,-4.7185,-4.6648,-4.6361,-4.6313,-4.6037,-4.4907,-4.379,-4.2974,-4.2974,-4.2974,-4.2974,-4.2974,-4.2974,-4.2974,-4.2974,-4.2974,-4.2974,-4.2974,-4.2559,-4.202,-4.1376,-4.0902,-4.0551,-4.0463,-4.0924,-4.1476,-4.2045,-4.2622,-4.261,-4.1706,-4.094,-4.084,-4.1605,-4.0927,-4.1279,-4.2924,-4.2974,-4.2974,-4.2974,-4.2974,-4.2974,-4.2974,-4.2974,-4.2974,-4.2974,-4.2974,-4.2974,-4.2974,-4.2974,-4.2974,-4.2974,-4.2974,-4.1923,-4.0164,-3.9639,-3.8339,-3.6613,-3.6156,-3.6044,-3.6178,-5.1214,-5.1214,-5.1214,-5.1214,-5.1214,-5.1214,-5.1214,-5.1214,-5.1498,-5.2247,-5.283,-5.3473,-5.4281,-5.3965,-5.3779,-5.4024,-5.3174,-5.2615,-5.2534,-5.2519,-5.1929,-5.0685,-5.0629,-5.0,-4.8566,-4.8289,-4.8185,-4.8185,-4.8185,-4.8185,-4.8185,-4.8185,-4.8185,-4.8185,-4.8185,-4.8243,-4.8302,-4.8606,-4.8895,-4.9183,-4.9512,-4.9783,-5.001,-5.001,-5.001,-5.001,-5.001,-4.984,-4.9683,-4.9683,-4.9455,-4.924,-4.924,-4.9054,-4.8797,-4.8682,-4.8088,-4.7324,-4.6648,-4.6235,-4.5824,-4.4857,-4.379,-4.2974,-4.2974,-4.2974,-4.2974,-4.2974,-4.2974,-4.2974,-4.2974,-4.2974,-4.2924,-4.276,-4.1944,-4.1225,-4.1062,-4.0425,-4.0287,-4.1175,-4.1426,-4.1957,-4.2886,-4.2974,-4.2974,-4.2974,-4.1681,-4.1505,-4.2898,-4.1643,-4.153,-4.2936,-4.2974,-4.2974,-4.2974,-4.2974,-4.2974,-4.2974,-4.2974,-4.2974,-4.2974,-4.2974,-4.2974,-4.2974,-4.2974,-4.2974,-4.2974,-4.2974,-4.1627,-3.9451,-3.9275,-3.7741,-3.5654,-3.5479,-3.5613,-3.586,-5.1261,-5.1214,-5.1214,-5.1214,-5.1214,-5.1214,-5.1214,-5.1214,-5.1648,-5.2875,-5.3114,-5.3653,-5.491,-5.4968,-5.5012,-5.53,-5.5149,-5.4311,-5.264,-5.2519,-5.2413,-5.2145,-5.2145,-5.1441,-4.9987,-4.8828,-4.8185,-4.8185,-4.8185,-4.8185,-4.8185,-4.8185,-4.8185,-4.8185,-4.8185,-4.836,-4.8606,-4.8895,-4.924,-4.9569,-4.984,-4.9953,-5.001,-5.001,-5.001,-5.001,-5.001,-4.9953,-4.9953,-4.9953,-4.9897,-4.984,-4.984,-4.984,-4.967,-4.9186,-4.8899,-4.854,-4.7383,-4.5999,-4.4844,-4.4669,-4.379,-4.2974,-4.2974,-4.2974,-4.2974,-4.2974,-4.2974,-4.2974,-4.2974,-4.2974,-4.2672,-4.1743,-4.1401,-4.0962,-4.0086,-4.0614,-4.11,-4.1263,-4.2158,-4.2785,-4.2961,-4.2974,-4.2974,-4.2974,-4.2735,-4.271,-4.2961,-4.2735,-4.271,-4.2974,-4.2974,-4.2974,-4.2974,-4.2974,-4.2974,-4.2974,-4.2974,-4.2974,-4.2974,-4.2974,-4.2974,-4.2974,-4.2974,-4.2974,-4.2974,-4.2974,-4.215,-4.0685,-3.9627,-3.8328,-3.6885,-3.5777,-3.5418,-3.5552,-5.1618,-5.1354,-5.1214,-5.1214,-5.1214,-5.1214,-5.1214,-5.1214,-5.1558,-5.2531,-5.2965,-5.3548,-5.4551,-5.4985,-5.5295,-5.5581,-5.5581,-5.5235,-5.4435,-5.4522,-5.4252,-5.3431,-5.3535,-5.2611,-5.0365,-4.9675,-4.8988,-4.8185,-4.8185,-4.8185,-4.8185,-4.8185,-4.8185,-4.8185,-4.8373,-4.8561,-4.8735,-4.9183,-4.9455,-4.9626,-4.9897,-5.001,-5.001,-5.001,-5.001,-5.001,-5.001,-5.001,-5.001,-5.001,-5.001,-5.001,-5.001,-5.001,-4.9953,-4.967,-4.8842,-4.7893,-4.701,-4.569,-4.4556,-4.4254,-4.3576,-4.2974,-4.2974,-4.2974,-4.2974,-4.2974,-4.2974,-4.2974,-4.2974,-4.2974,-4.2811,-4.2308,-4.1731,-4.1112,-4.0651,-4.0962,-4.1288,-4.1288,-4.2308,-4.2974,-4.2974,-4.2974,-4.2974,-4.2974,-4.2974,-4.2974,-4.2974,-4.2974,-4.2974,-4.2974,-4.2974,-4.2974,-4.2974,-4.2974,-4.2974,-4.2974,-4.2974,-4.2974,-4.2974,-4.2974,-4.2974,-4.2974,-4.2974,-4.2974,-4.2974,-4.2974,-4.2263,-4.0973,-3.9686,-3.8436,-3.7127,-3.589,-3.5418,-3.5418,-5.1941,-5.1618,-5.1308,-5.1214,-5.1214,-5.1214,-5.1214,-5.1214,-5.1454,-5.2112,-5.2636,-5.3279,-5.4117,-5.4655,-5.5115,-5.5481,-5.5496,-5.5581,-5.578,-5.6077,-5.5735,-5.469,-5.4559,-5.3521,-5.1318,-5.1002,-5.0099,-4.8669,-4.8669,-4.8508,-4.8185,-4.8185,-4.8185,-4.8185,-4.8548,-4.8735,-4.885,-4.9341,-4.9626,-4.974,-4.9897,-5.001,-5.001,-5.001,-5.001,-4.9996,-4.9861,-4.9806,-4.9779,-4.9644,-4.9603,-4.9603,-4.9603,-4.9603,-4.9603,-4.9603,-4.8444,-4.7069,-4.6399,-4.5412,-4.4502,-4.396,-4.3388,-4.2974,-4.2974,-4.2974,-4.2974,-4.2974,-4.2974,-4.2974,-4.2974,-4.2974,-4.2886,-4.2635,-4.1894,-4.1288,-4.1288,-4.1288,-4.1376,-4.1639,-4.2459,-4.2974,-4.2974,-4.2974,-4.2974,-4.2974,-4.2974,-4.2974,-4.2974,-4.2974,-4.2974,-4.2974,-4.2974,-4.2974,-4.2974,-4.2974,-4.2974,-4.2974,-4.2974,-4.2974,-4.2974,-4.2974,-4.2974,-4.2974,-4.2974,-4.2974,-4.2974,-4.2974,-4.2444,-4.1399,-4.0164,-3.9028,-3.8007,-3.642,-3.5828,-3.5828,-5.2063,-5.1895,-5.1711,-5.1261,-5.1214,-5.1214,-5.1214,-5.1214,-5.1454,-5.2112,-5.2232,-5.277,-5.4072,-5.4251,-5.4521,-5.5185,-5.5244,-5.5244,-5.5244,-5.5531,-5.5731,-5.5864,-5.4807,-5.4237,-5.4259,-5.2996,-5.1604,-5.0155,-5.0155,-4.9462,-4.8185,-4.8185,-4.8185,-4.8185,-4.8548,-4.885,-4.9068,-4.9455,-4.974,-4.9953,-5.001,-5.001,-5.001,-5.001,-5.001,-4.9942,-4.9399,-4.9196,-4.9059,-4.8503,-4.8314,-4.8314,-4.8314,-4.8314,-4.8314,-4.8314,-4.7861,-4.7057,-4.5889,-4.5124,-4.4576,-4.3916,-4.3388,-4.2974,-4.2974,-4.2974,-4.2974,-4.2974,-4.2974,-4.2974,-4.2974,-4.2974,-4.2635,-4.163,-4.1338,-4.1288,-4.1288,-4.1288,-4.1664,-4.2735,-4.2924,-4.2974,-4.2974,-4.2974,-4.2974,-4.2974,-4.2974,-4.2974,-4.2974,-4.2974,-4.2974,-4.2974,-4.2974,-4.2974,-4.2974,-4.2974,-4.2974,-4.2974,-4.2974,-4.2974,-4.2974,-4.2974,-4.2974,-4.2974,-4.2974,-4.2974,-4.2974,-4.2974,-4.2918,-4.2737,-4.1456,-4.0916,-4.05,-3.8067,-3.7177,-3.7177,-5.2891,-5.2622,-5.2261,-5.1711,-5.1618,-5.1541,-5.1261,-5.1214,-5.1304,-5.1558,-5.1947,-5.2396,-5.2905,-5.3324,-5.3847,-5.4521,-5.4581,-5.476,-5.5164,-5.5295,-5.5531,-5.5979,-5.5586,-5.5009,-5.434,-5.381,-5.2958,-5.1658,-5.1658,-5.14,-5.0865,-4.9944,-4.9632,-4.9773,-4.9213,-4.9125,-4.9455,-4.974,-4.9897,-4.9983,-4.9603,-4.9467,-4.9426,-4.9005,-4.8856,-4.8829,-4.8598,-4.8517,-4.849,-4.8273,-4.8192,-4.8192,-4.8192,-4.8192,-4.811,-4.7798,-4.7528,-4.7109,-4.5919,-4.537,-4.4995,-4.4061,-4.3708,-4.3432,-4.3098,-4.2974,-4.2974,-4.2974,-4.2974,-4.2974,-4.2974,-4.2974,-4.2836,-4.2421,-4.2359,-4.2359,-4.2359,-4.2359,-4.2509,-4.2924,-4.2974,-4.2974,-4.2974,-4.2974,-4.2974,-4.2974,-4.2974,-4.2974,-4.2974,-4.2974,-4.2974,-4.2974,-4.2974,-4.2974,-4.2974,-4.2974,-4.2974,-4.2974,-4.2974,-4.2974,-4.2974,-4.2974,-4.2974,-4.2974,-4.2974,-4.2974,-4.2974,-4.2974,-4.2974,-4.2793,-4.0743,-4.0396,-4.0801,-3.8246,-3.7779,-3.8495,-5.3421,-5.3157,-5.2757,-5.2246,-5.2018,-5.1803,-5.1479,-5.1308,-5.1214,-5.1214,-5.1618,-5.1977,-5.2172,-5.2606,-5.3144,-5.3832,-5.3892,-5.4162,-5.4835,-5.5074,-5.5381,-5.583,-5.588,-5.5536,-5.4807,-5.4842,-5.4303,-5.3011,-5.3116,-5.2944,-5.2466,-5.1441,-5.1126,-5.1278,-5.0237,-4.9831,-4.9866,-4.9781,-4.963,-4.9426,-4.895,-4.8801,-4.8747,-4.8341,-4.8192,-4.8164,-4.8029,-4.7975,-4.7934,-4.7758,-4.769,-4.769,-4.769,-4.769,-4.7608,-4.7255,-4.7132,-4.6931,-4.6088,-4.5835,-4.5559,-4.4416,-4.3997,-4.3776,-4.3389,-4.3154,-4.2974,-4.2974,-4.2974,-4.2974,-4.2974,-4.2974,-4.2974,-4.2974,-4.2974,-4.2974,-4.2974,-4.2974,-4.2974,-4.2974,-4.2974,-4.2974,-4.2974,-4.2974,-4.2974,-4.2974,-4.2974,-4.2974,-4.2974,-4.2974,-4.2974,-4.2974,-4.2974,-4.2974,-4.2974,-4.2974,-4.2974,-4.2974,-4.2974,-4.2974,-4.2974,-4.2974,-4.2974,-4.2974,-4.2974,-4.2974,-4.2974,-4.2974,-4.2974,-4.2806,-4.11,-4.0928,-4.1444,-3.9322,-3.9028,-3.9814,-5.3524,-5.3421,-5.3246,-5.2802,-5.2261,-5.1895,-5.1895,-5.1526,-5.1214,-5.1214,-5.1214,-5.1468,-5.2127,-5.2187,-5.2456,-5.3114,-5.3174,-5.3473,-5.4162,-5.4805,-5.5315,-5.5566,-5.5581,-5.5731,-5.5979,-5.6274,-5.5655,-5.4186,-5.4478,-5.3884,-5.2505,-5.2519,-5.2505,-5.2466,-5.1674,-5.093,-5.0331,-4.9474,-4.8734,-4.8192,-4.8178,-4.8178,-4.8178,-4.8178,-4.8178,-4.8097,-4.7554,-4.7404,-4.7309,-4.6725,-4.6469,-4.6469,-4.6469,-4.6469,-4.6469,-4.6469,-4.6469,-4.6469,-4.6469,-4.6469,-4.6206,-4.5005,-4.4313,-4.3899,-4.3899,-4.3444,-4.3042,-4.2974,-4.2974,-4.2974,-4.2974,-4.2974,-4.2974,-4.2974,-4.2974,-4.2974,-4.2974,-4.2974,-4.2974,-4.2974,-4.2974,-4.2974,-4.2974,-4.2974,-4.2974,-4.2974,-4.2974,-4.2974,-4.2974,-4.2974,-4.2974,-4.2974,-4.2974,-4.2974,-4.2974,-4.2974,-4.2974,-4.2974,-4.2974,-4.2974,-4.2974,-4.2974,-4.2974,-4.2974,-4.2974,-4.2974,-4.2974,-4.2974,-4.2974,-4.2974,-4.2974,-4.2974,-4.2862,-4.157,-4.11,-4.11,-5.3915,-5.3872,-5.3742,-5.329,-5.3069,-5.2831,-5.2517,-5.2033,-5.1711,-5.1711,-5.1401,-5.1289,-5.1498,-5.1513,-5.1768,-5.2441,-5.2501,-5.277,-5.3443,-5.3668,-5.3822,-5.392,-5.4835,-5.5431,-5.5731,-5.578,-5.5474,-5.4778,-5.4994,-5.4639,-5.3796,-5.2959,-5.2679,-5.2765,-5.079,-4.9939,-4.9917,-4.8913,-4.8341,-4.8151,-4.7785,-4.7622,-4.7568,-4.7161,-4.7011,-4.6984,-4.6861,-4.6793,-4.6766,-4.6589,-4.6469,-4.6469,-4.6469,-4.6469,-4.6469,-4.6469,-4.6469,-4.6469,-4.6469,-4.6469,-4.6311,-4.5542,-4.5221,-4.491,-4.4052,-4.3789,-4.35,-4.3098,-4.2974,-4.2974,-4.2974,-4.2974,-4.2974,-4.2974,-4.2974,-4.2974,-4.2974,-4.2974,-4.2974,-4.2974,-4.2974,-4.2974,-4.2974,-4.2974,-4.2974,-4.2974,-4.2974,-4.2974,-4.2974,-4.2974,-4.2974,-4.2974,-4.2974,-4.2974,-4.2974,-4.2974,-4.2974,-4.2974,-4.2974,-4.2974,-4.2974,-4.2974,-4.2974,-4.2974,-4.2974,-4.2974,-4.2974,-4.2974,-4.2974,-4.2918,-4.2037,-4.2206,-4.2862,-4.157,-4.1684,-4.2444,-5.4103,-5.4103,-5.4017,-5.3742,-5.3509,-5.329,-5.3024,-5.2517,-5.2215,-5.2215,-5.1803,-5.1494,-5.1494,-5.1308,-5.1379,-5.1783,-5.2052,-5.2366,-5.277,-5.3039,-5.3174,-5.3174,-5.3967,-5.4485,-5.4634,-5.4748,-5.4699,-5.4452,-5.4663,-5.4594,-5.4228,-5.3579,-5.3405,-5.3453,-5.1605,-5.0765,-5.0651,-4.9092,-4.836,-4.8059,-4.7346,-4.7051,-4.7024,-4.6671,-4.6469,-4.6469,-4.6469,-4.6469,-4.6469,-4.6469,-4.6469,-4.6469,-4.6469,-4.6469,-4.6469,-4.6469,-4.6469,-4.6469,-4.6469,-4.6469,-4.6416,-4.6034,-4.5768,-4.5341,-4.4422,-4.4052,-4.3721,-4.3141,-4.2974,-4.2974,-4.2974,-4.2974,-4.2974,-4.2974,-4.2974,-4.2974,-4.2974,-4.2974,-4.2974,-4.2974,-4.2974,-4.2974,-4.2974,-4.2974,-4.2974,-4.2974,-4.2974,-4.2974,-4.2974,-4.2974,-4.2974,-4.2974,-4.2974,-4.2974,-4.2974,-4.2974,-4.2974,-4.2974,-4.2974,-4.2974,-4.2974,-4.2974,-4.2974,-4.2974,-4.2974,-4.2974,-4.2974,-4.2974,-4.2974,-4.2918,-4.215,-4.2331,-4.2918,-4.2162,-4.2331,-4.2974,-5.4103,-5.4103,-5.4103,-5.4103,-5.3742,-5.3465,-5.3465,-5.3069,-5.2757,-5.2757,-5.2306,-5.1926,-5.1895,-5.1526,-5.1261,-5.1214,-5.1768,-5.2112,-5.2112,-5.268,-5.301,-5.301,-5.301,-5.301,-5.301,-5.3387,-5.3528,-5.3468,-5.3756,-5.3821,-5.3808,-5.4045,-5.4186,-5.4139,-5.3224,-5.2542,-5.1957,-4.9853,-4.8578,-4.792,-4.7002,-4.6574,-4.6469,-4.6469,-4.6469,-4.6469,-4.6469,-4.6469,-4.6469,-4.6469,-4.6469,-4.6469,-4.6469,-4.6469,-4.6469,-4.6469,-4.6469,-4.6469,-4.6469,-4.6469,-4.6469,-4.6469,-4.61,-4.5542,-4.4897,-4.4367,-4.3776,-4.3209,-4.303,-4.2974,-4.2974,-4.2974,-4.2974,-4.2974,-4.2974,-4.2974,-4.2974,-4.2974,-4.2974,-4.2974,-4.2974,-4.2974,-4.2974,-4.2974,-4.2974,-4.2974,-4.2974,-4.2974,-4.2974,-4.2974,-4.2974,-4.2974,-4.2974,-4.2974,-4.2974,-4.2974,-4.2974,-4.2974,-4.2974,-4.2974,-4.2974,-4.2974,-4.2974,-4.2974,-4.2974,-4.2974,-4.2974,-4.2974,-4.2974,-4.2974,-4.2974,-4.2974,-4.2974,-4.2974,-4.2974,-4.2974,-5.4103,-5.4103,-5.4103,-5.4103,-5.4017,-5.3958,-5.3958,-5.3568,-5.3246,-5.3246,-5.2846,-5.2352,-5.1941,-5.1803,-5.1572,-5.1214,-5.1349,-5.1439,-5.1439,-5.1558,-5.1648,-5.1648,-5.1648,-5.1648,-5.1648,-5.2699,-5.3032,-5.2522,-5.2775,-5.2646,-5.2118,-5.2412,-5.2519,-5.2473,-5.1665,-5.1229,-5.1015,-4.9946,-4.8874,-4.7971,-4.7782,-4.7195,-4.6469,-4.6469,-4.6469,-4.6469,-4.6469,-4.6469,-4.6469,-4.6469,-4.6469,-4.6469,-4.6469,-4.6469,-4.6469,-4.6469,-4.6469,-4.6469,-4.6469,-4.6469,-4.6469,-4.6469,-4.6416,-4.6139,-4.5542,-4.4951,-4.4354,-4.3832,-4.3321,-4.2974,-4.2974,-4.2974,-4.2974,-4.2974,-4.2974,-4.2974,-4.2974,-4.2974,-4.2974,-4.2974,-4.2974,-4.2974,-4.2974,-4.2974,-4.2974,-4.2974,-4.2974,-4.2974,-4.2974,-4.2974,-4.2974,-4.2974,-4.2974,-4.2974,-4.2974,-4.2974,-4.2974,-4.2974,-4.2974,-4.2974,-4.2974,-4.2974,-4.2974,-4.2974,-4.2974,-4.2974,-4.2974,-4.2974,-4.2974,-4.2974,-4.2974,-4.2974,-4.2974,-4.2974,-4.2974,-4.2911,-5.4103,-5.4103,-5.4103,-5.4103,-5.4103,-5.4103,-5.4103,-5.3872,-5.3742,-5.3742,-5.3334,-5.2935,-5.2667,-5.2442,-5.2079,-5.1587,-5.1354,-5.1214,-5.1214,-5.1214,-5.1214,-5.1214,-5.1214,-5.1214,-5.1214,-5.1887,-5.2067,-5.1738,-5.1832,-5.1762,-5.1401,-5.1695,-5.1787,-5.1787,-5.1494,-5.1354,-5.1293,-5.0383,-4.9645,-4.9106,-4.871,-4.7985,-4.7067,-4.7157,-4.6911,-4.6469,-4.6469,-4.6469,-4.6469,-4.6469,-4.6469,-4.6469,-4.6469,-4.6469,-4.6469,-4.6469,-4.6469,-4.6469,-4.6469,-4.6469,-4.6469,-4.6469,-4.6469,-4.6364,-4.5768,-4.5381,-4.4897,-4.4064,-4.3666,-4.3321,-4.303,-4.2974,-4.2974,-4.2974,-4.2974,-4.2974,-4.2974,-4.2974,-4.2974,-4.2974,-4.2974,-4.2974,-4.2974,-4.2974,-4.2974,-4.2974,-4.2974,-4.2974,-4.2974,-4.2974,-4.2974,-4.2974,-4.2974,-4.2974,-4.2974,-4.2974,-4.2974,-4.2974,-4.2974,-4.2974,-4.2974,-4.2974,-4.2974,-4.2974,-4.2974,-4.2974,-4.2974,-4.2974,-4.2974,-4.2974,-4.2974,-4.2974,-4.2974,-4.2974,-4.2974,-4.2898,-5.4103,-5.4103,-5.4103,-5.4103,-5.4103,-5.4103,-5.4103,-5.4103,-5.4103,-5.4103,-5.3742,-5.3481,-5.3421,-5.298,-5.2472,-5.1941,-5.1526,-5.1308,-5.1214,-5.1214,-5.1214,-5.1214,-5.1214,-5.1214,-5.1214,-5.1214,-5.1214,-5.1214,-5.1214,-5.1214,-5.1214,-5.1448,-5.1541,-5.1541,-5.1787,-5.1941,-5.1895,-5.1043,-5.0588,-5.035,-4.9708,-4.8873,-4.7999,-4.8173,-4.7643,-4.6769,-4.6769,-4.6665,-4.6469,-4.6469,-4.6469,-4.6469,-4.6469,-4.6469,-4.6469,-4.6469,-4.6469,-4.6469,-4.6469,-4.6469,-4.6469,-4.6469,-4.6469,-4.6364,-4.5875,-4.5649,-4.5328,-4.438,-4.4064,-4.3734,-4.3265,-4.3098,-4.2974,-4.2974,-4.2974,-4.2974,-4.2974,-4.2974,-4.2974,-4.2974,-4.2974,-4.2974,-4.2974,-4.2974,-4.2974,-4.2974,-4.2974,-4.2974,-4.2974,-4.2974,-4.2974,-4.2974,-4.2974,-4.2974,-4.2974,-4.2974,-4.2974,-4.2974,-4.2974,-4.2974,-4.2974,-4.2974,-4.2974,-4.2974,-4.2974,-4.2974,-4.2974,-4.2974,-4.2974,-4.2974,-4.2974,-4.2974,-4.2974,-4.2873,-4.2836,-4.2748,-5.4103,-5.4103,-5.4103,-5.4103,-5.4103,-5.4103,-5.4103,-5.4103,-5.4103,-5.4103,-5.4044,-5.3872,-5.3421,-5.298,-5.2472,-5.1941,-5.1834,-5.1618,-5.1214,-5.1214,-5.1214,-5.1214,-5.1214,-5.1214,-5.1214,-5.1214,-5.1214,-5.1214,-5.1214,-5.1214,-5.1214,-5.1214,-5.1261,-5.1261,-5.1541,-5.1634,-5.168,-5.1741,-5.1246,-5.0397,-5.0555,-4.9965,-4.9007,-4.9288,-4.8696,-4.7782,-4.7782,-4.7246,-4.6469,-4.6469,-4.6469,-4.6469,-4.6469,-4.6469,-4.6469,-4.6469,-4.6469,-4.6469,-4.6469,-4.6469,-4.6469,-4.6469,-4.6469,-4.6469,-4.6416,-4.5981,-4.5542,-4.5395,-4.4585,-4.3899,-4.3776,-4.3321,-4.2974,-4.2974,-4.2974,-4.2974,-4.2974,-4.2974,-4.2974,-4.2974,-4.2974,-4.2974,-4.2974,-4.2974,-4.2974,-4.2974,-4.2974,-4.2974,-4.2974,-4.2974,-4.2974,-4.2974,-4.2974,-4.2974,-4.2974,-4.2974,-4.2974,-4.2974,-4.2974,-4.2974,-4.2974,-4.2974,-4.2974,-4.2974,-4.2974,-4.2974,-4.2974,-4.2974,-4.2974,-4.2974,-4.2974,-4.2974,-4.2924,-4.2502,-4.2326,-4.2175,-5.4103,-5.4103,-5.4103,-5.4103,-5.4103,-5.4103,-5.4103,-5.4103,-5.4103,-5.4103,-5.4103,-5.4001,-5.3829,-5.3377,-5.298,-5.2742,-5.2487,-5.2109,-5.1618,-5.1572,-5.1479,-5.1214,-5.1214,-5.1214,-5.1214,-5.1214,-5.1214,-5.1214,-5.1214,-5.1214,-5.1214,-5.1214,-5.1214,-5.1214,-5.1308,-5.1354,-5.1401,-5.1509,-5.1261,-5.0902,-5.1308,-5.0855,-4.9887,-5.0305,-4.981,-4.8795,-4.8223,-4.7349,-4.6469,-4.6469,-4.6469,-4.6469,-4.6469,-4.6469,-4.6469,-4.6469,-4.6469,-4.6469,-4.6469,-4.6469,-4.6469,-4.6469,-4.6469,-4.6469,-4.6469,-4.6311,-4.5981,-4.5662,-4.518,-4.4639,-4.401,-4.3666,-4.3376,-4.303,-4.3265,-4.3376,-4.303,-4.3265,-4.3389,-4.303,-4.2974,-4.2974,-4.2974,-4.2974,-4.2974,-4.2974,-4.2974,-4.2974,-4.2974,-4.2974,-4.2974,-4.2974,-4.2974,-4.2974,-4.2974,-4.2974,-4.2974,-4.2974,-4.2974,-4.2974,-4.2974,-4.2974,-4.2974,-4.2974,-4.2974,-4.2974,-4.2974,-4.2974,-4.2974,-4.2974,-4.2974,-4.2841,-4.2502,-4.1907,-4.1706,-4.158]},{"header":{"parameterUnit":"m.s-1","parameterCategory":1,"la1":30.6,"la2":28.766,"lo1":-90.7593,"lo2":-88.6598,"dy":0.0162,"dx":0.0183,"nx":116,"ny":114,"refTime":"2023-06-13T18:00:00:Z","depth":0,"parameterNumber":3,"parameterNumberName":"V-component_of_WINDS"},"data":[0.0,0.0,0.0,0.0,0.0,0.0,0.0,0.0,0.0,0.0,0.0,0.0,0.0,0.0,0.0,0.0,0.0,0.0,0.0,0.0,0.0,0.0,0.0,0.0,0.0,0.0,0.0,0.0,0.0,0.0,0.0,0.0,0.0,0.0,0.0,0.0,0.0,0.0,0.0,0.0,0.0,0.0,0.0,0.0,0.0,0.0,0.0,0.0,0.0,0.0,0.0,0.0,0.0,0.0,0.0,0.0,0.0,0.0,0.0,0.0,0.0,0.0,0.0,0.0,0.0,0.0,0.0,0.0,0.0,0.0,0.0,0.0,0.0,0.0,0.0,0.0,0.0,0.0,0.0,0.0,0.0,0.0,0.0,0.0,0.0,0.0,0.0,0.0,0.0,0.0,0.0,0.0,0.0,0.0,0.0,0.0,0.0,0.0,0.0,0.0,0.0,0.0,0.0,0.0,0.0,0.0,0.0,0.0,0.0,0.0,0.0,0.0,0.0,0.0,0.0,0.0,0.0,0.0,0.0,0.0,0.0,0.0,0.0,0.0,0.0,0.0,0.0,0.0,0.0,0.0,0.0,0.0,0.0,0.0,0.0,0.0,0.0,0.0,0.0,0.0,0.0,0.0,0.0,0.0,0.0,0.0,0.0,0.0,0.0,0.0,0.0,0.0,0.0,0.0,0.0,0.0,0.0,0.0,0.0,0.0,0.0,0.0,0.0,0.0,0.0,0.0,0.0,0.0,0.0,0.0,0.0,0.0,0.0,0.0,0.0,0.0,0.0,0.0,0.0,0.0,0.0,0.0,0.0,0.0,0.0,0.0,0.0,0.0,0.0,0.0,0.0,0.0,0.0,0.0,0.0,0.0,0.0,0.0,0.0,0.0,0.0,0.0,0.0,0.0,0.0,0.0,0.0,0.0,0.0,0.0,0.0,0.0,0.0,0.0,0.0,0.0,0.0,0.0,0.0,0.0,0.0,0.0,0.0,0.0,0.0,0.0,0.0,0.0,0.0,0.0,0.0,0.0,0.0,0.0,0.0,0.0,0.0,0.0,0.0,0.0,0.0,0.0,0.0,0.0,0.0,0.0,0.0,0.0,0.0,0.0,0.0,0.0,0.0,0.0,0.0,0.0,0.0,0.0,0.0,0.0,0.0,0.0,0.0,0.0,0.0,0.0,0.0,0.0,0.0,0.0,0.0,0.0,0.0,0.0,0.0,0.0,0.0,0.0,0.0,0.0,0.0,0.0,0.0,0.0,0.0,0.0,0.0,0.0,0.0,0.0,0.0,0.0,0.0,0.0,0.0,0.0,0.0,0.0,0.0,0.0,0.0,0.0,0.0,0.0,0.0,0.0,0.0,0.0,0.0,0.0,0.0,0.0,0.0,0.0,0.0,0.0,0.0,0.0,0.0,0.0,0.0,0.0,0.0,0.0,0.0,0.0,0.0,0.0,0.0,0.0,0.0,0.0,0.0,0.0,0.0,0.0,0.0,0.0,0.0,0.0,0.0,0.0,0.0,0.0,0.0,0.0,0.0,0.0,0.0,0.0,0.0,0.0,0.0,0.0,0.0,0.0,0.0,0.0,0.0,0.0,0.0,0.0,0.0,0.0,0.0,0.0,0.0,0.0,0.0,0.0,0.0,0.0,0.0,0.0,0.0,0.0,0.0,0.0,0.0,0.0,0.0,0.0,0.0,0.0,0.0,0.0,0.0,0.0,0.0,0.0,0.0,0.0,0.0,0.0,0.0,0.0,0.0,0.0,0.0,0.0,0.0,0.0,0.0,0.0,0.0,0.0,0.0,0.0,0.0,0.0,0.0,0.0,0.0,0.0,0.0,0.0,0.0,0.0,0.0,0.0,0.0,0.0,0.0,0.0,0.0,0.0,0.0,0.0,0.0,0.0,0.0,0.0,0.0,0.0,0.0,0.0,0.0,0.0,0.0,0.0,0.0,0.0,0.0,0.0,0.0,0.0,0.0,0.0,0.0,0.0,0.0,0.0,0.0,0.0,0.0,0.0,0.0,0.0,0.0,0.0,0.0,0.0,0.0,0.0,0.0,0.0,0.0,0.0,0.0,0.0,0.0,0.0,0.0,0.0,0.0,0.0,0.0,0.0,0.0,0.0,0.0,0.0,0.0,0.0,0.0,0.0,0.0,0.0,0.0,0.0,0.0,0.0,0.0,0.0,0.0,0.0,0.0,0.0,0.0,0.0,0.0,0.0,0.0,0.0,0.0,0.0,0.0,0.0,0.0,0.0,0.0,0.0,0.0,0.0,0.0,0.0,0.0,0.0,0.0,0.0,0.0,0.0,0.0,0.0,0.0,0.0,0.0,0.0,0.0,0.0,0.0,0.0,0.0,0.0,0.0,0.0,0.0,0.0,0.0,0.0,0.0,0.0,0.0,0.0,0.0,0.0,0.0,0.0,0.0,0.0,0.0,0.0,0.0,0.0,0.0,0.0,0.0,0.0,0.0,0.0,0.0,0.0,0.0,0.0,0.0,0.0,0.0,0.0,0.0,0.0,0.0,0.0,0.0,0.0,0.0,0.0,0.0,0.0,0.0,0.0,0.0,0.0,0.0,0.0,0.0,0.0,0.0,0.0,0.0,0.0,0.0,0.0,0.0,0.0,0.0,0.0,0.0,0.0,0.0,0.0,0.0,0.0,0.0,0.0,0.0,0.0,0.0,0.0,0.0,0.0,0.0,0.0,0.0,0.0,0.0,0.0,0.0,0.0,0.0,0.0,0.0,0.0,0.0,0.0,0.0,0.0,0.0,0.0,0.0,0.0,0.0,0.0,0.0,0.0,0.0,0.0,0.0,0.0,0.0,0.0,0.0,0.0,0.0,0.0,0.0,0.0,0.0,0.0,0.0,0.0,0.0,0.0,0.0,0.0,0.0,0.0,0.0,0.0,0.0,0.0,0.0,0.0,0.0,0.0,0.0,0.0,0.0,0.0,0.0,0.0,0.0,0.0,0.0,0.0,0.0,0.0,0.0,0.0,0.0,0.0,0.0,0.0,0.0,0.0,0.0,0.0,0.0,0.0,0.0,0.0,0.0,0.0,0.0,0.0,0.0,0.0,0.0,0.0,0.0,0.0,0.0,0.0,0.0,0.0,0.0,0.0,0.0,0.0,0.0,0.0,0.0,0.0,0.0,0.0,0.0,0.0,0.0,0.0,0.0,0.0,0.0,0.0,0.0,0.0,0.0,0.0,0.0,0.0,0.0,0.0,0.0,0.0,0.0,0.0,0.0,0.0,0.0,0.0,0.0,0.0,0.0,0.0,0.0,0.0,0.0,0.0,0.0,0.0,0.0,0.0,0.0,0.0,0.0,0.0,0.0,0.0,0.0,0.0,0.0,0.0,0.0,0.0,0.0,0.0,0.0,0.0,0.0,0.0,0.0,0.0,0.0,0.0,0.0,0.0,0.0,0.0,0.0,0.0,0.0,0.0,0.0,0.0,0.0,0.0,0.0,0.0,0.0,0.0,0.0,0.0,0.0,0.0,0.0,0.0,0.0,0.0,0.0,0.0,0.0,0.0,0.0,0.0,0.0,0.0,0.0,0.0,0.0,0.0,0.0,0.0,0.0,0.0,0.0,0.0,0.0,0.0,0.0,0.0,0.0,0.0,0.0,0.0,0.0,0.0,0.0,0.0,0.0,0.0,0.0,0.0,0.0,0.0,0.0,0.0,0.0,0.0,0.0,0.0,0.0,0.0,0.0,0.0,0.0,0.0,0.0,0.0,0.0,0.0,0.0,0.0,0.0,0.0,0.0,0.0,0.0,0.0,0.0,0.0,0.0,0.0,0.0,0.0,0.0,0.0,0.0,0.0,0.0,0.0,0.0,0.0,0.0,0.0,0.0,0.0,0.0,0.0,0.0,0.0,0.0,0.0,0.0,0.0,0.0,0.0,0.0,0.0,0.0,0.0,0.0,0.0,0.0,0.0,0.0,0.0,0.0,0.0,0.0,0.0,0.0,0.0,0.0,0.0,0.0,0.0,0.0,0.0,0.0,0.0,0.0,0.0,0.0,0.0,0.0,0.0,0.0,0.0,0.0,0.0,0.0,0.0,0.0,0.0,0.0,0.0,0.0,0.0,0.0,0.0,0.0,0.0,0.0,0.0,0.0,0.0,0.0,0.0,0.0,0.0,0.0,0.0,0.0,0.0,0.0,0.0,0.0,0.0,0.0,0.0,0.0,0.0,0.0,0.0,0.0,0.0,0.0,0.0,0.0,0.0,0.0,0.0,0.0,0.0,0.0,0.0,0.0,0.0,0.0,0.0,0.0,0.0,0.0,0.0,0.0,0.0,0.0,0.0,0.0,0.0,0.0,0.0,0.0,0.0,0.0,0.0,0.0,0.0,0.0,0.0,0.0,0.0,0.0,0.0,0.0,0.0,0.0,0.0,0.0,0.0,0.0,0.0,0.0,0.0,0.0,0.0,0.0,0.0,0.0,0.0,0.0,0.0,0.0,0.0,0.0,0.0,0.0,0.0,0.0,0.0,0.0,0.0,0.0,0.0,0.0,0.0,0.0,0.0,0.0,0.0,0.0,0.0,0.0,0.0,0.0,0.0,0.0,0.0,0.0,0.0,0.0,0.0,0.0,0.0,0.0,0.0,0.0,0.0,0.0,0.0,0.0,0.0,0.0,0.0,0.0,0.0,0.0,0.0,0.0,0.0,0.0,0.0,0.0,0.0,0.0,0.0,0.0,0.0,0.0,0.0,0.0,0.0,0.0,0.0,0.0,0.0,0.0,0.0,0.0,0.0,0.0,0.0,0.0,0.0,0.0,0.0,0.0,0.0,0.0,0.0,0.0,0.0,0.0,0.0,0.0,0.0,0.0,0.0,0.0,0.0,0.0,0.0,0.0,0.0,0.0,0.0,0.0,0.0,0.0,0.0,0.0,0.0,0.0,0.0,0.0,0.0,0.0,0.0,0.0,0.0,0.0,0.0,0.0,0.0,0.0,0.0,0.0,0.0,0.0,0.0,0.0,0.0,0.0,0.0,0.0,0.0,0.0,0.0,0.0,0.0,0.0,0.0,0.0,0.0,0.0,0.0,0.0,0.0,0.0,0.0,0.0,0.0,0.0,0.0,0.0,0.0,0.0,0.0,0.0,0.0,0.0,0.0,0.0,0.0,0.0,0.0,0.0,0.0,0.0,0.0,0.0,0.0,0.0,0.0,0.0,0.0,0.0,0.0,0.0,0.0,0.0,0.0,0.0,0.0,0.0,0.0,0.0,0.0,0.0,0.0,0.0,0.0,0.0,0.0,0.0,0.0,0.0,0.0,0.0,0.0,0.0,0.0,0.0,0.0,0.0,0.0,0.0,0.0,0.0,0.0,0.0,0.0,0.0,0.0,0.0,0.0,0.0,0.0,0.0,0.0,0.0,0.0,0.0,0.0,0.0,0.0,0.0,0.0,0.0,0.0,0.0,0.0,0.0,0.0,0.0,0.0,0.0,0.0,0.0,0.0,0.0,0.0,0.0,0.0,0.0,0.0,0.0,0.0,0.0,0.0,0.0,0.0,0.0,0.0,0.0,0.0,0.0,0.0,0.0,0.0,0.0,0.0,0.0,0.0,0.0,0.0,0.0,0.0,0.0,0.0,0.0,0.0,0.0,0.0,0.0,0.0,0.0,0.0,0.0,0.0,0.0,0.0,0.0,0.0,0.0,0.0,0.0,0.0,0.0,0.0,0.0,0.0,0.0,0.0,0.0,0.0,0.0,0.0,0.0,0.0,0.0,0.0,0.0,0.0,0.0,0.0,0.0,0.0,0.0,0.0,0.0,0.0,0.0,0.0,0.0,0.0,0.0,0.0,0.0,0.0,0.0,0.0,0.0,0.0,0.0,0.0,0.0,0.0,0.0,0.0,0.0,0.0,0.0,0.0,0.0,0.0,0.0,0.0,0.0,0.0,0.0,0.0,0.0,0.0,0.0,0.0,0.0,0.0,0.0,0.0,0.0,0.0,0.0,0.0,0.0,0.0,0.0,0.0,0.0,0.0,0.0,0.0,0.0,0.0,0.0,0.0,0.0,0.0,0.0,0.0,0.0,0.0,0.0,0.0,0.0,0.0,0.0,0.0,0.0,0.0,0.0,0.0,-4.0712,-3.7273,0.0,0.0,0.0,0.0,0.0,0.0,0.0,0.0,0.0,0.0,0.0,0.0,0.0,0.0,0.0,0.0,0.0,0.0,0.0,0.0,0.0,0.0,0.0,0.0,0.0,0.0,0.0,0.0,0.0,0.0,0.0,0.0,0.0,0.0,0.0,0.0,0.0,0.0,0.0,0.0,0.0,0.0,0.0,0.0,0.0,0.0,0.0,0.0,0.0,0.0,0.0,0.0,0.0,0.0,0.0,0.0,0.0,0.0,0.0,0.0,0.0,0.0,0.0,0.0,0.0,0.0,0.0,0.0,0.0,0.0,0.0,0.0,0.0,0.0,0.0,0.0,0.0,0.0,0.0,0.0,0.0,0.0,0.0,0.0,0.0,0.0,0.0,0.0,0.0,0.0,0.0,0.0,0.0,0.0,0.0,0.0,0.0,0.0,0.0,0.0,0.0,0.0,0.0,0.0,0.0,0.0,0.0,0.0,0.0,0.0,0.0,0.0,0.0,0.0,-4.2317,-4.0926,0.0,0.0,0.0,0.0,0.0,0.0,0.0,0.0,0.0,0.0,0.0,0.0,0.0,0.0,0.0,0.0,0.0,0.0,0.0,0.0,0.0,0.0,0.0,0.0,0.0,0.0,0.0,0.0,0.0,0.0,0.0,0.0,0.0,0.0,0.0,0.0,0.0,0.0,0.0,0.0,0.0,0.0,0.0,0.0,0.0,0.0,0.0,0.0,0.0,0.0,0.0,0.0,0.0,0.0,0.0,0.0,0.0,0.0,0.0,0.0,0.0,0.0,0.0,0.0,0.0,0.0,0.0,0.0,0.0,0.0,0.0,0.0,0.0,0.0,0.0,0.0,0.0,0.0,0.0,0.0,0.0,0.0,0.0,0.0,0.0,0.0,0.0,0.0,0.0,0.0,0.0,0.0,0.0,0.0,0.0,0.0,0.0,0.0,0.0,0.0,0.0,0.0,0.0,0.0,0.0,0.0,0.0,0.0,-4.2493,-4.2805,-4.2944,-4.2944,-4.2947,-4.3057,-4.507,-4.5883,-4.5658,-4.3894,0.0,0.0,0.0,0.0,0.0,0.0,0.0,0.0,0.0,0.0,0.0,0.0,0.0,0.0,0.0,0.0,0.0,0.0,0.0,0.0,0.0,0.0,0.0,0.0,0.0,0.0,0.0,0.0,0.0,0.0,0.0,0.0,0.0,0.0,0.0,0.0,0.0,0.0,-3.9513,-3.9513,-3.9664,-3.994,-3.9684,0.0,0.0,0.0,0.0,0.0,0.0,0.0,0.0,0.0,0.0,0.0,0.0,0.0,0.0,0.0,0.0,0.0,0.0,0.0,0.0,0.0,0.0,0.0,0.0,0.0,0.0,0.0,0.0,0.0,0.0,0.0,0.0,0.0,0.0,0.0,0.0,0.0,0.0,0.0,0.0,0.0,0.0,0.0,-3.9476,-4.2268,0.0,0.0,0.0,0.0,0.0,0.0,0.0,0.0,0.0,0.0,0.0,0.0,0.0,-4.0683,-4.0579,-4.3536,-4.5009,-4.5044,-4.7627,-4.9177,-4.9798,-4.9798,-5.0143,-5.0626,-4.8906,0.0,-4.6502,-4.6911,0.0,0.0,0.0,0.0,0.0,0.0,0.0,0.0,0.0,0.0,0.0,0.0,0.0,0.0,0.0,0.0,0.0,0.0,0.0,0.0,0.0,0.0,0.0,0.0,0.0,0.0,0.0,0.0,0.0,0.0,0.0,0.0,0.0,0.0,0.0,0.0,-3.9823,-4.1006,-4.1832,-4.1832,-4.2446,-4.3573,-4.3543,-4.232,-4.0298,-4.0534,0.0,0.0,0.0,0.0,0.0,0.0,0.0,0.0,0.0,0.0,0.0,0.0,0.0,0.0,0.0,0.0,0.0,0.0,0.0,0.0,0.0,0.0,0.0,0.0,0.0,0.0,0.0,0.0,0.0,0.0,0.0,0.0,0.0,0.0,0.0,0.0,0.0,0.0,0.0,-3.9489,-4.155,-4.3034,-4.3222,-4.2306,0.0,0.0,0.0,0.0,0.0,0.0,0.0,0.0,0.0,-4.1175,-4.2822,-4.3657,-4.3657,-4.66,-4.8273,-4.8705,-4.9993,-5.1011,-5.1705,-5.1705,-5.1877,-5.2166,-5.1546,-5.1157,-5.0788,-4.9785,-4.9692,-4.9905,0.0,0.0,0.0,0.0,-4.3365,-4.5039,0.0,0.0,0.0,0.0,0.0,0.0,0.0,0.0,0.0,0.0,0.0,0.0,0.0,0.0,0.0,-3.5078,0.0,0.0,0.0,0.0,0.0,0.0,0.0,0.0,0.0,0.0,0.0,0.0,-4.1455,-4.2638,-4.3598,-4.3598,-4.4406,-4.5829,-4.597,-4.4747,-4.26,-4.2699,-4.1861,0.0,0.0,0.0,0.0,0.0,0.0,0.0,0.0,0.0,0.0,0.0,0.0,0.0,0.0,0.0,0.0,0.0,0.0,0.0,0.0,0.0,0.0,0.0,0.0,0.0,0.0,0.0,0.0,0.0,0.0,0.0,0.0,0.0,0.0,0.0,0.0,0.0,0.0,-4.1492,-4.3113,-4.3983,-4.4621,-4.4094,0.0,0.0,0.0,0.0,0.0,0.0,-4.2326,-4.2404,-4.2769,-4.344,-4.5572,-4.6738,-4.6738,-4.9091,-5.0562,-5.1114,-5.1304,-5.1787,-5.2528,-5.2528,-5.2632,-5.2839,-5.3758,-5.4367,-5.4599,-5.2616,-5.2202,-5.273,-5.2226,-5.1085,-4.9561,-4.8197,-4.849,-4.9519,0.0,0.0,0.0,0.0,0.0,0.0,0.0,0.0,0.0,0.0,0.0,0.0,0.0,0.0,-3.7163,-3.8088,-3.8827,-3.8305,0.0,0.0,0.0,0.0,0.0,0.0,0.0,0.0,0.0,-4.141,-4.28,-4.3515,-4.3598,-4.3598,-4.4406,-4.5798,-4.5829,-4.541,-4.4783,-4.5546,-4.4597,-4.2425,0.0,0.0,0.0,0.0,0.0,0.0,0.0,0.0,0.0,0.0,0.0,0.0,0.0,0.0,0.0,0.0,0.0,0.0,0.0,0.0,0.0,0.0,0.0,0.0,0.0,0.0,0.0,0.0,0.0,0.0,0.0,0.0,0.0,0.0,0.0,0.0,0.0,0.0,0.0,-4.6096,-4.8338,0.0,0.0,0.0,0.0,-4.2189,-4.1556,-4.2482,-4.5234,-4.539,-4.6652,-4.9459,-4.97,-4.9769,-4.9769,-5.0631,-5.108,-5.1114,-5.1791,-5.258,-5.3339,-5.3339,-5.3718,-5.4454,-5.5645,-5.6167,-5.615,-5.5429,-5.5818,-5.6446,-5.272,-5.1985,-5.2486,-4.7831,-4.9064,-5.2815,0.0,0.0,0.0,0.0,0.0,0.0,0.0,0.0,0.0,0.0,0.0,0.0,0.0,-3.8187,-4.1048,-4.0994,-4.2523,-4.286,-4.1366,0.0,0.0,0.0,0.0,0.0,0.0,0.0,-4.0221,-4.1566,-4.2928,-4.3598,-4.3598,-4.3598,-4.4406,-4.5829,-4.5939,-4.6321,-4.6905,-4.7202,-4.6354,-4.477,-4.4195,-4.251,0.0,0.0,0.0,0.0,0.0,0.0,0.0,0.0,0.0,0.0,0.0,0.0,0.0,0.0,0.0,0.0,0.0,0.0,0.0,0.0,0.0,0.0,0.0,0.0,0.0,0.0,0.0,0.0,0.0,0.0,0.0,0.0,0.0,0.0,0.0,0.0,0.0,-4.6234,-4.7358,0.0,-4.6682,-4.6427,-4.5952,-4.5096,-4.6264,-4.7407,-4.8377,-4.8495,-4.8996,-4.9976,-5.0476,-5.0718,-5.0718,-5.1429,-5.208,-5.258,-5.2856,-5.3373,-5.4115,-5.4115,-5.4253,-5.4543,-5.4939,-5.5589,-5.6276,-5.6055,-5.6634,-5.7538,-5.6136,-5.5884,-5.6114,-5.4369,-5.4828,-5.6242,0.0,0.0,0.0,0.0,0.0,0.0,0.0,0.0,0.0,0.0,0.0,-3.5807,-3.6501,-4.0988,-4.3905,-4.3813,-4.5203,-4.5177,-4.3012,0.0,0.0,0.0,0.0,0.0,0.0,-3.9551,-4.1067,-4.2387,-4.3206,-4.3598,-4.3598,-4.383,-4.4638,-4.5798,-4.6188,-4.6985,-4.8001,-4.8001,-4.7502,-4.662,-4.609,-4.4072,-4.1375,0.0,0.0,0.0,0.0,0.0,0.0,0.0,0.0,0.0,0.0,0.0,0.0,0.0,0.0,0.0,0.0,0.0,0.0,0.0,0.0,0.0,0.0,0.0,0.0,0.0,0.0,0.0,0.0,0.0,0.0,0.0,0.0,0.0,0.0,-4.1767,-4.4302,-4.6372,-4.7306,-4.78,-4.7751,-4.7772,-4.78,-4.7751,-4.9216,-5.0092,-4.9993,-5.0063,-5.0213,-5.0373,-5.0856,-5.1235,-5.1476,-5.2235,-5.2873,-5.3408,-5.3649,-5.4029,-5.4512,-5.4697,-5.4187,-5.3238,-5.4739,-5.5228,-5.5066,-5.6333,-5.7302,-5.795,-5.7973,-5.7997,-5.7997,-5.7997,-5.7973,-5.7927,0.0,0.0,0.0,0.0,0.0,0.0,0.0,0.0,0.0,0.0,-3.5518,-3.8163,-4.1614,-4.3829,-4.5477,-4.6499,-4.6582,-4.4845,-4.0688,-3.9176,0.0,0.0,0.0,0.0,-4.1749,-4.1077,-4.1721,-4.3931,-4.3704,-4.3615,-4.3648,-4.4373,-4.5102,-4.5864,-4.6576,-4.7305,-4.8001,-4.8001,-4.8001,-4.7885,-4.657,-4.5078,-4.3512,0.0,0.0,0.0,0.0,0.0,0.0,0.0,0.0,0.0,0.0,0.0,0.0,0.0,0.0,0.0,0.0,0.0,0.0,0.0,0.0,0.0,0.0,0.0,0.0,0.0,0.0,0.0,0.0,0.0,0.0,0.0,0.0,0.0,-3.8836,-4.3302,-4.6613,-4.67,-4.8665,-5.0011,-5.0011,-5.0011,-5.0011,-5.0011,-5.0011,-5.0011,-5.0011,-4.9942,-5.0235,-5.0942,-5.1011,-5.136,-5.2084,-5.2994,-5.3442,-5.3442,-5.4167,-5.4512,-5.4543,-5.5104,-5.3666,-5.0874,-5.5209,-5.531,-5.2728,-5.6447,-5.7886,-5.7815,-5.795,-5.7997,-5.7997,-5.7997,-5.7927,-5.7768,0.0,0.0,0.0,0.0,0.0,0.0,0.0,0.0,0.0,0.0,-3.5038,-3.8073,-3.948,-4.3549,-4.618,-4.6243,-4.658,-4.5726,-4.3149,0.0,0.0,0.0,0.0,0.0,-4.3268,-4.3709,-4.4177,-4.471,-4.3953,-4.3863,-4.439,-4.4605,-4.5367,-4.6609,-4.6808,-4.7305,-4.8001,-4.8001,-4.8001,-4.7968,-4.7602,-4.6227,-4.4406,0.0,0.0,0.0,0.0,0.0,0.0,0.0,0.0,0.0,0.0,0.0,0.0,0.0,0.0,0.0,0.0,0.0,0.0,0.0,0.0,0.0,0.0,0.0,0.0,0.0,0.0,0.0,0.0,0.0,0.0,0.0,-4.1822,-4.4406,-4.4406,-4.5156,-4.6552,-4.8803,-4.9631,-5.0011,-5.0011,-5.0011,-5.0011,-5.0011,-5.0011,-5.0011,-5.0011,-4.8441,-4.7648,-4.7838,-4.8861,-4.9516,-4.9723,-5.2718,-5.4201,-5.4201,-5.4408,-5.4512,-5.4543,-5.5104,-5.4899,-5.4127,-5.5801,-5.6227,-5.5866,-5.6921,-5.754,-5.7815,-5.795,-5.795,-5.7881,-5.7973,-5.7927,-5.7439,0.0,0.0,0.0,0.0,0.0,0.0,0.0,0.0,0.0,0.0,-3.5555,-3.846,-4.0182,-4.3604,-4.5745,-4.5635,-4.5936,-4.4747,-4.1572,0.0,0.0,0.0,0.0,-4.3106,-4.5313,-4.554,-4.5594,-4.546,-4.4906,-4.4815,-4.5152,-4.5467,-4.6079,-4.6908,-4.7222,-4.7603,-4.8001,-4.8001,-4.8001,-4.8001,-4.8001,-4.6858,-4.5202,-4.5632,-4.4357,-4.2423,-4.3284,-4.3287,-4.2719,-4.1977,0.0,0.0,0.0,0.0,0.0,0.0,0.0,0.0,0.0,0.0,0.0,0.0,0.0,0.0,0.0,0.0,0.0,0.0,0.0,0.0,0.0,0.0,0.0,0.0,-4.3716,-4.6941,-4.7889,-4.7631,-4.801,-4.9804,-5.0011,-5.0011,-5.0011,-5.0011,-5.0011,-5.0011,-5.0011,-5.0131,-5.0442,-4.9217,-4.82,-4.7562,-4.9631,-5.0287,-4.9292,-5.277,-5.4512,-5.4512,-5.4512,-5.4512,-5.4543,-5.5402,-5.5037,-5.3843,-5.6077,-5.6423,-5.5574,-5.6855,-5.7516,-5.7745,0.0,0.0,0.0,0.0,-5.7745,-5.7352,0.0,0.0,0.0,0.0,0.0,0.0,0.0,0.0,0.0,0.0,0.0,-3.9084,-4.2222,-4.3883,-4.4791,-4.4868,-4.4744,-4.2758,0.0,0.0,0.0,0.0,0.0,0.0,-4.7493,-4.6809,-4.6333,-4.6257,-4.6112,-4.602,-4.593,-4.6593,-4.6941,-4.7057,-4.7703,-4.8001,-4.8001,-4.8001,-4.8001,-4.8001,-4.7968,-4.719,-4.6046,-4.6046,-4.5204,-4.4048,-4.4048,-4.4048,-4.3932,-4.3105,0.0,0.0,0.0,0.0,0.0,0.0,0.0,0.0,0.0,0.0,0.0,0.0,0.0,0.0,0.0,0.0,0.0,0.0,0.0,0.0,0.0,0.0,0.0,0.0,-4.5027,-4.77,-4.9717,-5.0011,-5.0011,-5.0011,-5.0011,-5.0011,-5.0011,-5.0011,-5.0011,-5.0011,-5.008,-5.0424,-5.108,-5.0942,0.0,0.0,0.0,-5.2046,-5.0028,-5.2994,-5.4512,-5.4512,-5.4557,-5.4589,-5.4652,-5.583,-5.4794,-5.2269,-5.6259,-5.6381,-5.3937,-5.669,-5.7745,-5.7649,-5.7881,-5.7904,-5.7755,-5.7271,-5.7219,-5.7351,0.0,0.0,0.0,0.0,0.0,0.0,0.0,0.0,0.0,-3.434,-3.6931,-3.9372,-4.1574,-4.3822,-4.4862,-4.4028,-4.3206,-4.1773,0.0,0.0,0.0,0.0,0.0,0.0,0.0,0.0,-4.7056,-4.7132,-4.6283,-4.6127,-4.6692,-4.6825,-4.7222,-4.7785,-4.7934,-4.8001,-4.8001,-4.8001,-4.8001,-4.8001,-4.782,-4.7671,-4.757,-4.757,-4.7291,-4.6897,-4.6897,-4.6897,-4.6699,-4.5364,-4.4539,-4.4113,-4.4542,0.0,0.0,0.0,0.0,0.0,0.0,0.0,0.0,0.0,0.0,0.0,0.0,0.0,0.0,0.0,0.0,0.0,0.0,0.0,0.0,-4.5665,-4.7751,-4.951,-4.9942,-5.0011,-5.0011,-5.0011,-5.0011,-5.0011,-5.0011,-5.0011,-5.0011,-5.0011,-5.0562,-5.0959,-5.1097,-4.9913,-4.9103,-4.881,-5.0028,-5.0459,-5.0011,-5.2994,-5.4512,-5.4512,-5.5,0.0,-5.5254,-5.6421,-5.6595,-5.6061,-5.7428,-5.7648,-5.7116,-5.7717,-5.7862,-5.7745,-5.7697,-5.7792,-5.7639,-5.4901,-5.5441,-5.717,0.0,0.0,0.0,0.0,0.0,0.0,0.0,0.0,0.0,0.0,-3.5633,-3.7882,-3.985,-4.115,-4.196,-4.2126,-4.0753,0.0,0.0,0.0,0.0,0.0,0.0,0.0,0.0,0.0,0.0,-4.779,-4.7248,-4.7169,-4.7454,-4.7454,-4.7653,-4.8001,-4.8001,-4.8001,-4.8001,-4.8001,-4.7935,-4.7853,-4.7737,-4.7721,-4.7737,-4.7737,-4.7704,-4.7588,-4.7588,-4.7588,-4.7489,-4.675,-4.6273,-4.5995,-4.6274,-4.5293,-4.366,0.0,0.0,0.0,0.0,0.0,0.0,0.0,0.0,0.0,0.0,0.0,0.0,0.0,0.0,-4.2638,-4.2397,0.0,-4.513,-4.5862,-4.7303,-4.87,-4.9855,-5.0011,-5.0011,-5.0011,-5.0011,-5.0011,-5.0011,-5.0011,-5.0149,-5.0528,-5.0907,-5.1459,-5.2218,-5.1528,-5.0597,-4.9459,-5.1269,-5.1528,-5.0011,-5.2994,-5.4512,-5.4512,-5.5122,-5.5385,-5.5443,-5.6581,-5.7116,-5.7141,-5.7679,-5.7904,-5.7922,-5.8183,-5.8251,-5.8239,-5.864,-5.8616,-5.8093,-5.6416,-5.6994,-5.8344,0.0,0.0,0.0,0.0,0.0,0.0,0.0,0.0,0.0,0.0,0.0,-3.6441,-3.8302,-3.8507,-3.8807,0.0,0.0,0.0,0.0,0.0,0.0,0.0,0.0,0.0,0.0,0.0,0.0,0.0,-4.813,-4.8115,-4.8001,-4.8001,-4.8001,-4.8001,-4.8001,-4.8001,-4.8001,-4.7968,-4.7853,-4.7704,-4.7638,-4.7554,-4.7436,-4.7403,-4.7403,-4.747,-4.7604,-4.7571,-4.747,-4.7588,-4.7571,-4.7403,-4.7301,-4.7217,-4.6401,-4.2631,-4.2651,0.0,0.0,0.0,0.0,0.0,0.0,0.0,0.0,-4.2001,-4.2712,-4.2495,-4.3236,-4.3734,-4.3157,-4.3855,-4.4906,-4.6086,-4.6828,-4.7907,-4.9752,-5.0011,-5.0011,-5.0011,-5.0011,-5.0011,-5.0011,-5.0131,-5.0476,-5.108,-5.139,-5.2097,-5.3339,-5.3546,-5.277,-5.0942,-5.3235,-5.3339,-5.0907,-5.3304,-5.4557,-5.4665,-5.5284,-5.5629,-5.5773,-5.6791,-5.7259,-5.7259,-5.7771,-5.7982,-5.8055,-5.8614,-5.8842,-5.8914,-5.9652,-5.9547,-5.9009,-5.8921,-5.9208,-5.9641,0.0,0.0,0.0,0.0,0.0,0.0,0.0,0.0,0.0,0.0,0.0,0.0,0.0,0.0,0.0,0.0,0.0,0.0,0.0,0.0,0.0,0.0,0.0,0.0,0.0,0.0,0.0,0.0,0.0,-4.8001,-4.8001,-4.8001,-4.8001,-4.8001,-4.8001,-4.8001,-4.8001,-4.782,-4.7704,-4.7671,-4.7386,-4.7251,-4.7217,-4.703,-4.7064,-4.7319,-4.7902,-4.7754,-4.7302,-4.7902,-4.7721,-4.7251,-4.7403,-4.7217,-4.6525,-4.4444,0.0,-4.303,-3.8991,-3.6743,-3.5993,-3.7801,-3.9792,-4.1312,0.0,-4.4351,-4.6804,-4.5159,-4.6675,-4.8344,-4.8558,-4.8947,-4.9286,-4.9476,-4.9562,-4.9717,-4.9959,-5.0011,-5.0011,-5.0011,-5.0011,-5.0011,-5.0011,-5.0597,-5.1028,-5.1097,-5.2373,-5.3218,-5.3391,-5.4029,-5.427,-5.4011,-5.4339,-5.4339,-5.4011,-5.4339,-5.4759,-5.5313,-5.5915,-5.6447,-5.692,-5.7613,-5.7839,-5.7757,-5.8416,-5.8701,-5.8732,-5.9401,-5.9677,-5.9652,-5.9639,-6.0022,-6.0519,-6.0034,-5.9834,-5.9771,0.0,0.0,0.0,0.0,0.0,0.0,0.0,0.0,0.0,0.0,0.0,0.0,0.0,0.0,0.0,0.0,0.0,0.0,0.0,0.0,0.0,0.0,0.0,0.0,0.0,0.0,0.0,0.0,0.0,0.0,-4.8001,-4.8001,-4.8001,-4.8001,-4.8001,-4.8001,-4.8001,-4.7787,-4.7638,-4.7554,-4.7285,-4.7132,-4.703,-4.6927,-4.6961,-4.695,-4.6405,-4.5783,0.0,0.0,-4.5734,-4.5439,-4.6859,-4.6613,-4.5569,-4.4493,-4.3544,-4.2323,-4.023,-3.9886,-4.0349,-4.1177,-4.3115,-4.4798,-4.4862,-4.6387,-4.7687,-4.7233,-4.8127,-4.9094,-4.9458,-4.8707,-4.8459,-4.9786,-4.889,-4.8493,-4.9821,-5.0011,-5.0011,-5.0011,-4.9217,-4.8665,-4.8665,-5.0149,-5.0925,-5.0493,-5.2287,-5.3598,-5.4029,-5.4339,-5.4512,-5.4512,-5.4512,-5.4512,-5.4512,-5.4512,-5.462,-5.4896,-5.5502,-5.5887,-5.6148,-5.6989,-5.7698,-5.8263,-5.856,-5.8903,-5.9317,-6.0082,-6.0382,-6.0437,-6.0917,-6.1289,-6.1408,-6.0725,-6.0725,-6.1063,0.0,0.0,0.0,0.0,0.0,0.0,0.0,0.0,0.0,0.0,0.0,0.0,0.0,0.0,0.0,0.0,0.0,0.0,0.0,0.0,0.0,0.0,0.0,0.0,0.0,0.0,0.0,0.0,0.0,0.0,-4.8001,-4.8001,-4.8001,-4.8001,-4.8001,-4.8001,-4.8001,-4.7787,-4.7621,-4.747,-4.7285,-4.7064,-4.6876,-4.6876,-4.6649,-4.6198,-4.5375,-4.4594,0.0,0.0,-4.4253,-4.4237,-4.5603,-4.557,-4.4789,-4.3871,-4.2297,-4.0885,-4.0893,-4.1569,-4.2507,-4.3633,-4.5147,-4.655,-4.7339,-4.7571,-4.7803,-4.8388,-4.8736,-4.9046,-4.9428,-4.8432,-4.8079,-4.9735,-4.8614,-4.8114,-4.9769,-5.0011,-4.9855,-4.9424,-4.839,-4.7389,-4.6544,-4.9097,-5.0856,-5.0942,-5.2666,-5.3942,-5.4477,-5.4512,-5.4512,-5.4512,-5.4512,-5.4512,-5.4512,-5.4512,-5.4589,-5.4759,-5.5373,-5.5716,-5.5858,-5.6885,-5.7804,-5.8623,-5.9027,-5.9476,-5.9995,-6.081,-6.1109,-6.1208,-6.1878,-6.2087,-6.1924,-6.1344,-6.1489,-6.1996,0.0,0.0,0.0,0.0,0.0,0.0,0.0,0.0,0.0,0.0,0.0,0.0,0.0,0.0,0.0,0.0,0.0,0.0,0.0,0.0,0.0,0.0,0.0,0.0,0.0,0.0,0.0,0.0,0.0,0.0,0.0,-4.8001,-4.8001,-4.8001,-4.8001,-4.8001,-4.8001,-4.7787,-4.7621,-4.747,-4.7285,-4.7064,-4.6876,-4.6876,-4.6034,-4.4935,-4.5561,0.0,0.0,0.0,-4.4142,-4.4561,-4.339,-4.3926,0.0,-4.2631,-4.0144,-3.8454,-4.0381,-3.9521,-3.9024,-4.2916,-4.4103,-4.485,-4.6995,-4.7504,-4.7704,-4.8356,-4.8625,-4.8858,-4.9381,-4.972,-4.9924,-4.9993,-4.9942,-4.9924,-4.9993,-5.0011,-4.9459,-4.7931,-4.7751,-4.6562,-4.3621,-4.7389,-5.0942,-5.3132,-5.4029,-5.4494,-5.4512,-5.4512,-5.4512,-5.4512,-5.4512,-5.4512,-5.4512,-5.4512,-5.479,-5.5385,-5.5971,-5.6492,-5.6879,-5.8018,-5.8562,-5.8696,-6.0102,-6.0756,-6.0846,-6.1616,-6.1942,-6.196,-6.2005,-6.1978,-6.1996,-6.196,-6.1978,-6.1996,0.0,0.0,0.0,0.0,0.0,0.0,0.0,0.0,0.0,0.0,0.0,0.0,0.0,0.0,0.0,0.0,0.0,0.0,0.0,0.0,0.0,0.0,0.0,0.0,0.0,0.0,0.0,0.0,0.0,0.0,0.0,0.0,-4.8001,-4.8001,-4.8001,-4.8001,-4.8001,-4.7787,-4.7671,-4.7621,-4.747,-4.7369,-4.7187,-4.6107,-4.5147,-4.4152,0.0,0.0,0.0,0.0,0.0,-4.1648,-4.2837,-4.2567,-4.1255,-3.8733,-3.9254,-4.0373,-3.9221,-4.0365,-4.2211,-4.3568,-4.5049,-4.6403,-4.7122,-4.7571,-4.7984,-4.853,-4.8068,-4.7704,-4.8203,-4.7162,-4.67,-4.8234,-4.6786,-4.6527,-4.9579,-4.7389,-4.6596,-4.9614,-4.7707,-4.7155,-4.9717,-4.9993,-4.9907,-4.9648,-5.2666,-5.4512,-5.4512,-5.4512,-5.4512,-5.4512,-5.4512,-5.4512,-5.4512,-5.4512,-5.4821,-5.5402,-5.5922,-5.6606,-5.7433,-5.7828,-5.8753,-6.0084,-6.0575,-6.1091,-6.1616,-6.1869,-6.1996,-6.1996,-6.1996,-6.1996,-6.1996,-6.1996,-6.1996,-6.1996,0.0,0.0,0.0,0.0,0.0,0.0,0.0,0.0,0.0,0.0,0.0,0.0,0.0,0.0,0.0,0.0,0.0,0.0,0.0,0.0,0.0,0.0,0.0,0.0,0.0,0.0,0.0,0.0,0.0,0.0,0.0,0.0,0.0,-4.8001,-4.8001,-4.8001,-4.8001,-4.7853,-4.7787,-4.7638,-4.675,-4.634,-4.6127,-4.4297,-4.3203,0.0,0.0,0.0,0.0,0.0,-3.9862,-4.0361,-4.146,-4.0522,-3.8912,-3.8325,-3.9287,-4.0459,-4.0148,-4.1917,-4.409,-4.4789,-4.6057,-4.7132,-4.7336,-4.7487,-4.7836,-4.8702,-4.8129,-4.7471,-4.732,-4.6113,-4.5596,-4.7079,-4.5682,-4.5717,-4.9476,-4.77,-4.7079,-4.993,-4.8344,-4.8172,-5.108,-5.0787,-4.9993,-4.901,-5.1649,-5.3304,-5.3304,-5.3304,-5.3667,-5.4477,-5.4512,-5.4512,-5.4512,-5.4512,-5.4882,-5.5665,-5.608,-5.6877,-5.8025,-5.826,-5.8627,-5.9162,-6.0611,-6.0883,-6.0375,-6.1525,-6.1996,-6.1996,-6.1996,-6.1996,-6.1996,-6.1996,-6.1996,-6.1996,0.0,0.0,0.0,0.0,0.0,0.0,0.0,0.0,0.0,0.0,0.0,0.0,0.0,0.0,0.0,0.0,0.0,0.0,0.0,0.0,0.0,0.0,0.0,0.0,0.0,0.0,0.0,0.0,0.0,0.0,0.0,0.0,0.0,-4.7669,-4.7669,-4.7669,-4.7669,-4.7669,-4.7555,-4.7194,-4.5087,-4.4171,-4.3802,-4.1691,0.0,0.0,0.0,0.0,0.0,0.0,-3.9198,-4.0787,-3.955,-3.8378,-3.8001,-4.0992,-4.0144,-3.91,-4.2816,-4.3927,-4.4513,-4.6408,-4.6876,-4.7014,-4.7538,-4.7286,-4.7338,-4.8692,-4.856,-4.777,-4.6553,-4.6217,-4.6217,-4.6441,-4.6355,-4.7113,-4.9545,-5.039,-5.0257,-4.8999,-4.9545,-4.9493,-4.82,-5.0011,-5.1235,-5.1114,-5.1218,-5.1287,-5.1287,-5.1287,-5.2287,-5.4443,-5.4512,-5.4512,-5.4512,-5.4543,-5.5048,-5.6052,-5.6428,-5.7315,-5.8646,-5.9307,-5.8412,-5.6518,-6.0357,-6.0285,-5.7677,-6.0729,-6.1996,-6.1996,-6.1996,-6.1996,-6.1996,-6.1996,-6.1996,-6.1996,0.0,0.0,0.0,0.0,0.0,0.0,0.0,0.0,0.0,0.0,0.0,0.0,0.0,0.0,0.0,0.0,0.0,0.0,0.0,0.0,0.0,0.0,0.0,0.0,0.0,0.0,0.0,0.0,0.0,0.0,0.0,0.0,0.0,0.0,-4.3098,-4.3098,-4.3098,-4.3098,-4.3052,-4.2943,0.0,-4.2138,-4.1993,0.0,0.0,0.0,0.0,0.0,0.0,0.0,-3.9419,-4.1333,-4.1428,-4.1679,-4.1666,-4.0198,-4.1484,-4.3293,-4.2661,-4.4284,-4.628,-4.6781,-4.6876,-4.6927,-4.7048,-4.7437,-4.7406,-4.6293,-4.5481,-4.445,-4.2676,-4.0957,-4.0922,-4.432,-4.2957,-4.3061,-4.7648,-4.6993,-4.6924,-4.9407,-4.989,-5.0735,-5.2597,-5.3304,-5.2942,-5.1235,-5.2684,-5.3632,-5.3632,-5.3632,-5.3908,-5.4494,-5.4512,-5.4512,-5.4512,-5.4957,-5.5271,-5.542,-5.6374,-5.7522,-5.8844,-5.9468,-6.0012,-6.0538,-6.1543,-6.1525,-6.0819,-6.1652,-6.1996,-6.1996,-6.1996,-6.1996,-6.1996,-6.1996,-6.1996,-6.1996,0.0,0.0,0.0,0.0,0.0,0.0,0.0,0.0,0.0,0.0,0.0,0.0,0.0,0.0,0.0,0.0,0.0,0.0,0.0,0.0,0.0,0.0,0.0,0.0,0.0,0.0,0.0,0.0,0.0,0.0,0.0,0.0,0.0,-4.1238,-4.1238,-4.1238,-4.1238,0.0,0.0,0.0,0.0,0.0,0.0,0.0,0.0,0.0,0.0,0.0,0.0,0.0,0.0,-4.1678,-4.3221,-4.3429,-4.3043,-4.2695,-4.3639,-4.4736,-4.4379,-4.557,-4.6911,-4.6996,-4.6961,-4.6736,-4.611,-4.6174,-4.5945,-4.4406,-4.3596,-4.2603,-4.0737,-3.9341,-3.9652,-4.3224,-4.2378,-4.2733,-4.7096,-4.6889,-4.72,-4.97,-5.0304,-5.1545,-5.4253,-5.4512,-5.3977,-5.2701,-5.2856,-5.3028,-5.3028,-5.3028,-5.3477,-5.4477,-5.4512,-5.4512,-5.4512,-5.5048,-5.5254,-5.5199,-5.6305,-5.755,-5.8928,-5.9527,-5.9837,-5.9977,-6.1408,-6.1181,-6.0013,-6.1417,-6.1996,-6.1996,-6.1996,-6.1996,-6.1996,-6.1996,-6.1996,-6.1996,0.0,0.0,0.0,0.0,0.0,0.0,0.0,0.0,0.0,0.0,0.0,0.0,0.0,0.0,0.0,0.0,0.0,0.0,0.0,0.0,0.0,0.0,0.0,0.0,0.0,0.0,0.0,0.0,0.0,0.0,0.0,0.0,0.0,0.0,0.0,0.0,0.0,0.0,0.0,0.0,0.0,0.0,0.0,0.0,0.0,0.0,0.0,0.0,0.0,0.0,-4.2208,-4.2162,-4.4919,-4.4601,-4.3677,-4.6208,-4.5849,-4.4982,-4.6517,-4.6952,-4.703,-4.7183,-4.7132,-4.6729,-4.5471,-4.4811,-4.4165,-4.3053,-4.2407,-4.1546,-3.999,-3.9698,-4.0457,-4.281,-4.3276,-4.419,-4.6613,-4.8103,-4.9137,-4.9648,-5.0499,-5.1981,-5.4287,-5.4204,-5.4152,-5.4494,-5.2684,-5.1563,-5.1563,-5.1563,-5.2477,-5.4443,-5.4512,-5.4512,-5.4512,-5.4896,-5.5109,-5.5109,-5.616,-5.7364,-5.8713,-5.9489,-5.9061,-5.7864,-6.0738,-6.043,-5.8058,-6.0864,-6.1996,-6.1996,-6.1996,-6.1996,-6.1996,-6.1996,-6.1996,-6.1996,0.0,0.0,0.0,0.0,0.0,0.0,0.0,0.0,0.0,0.0,-2.9602,-2.9602,0.0,0.0,0.0,0.0,0.0,0.0,0.0,0.0,0.0,0.0,0.0,0.0,0.0,0.0,0.0,0.0,0.0,0.0,0.0,0.0,0.0,0.0,0.0,0.0,0.0,0.0,0.0,0.0,0.0,0.0,0.0,0.0,0.0,0.0,0.0,0.0,0.0,0.0,-4.3317,-4.3684,-4.6435,-4.7062,-4.6618,-4.5865,-4.6258,-4.6749,-4.5865,-4.6503,-4.7369,-4.7217,-4.7471,-4.7638,-4.7276,-4.6246,-4.4827,-4.2894,-4.1162,-3.9939,-3.9738,-3.9698,-4.0457,-4.281,-4.3707,-4.3862,-4.3078,-4.6924,-4.939,-4.8224,-4.9786,-5.1873,-5.4256,-5.2695,-5.2337,-5.4342,-5.4149,-5.3925,-5.3925,-5.3925,-5.4098,-5.4494,-5.4512,-5.4512,-5.4512,-5.4589,-5.462,-5.4637,-5.5744,-5.6694,-5.7534,-5.9186,-6.0121,-6.0404,-6.1514,-6.167,-6.12,-6.1761,-6.1996,-6.1996,-6.1996,-6.1996,-6.1996,-6.1996,-6.1996,-6.1996,0.0,0.0,0.0,0.0,0.0,0.0,0.0,-2.9602,-2.9602,-2.9602,-2.9602,-2.9729,-3.0052,-2.9799,-2.9743,0.0,0.0,0.0,0.0,0.0,0.0,0.0,0.0,0.0,0.0,0.0,-3.0825,-3.0352,0.0,0.0,-3.2437,-3.2812,-3.3364,-3.4013,0.0,0.0,0.0,0.0,0.0,0.0,0.0,0.0,0.0,0.0,0.0,0.0,0.0,0.0,0.0,0.0,-4.2456,-4.3102,-4.6729,-4.7853,-4.7539,-4.5879,-4.6454,-4.7275,-4.5814,-4.6422,-4.7504,-4.7487,-4.7688,-4.7338,-4.5161,-4.4301,-4.3037,-3.988,-3.8471,-3.7851,-3.7917,-3.7922,-3.9198,-4.3138,-4.4069,-4.4742,-4.5992,-4.839,-4.9873,-4.9499,-5.0383,-5.1468,-5.2601,-5.1675,-5.1485,-5.2619,-5.2735,-5.3253,-5.4443,-5.4512,-5.4512,-5.4512,-5.4512,-5.4512,-5.4512,-5.4512,-5.4512,-5.4529,-5.5651,-5.6554,-5.7268,-5.9137,-6.0393,-6.1045,-6.1692,-6.1299,-6.0231,-6.1471,-6.1254,-6.0267,-6.1507,-6.1996,-6.1996,-6.1996,-6.1996,-6.1996,0.0,0.0,0.0,0.0,0.0,0.0,0.0,-2.9602,-2.9602,-2.9602,-2.9602,-2.9897,-3.0642,-3.0066,-2.9799,0.0,0.0,0.0,0.0,0.0,0.0,0.0,0.0,0.0,0.0,0.0,0.0,-3.0403,-3.1612,0.0,0.0,0.0,0.0,0.0,-3.4292,-3.4316,-3.4331,0.0,0.0,0.0,0.0,-3.3707,0.0,0.0,0.0,0.0,0.0,0.0,0.0,0.0,-4.121,-4.164,-4.5582,-4.6909,-4.6762,-4.5611,-4.6205,-4.7045,-4.6205,-4.6782,-4.7637,-4.7671,-4.7918,-4.7178,-4.3478,-4.2598,-4.1511,-3.7804,-3.6646,-3.6456,-3.6939,-3.7163,-3.8819,-4.3552,-4.4173,-4.5294,-4.8786,-4.9424,-4.9907,-5.0976,-5.1067,-5.1274,-5.1787,-5.136,-5.1274,-5.1804,-5.1839,-5.2615,-5.4408,-5.4512,-5.4512,-5.4512,-5.4512,-5.4512,-5.4512,-5.4512,-5.4512,-5.4529,-5.548,-5.6299,-5.7044,-5.8756,-5.9903,-6.059,-6.1268,-6.0267,-5.8382,-6.0801,-6.044,-5.8637,-6.1055,-6.1996,-6.1996,-6.1996,-6.1996,-6.1996,0.0,0.0,0.0,0.0,0.0,0.0,0.0,-2.9602,-2.9602,-2.9602,-2.9602,-3.0066,-3.1274,-3.0333,-2.9631,0.0,0.0,0.0,0.0,0.0,0.0,0.0,0.0,0.0,0.0,0.0,0.0,-3.0482,-3.2302,0.0,0.0,0.0,0.0,0.0,0.0,-3.3679,-3.3866,-3.3822,0.0,0.0,0.0,0.0,0.0,0.0,0.0,0.0,0.0,0.0,0.0,0.0,0.0,-3.9912,-4.227,-4.3376,-4.3916,-4.4379,0.0,-4.5975,-4.7177,-4.7721,-4.7902,-4.7737,-4.8292,-4.8219,-4.5597,-4.4031,-4.2415,-3.9905,-3.7732,-3.6922,-3.9008,-3.9974,-4.1326,-4.388,-4.3741,-4.4156,-4.6579,-4.751,-4.8689,-5.0856,-5.1008,-5.1787,-5.3963,-5.2213,-5.1838,-5.4015,-5.4201,-5.4287,-5.4494,-5.4512,-5.4512,-5.4512,-5.4512,-5.4512,-5.4512,-5.4512,-5.4512,-5.4529,-5.4999,-5.5569,-5.6337,-5.7463,-5.8388,-5.9112,-5.987,-5.9158,-5.7678,-6.011,-6.0029,-5.8637,-6.1055,-6.1996,-6.1996,-6.1996,-6.1996,-6.1996,0.0,0.0,0.0,0.0,0.0,0.0,-2.9602,-2.9602,-2.9602,-2.9602,-2.9602,-2.9799,-3.0305,-3.0235,-3.0319,-3.0712,0.0,0.0,0.0,0.0,0.0,0.0,0.0,0.0,0.0,0.0,-3.0387,-3.0266,-3.213,0.0,0.0,0.0,0.0,0.0,0.0,-3.3901,-3.399,-3.3942,0.0,0.0,0.0,0.0,0.0,0.0,0.0,0.0,0.0,0.0,-3.6357,-3.8709,0.0,0.0,-3.7947,-3.8391,0.0,0.0,-4.3092,-4.496,-4.4632,-4.6248,-4.8033,-4.8163,-4.8578,-4.8024,-4.4339,-4.3346,-4.2105,-3.8265,-3.6853,-3.6732,-3.8134,-3.8651,-3.9911,-4.312,-4.3379,-4.4639,-4.8734,-4.9579,-5.0597,-5.2891,-5.3087,-5.2898,-5.2481,-5.1572,-5.1417,-5.236,-5.2873,-5.3529,-5.446,-5.4512,-5.4512,-5.4512,-5.4512,-5.4512,-5.4512,-5.4512,-5.4448,-5.4321,-5.4848,-5.545,-5.6115,-5.7276,-5.8185,-5.8926,-5.9676,-5.8013,-5.5073,-5.9253,-5.8681,-5.5623,-6.0196,-6.1748,-6.1401,-6.1401,-6.1401,-6.1343,0.0,0.0,0.0,0.0,0.0,-2.9602,-2.9602,-2.9602,-2.9602,-2.9602,-2.9602,-2.9673,-2.9855,-3.0076,-3.0586,-3.1415,-3.0502,0.0,0.0,0.0,0.0,0.0,0.0,0.0,0.0,0.0,-3.0289,-3.0397,-3.1989,-3.2889,0.0,0.0,-3.4191,-3.4202,0.0,0.0,0.0,0.0,0.0,0.0,0.0,0.0,0.0,0.0,0.0,0.0,0.0,0.0,0.0,0.0,0.0,0.0,0.0,0.0,0.0,0.0,-4.1044,-4.3628,-4.3264,-4.5533,-4.8066,-4.8292,-4.8123,-4.6857,-4.3029,-4.2108,-4.0924,-3.6845,-3.6341,-3.6818,-3.7409,-3.7858,-3.9272,-4.2654,-4.3379,-4.507,-4.9476,-5.0068,-5.0959,-5.3235,-5.3494,-5.3132,-5.2218,-5.2114,-5.2114,-5.2114,-5.2597,-5.3356,-5.4443,-5.4512,-5.4512,-5.4512,-5.4512,-5.4512,-5.4512,-5.4448,-5.4335,-5.4207,-5.4527,-5.4668,-5.4703,-5.62,-5.702,-5.7363,-5.8523,-5.701,-5.4044,-5.8532,-5.7857,-5.4512,-5.9474,-6.1122,-6.0699,-6.0699,-6.0699,-6.0638,0.0,0.0,0.0,0.0,0.0,0.0,-2.9602,-2.9602,-2.9602,-2.9602,-2.9602,-2.9841,-3.0413,-2.9968,-3.0122,-3.1387,-3.0895,0.0,0.0,0.0,0.0,0.0,0.0,0.0,0.0,0.0,-3.0765,-3.1103,-3.1983,-3.2905,-3.3894,-3.4117,-3.4191,-3.4191,0.0,0.0,0.0,0.0,0.0,0.0,0.0,0.0,0.0,0.0,0.0,0.0,0.0,0.0,0.0,0.0,0.0,0.0,0.0,0.0,0.0,0.0,-3.9172,-4.1922,-4.4075,-4.6295,-4.8001,-4.8001,-4.6595,-4.4633,-4.2334,-4.0586,-3.8783,-3.6476,-3.6788,-3.7495,-3.7512,-3.8681,-4.044,-4.281,-4.381,-4.5105,-4.7424,-4.7724,-4.8568,-5.0843,-5.1149,-5.2028,-5.4253,-5.4477,-5.4477,-5.4477,-5.4477,-5.4494,-5.4512,-5.4512,-5.4512,-5.4512,-5.4512,-5.4512,-5.4512,-5.4303,-5.419,-5.4207,-5.3882,-5.2952,-5.1609,-5.3686,-5.4228,-5.367,-5.5904,-5.6268,-5.5556,-5.7927,-5.7892,-5.6628,-5.9053,-6.0016,-5.9998,-5.9998,-5.9998,-5.9998,0.0,0.0,0.0,0.0,0.0,0.0,0.0,-2.9602,-2.9602,-2.9602,-2.9602,-2.9673,-2.9869,-3.0062,-3.0357,-3.0797,-3.061,0.0,0.0,0.0,0.0,0.0,0.0,0.0,0.0,0.0,-3.0639,-3.0765,-3.1916,-3.2643,-3.2946,-3.303,-3.3283,-3.3709,-3.3206,-3.3205,0.0,0.0,0.0,0.0,0.0,0.0,-3.3293,0.0,0.0,0.0,0.0,0.0,0.0,0.0,0.0,0.0,0.0,0.0,0.0,0.0,0.0,0.0,-4.0067,-4.1839,-4.3555,-4.3773,-4.3382,-4.2416,-4.033,-3.9627,-3.8903,-3.7125,-3.7153,-3.7823,-3.8819,-3.9388,-4.0629,-4.35,-4.4156,-4.5657,-4.9493,-5.0028,-5.089,-5.3166,-5.3425,-5.3718,-5.4443,-5.3563,-5.3391,-5.4425,-5.3529,-5.3408,-5.4443,-5.4512,-5.4512,-5.4512,-5.4512,-5.4512,-5.4512,-5.4303,-5.4158,-5.4045,-5.3816,-5.2853,-5.1366,-5.3585,-5.389,-5.2807,-5.5074,-5.5008,-5.3494,-5.6263,-5.5916,-5.3984,-5.7723,-5.8905,-5.8569,-5.9072,-5.923,-5.9163,0.0,0.0,0.0,0.0,0.0,0.0,0.0,-2.9602,-2.9602,-2.9602,-2.9602,-2.9602,-2.9602,-2.9954,-3.0361,-3.0853,-3.067,0.0,0.0,0.0,0.0,0.0,0.0,0.0,0.0,-3.0477,-3.1011,-3.1508,-3.1916,-3.2497,-3.3245,-3.2751,-3.2736,-3.308,-3.2394,-3.2405,0.0,0.0,0.0,0.0,0.0,0.0,-3.2695,0.0,0.0,0.0,0.0,0.0,0.0,0.0,0.0,0.0,0.0,0.0,0.0,0.0,-3.4431,-3.6828,0.0,-3.9589,-4.1437,-4.1672,-4.1109,-4.0304,0.0,0.0,-3.8122,-3.7644,-3.8574,-3.9496,-3.9681,-4.0599,-4.1719,-4.2837,-4.4415,-4.6215,-4.8252,-4.9286,-5.0355,-5.1787,-5.264,-5.3501,-5.4425,-5.3649,-5.3477,-5.4443,-5.3632,-5.3494,-5.446,-5.4512,-5.448,-5.4399,-5.448,-5.4463,-5.4367,-5.4207,-5.4045,-5.3882,-5.3701,-5.2619,-5.0862,-5.3145,-5.3348,-5.2012,-5.4313,-5.4651,0.0,-5.5587,-5.523,-5.3873,-5.6567,-5.7374,-5.7056,-5.7518,-5.7689,-5.762,0.0,0.0,0.0,0.0,0.0,0.0,0.0,-2.9602,-2.9602,-2.9602,-2.9602,-2.9602,-2.9602,-2.9602,-3.0122,-3.1406,0.0,0.0,0.0,0.0,0.0,0.0,0.0,0.0,-3.0552,-3.0851,-3.1633,-3.2917,-3.1961,-3.2497,-3.4339,-3.3036,-3.2437,-3.2482,-3.175,-3.1734,0.0,0.0,0.0,0.0,0.0,0.0,0.0,0.0,0.0,0.0,0.0,0.0,0.0,0.0,0.0,0.0,0.0,0.0,0.0,0.0,0.0,0.0,0.0,-3.8969,-4.0933,-4.1011,-3.9537,-3.8332,0.0,0.0,0.0,0.0,0.0,-4.2141,-4.0358,-4.2393,-4.3658,-4.1492,-4.4742,-4.6804,-4.482,-4.651,-4.7862,-4.7707,-4.9739,-5.1976,-5.4049,-5.4408,-5.4512,-5.4512,-5.4512,-5.4512,-5.4512,-5.4512,-5.4399,-5.4239,-5.4399,-5.4399,-5.419,-5.4045,-5.383,-5.3479,-5.35,-5.2248,-4.9963,-5.2384,-5.2638,-5.1268,-5.3534,-5.4905,-5.5529,-5.5529,-5.5529,-5.5564,-5.5615,-5.5632,-5.5649,-5.5664,-5.5681,-5.5681,0.0,0.0,0.0,0.0,0.0,0.0,0.0,0.0,0.0,0.0,-2.9602,-2.9602,-2.9602,-2.9602,-3.0172,0.0,0.0,0.0,0.0,0.0,0.0,0.0,0.0,0.0,-3.0233,-3.0747,-3.1412,-3.2253,-3.1738,-3.1989,-3.2961,-3.2108,-3.2004,-3.2437,-3.1241,-3.0561,0.0,0.0,0.0,0.0,0.0,0.0,0.0,0.0,0.0,0.0,-3.1881,-3.212,0.0,0.0,0.0,0.0,0.0,0.0,0.0,0.0,-3.2582,-3.363,-3.4717,0.0,-3.6555,-3.7135,-3.7037,-3.7009,0.0,0.0,0.0,0.0,0.0,0.0,0.0,-4.5207,-4.6121,-4.388,-4.5828,-4.7472,-4.6975,-4.8872,-4.9666,-4.7896,-5.1222,-5.3205,-5.2028,-5.3494,-5.4512,-5.4512,-5.4512,-5.4512,-5.4512,-5.4512,-5.448,-5.4448,-5.448,-5.4335,-5.4045,-5.4013,-5.3094,-5.1341,-5.2901,-5.1579,-4.7865,-5.1723,-5.235,-5.049,-5.2773,-5.3856,-5.4025,-5.4025,-5.4025,-5.4076,-5.4634,-5.4854,-5.4921,-5.5497,-5.5681,-5.5681,0.0,0.0,0.0,0.0,0.0,0.0,0.0,0.0,0.0,0.0,0.0,0.0,0.0,0.0,0.0,0.0,0.0,0.0,0.0,0.0,0.0,0.0,0.0,-3.0233,-3.0507,-3.0822,-3.1412,-3.2228,-3.1737,-3.1839,-3.2497,-3.1809,-3.169,-3.1989,-3.0971,-3.0038,0.0,0.0,0.0,0.0,-3.0819,0.0,0.0,0.0,0.0,0.0,-3.2303,-3.2433,0.0,-3.2025,-3.1262,-3.0548,0.0,0.0,0.0,0.0,-3.2355,-3.2973,-3.363,-3.4391,-3.5481,-3.7514,-3.7377,-3.7203,-3.9057,0.0,0.0,0.0,0.0,0.0,0.0,-4.5276,-4.5654,-4.4475,-4.5267,-4.6429,-4.7534,-4.8655,-4.8936,-4.7827,-4.9774,-5.1154,-5.1102,-5.3166,-5.4512,-5.4512,-5.4512,-5.4512,-5.4512,-5.4512,-5.448,-5.4367,-5.4367,-5.4271,-5.411,-5.4078,-5.2917,-5.0619,-5.2808,-5.2011,-4.8775,-5.217,-5.3006,-5.177,-5.199,-5.2619,-5.3416,-5.2367,-5.2553,-5.3551,-5.394,-5.4093,-5.4143,-5.4549,-5.4702,-5.4702,0.0,0.0,0.0,0.0,0.0,0.0,0.0,0.0,0.0,0.0,0.0,0.0,0.0,0.0,0.0,0.0,0.0,0.0,0.0,0.0,0.0,0.0,0.0,-3.0431,-3.094,-3.1029,-3.1531,-3.2512,-3.1824,-3.1795,-3.2318,-3.1765,-3.1406,-3.1182,-3.0717,-2.9811,0.0,0.0,-2.9687,-2.9798,-3.0308,0.0,0.0,0.0,0.0,0.0,0.0,0.0,0.0,-3.2363,-3.1524,-3.0612,-3.1167,0.0,0.0,0.0,0.0,0.0,-3.3181,-3.4249,-3.5973,-3.9408,-3.8782,-3.815,-4.1293,0.0,0.0,0.0,0.0,0.0,0.0,-4.5239,-4.5306,-4.444,-4.4501,-4.536,-4.7414,-4.7814,-4.7843,-4.7696,-4.8066,-4.9037,-5.084,-5.3074,-5.4416,-5.4416,-5.448,-5.4512,-5.4512,-5.4512,-5.4399,-5.4271,-5.4239,-5.4239,-5.4239,-5.4239,-5.2995,-5.068,-5.2936,-5.2834,-5.0731,-5.2955,-5.3915,-5.3631,-5.1743,-5.1968,-5.3415,-5.1468,-5.1774,-5.3534,-5.3501,-5.3501,-5.3501,-5.3501,-5.3501,-5.3501,0.0,0.0,0.0,0.0,0.0,0.0,0.0,0.0,0.0,0.0,0.0,0.0,0.0,0.0,0.0,0.0,0.0,0.0,0.0,0.0,0.0,-3.1274,-3.0809,-3.0582,-3.0657,-3.1176,-3.1795,-3.2512,-3.1824,-3.1555,-3.1645,-3.1555,-3.0913,-2.9909,-3.0313,-2.9502,-2.785,-2.9082,-2.9606,-2.9678,-3.028,0.0,0.0,0.0,0.0,0.0,0.0,0.0,0.0,-3.1839,-3.1137,-3.0522,-3.0627,0.0,0.0,0.0,0.0,0.0,-3.3681,-3.4725,-3.6055,-3.8914,-3.8995,-3.908,-4.1775,0.0,0.0,0.0,0.0,0.0,0.0,-5.0073,-5.0669,-4.519,-4.588,-4.7293,-4.7638,-4.9315,-4.9815,-4.7913,-5.0815,-5.2372,-5.083,-5.2729,-5.4078,-5.4078,-5.4353,-5.4512,-5.4512,-5.4512,-5.448,-5.4448,-5.4448,-5.4448,-5.4448,-5.4303,-5.3058,-5.078,-5.3078,-5.2975,-5.0832,-5.3002,-5.398,-5.3931,-5.3589,-5.364,-5.3865,-5.3376,-5.3361,-5.3651,-5.3551,-5.3501,-5.3501,-5.3501,-5.3501,-5.3501,0.0,0.0,0.0,0.0,0.0,0.0,0.0,0.0,0.0,0.0,0.0,0.0,0.0,0.0,0.0,0.0,0.0,0.0,0.0,0.0,0.0,-3.0384,-3.0529,-3.0657,-3.0792,-3.1102,-3.1277,-3.1435,-3.112,-3.0778,-3.0477,-3.0477,-3.0163,-2.9606,-2.9505,-2.8771,-2.763,-2.8259,-2.8738,-2.9131,0.0,0.0,0.0,0.0,0.0,0.0,0.0,0.0,0.0,0.0,-3.1585,-3.1032,-3.1032,0.0,0.0,0.0,0.0,0.0,-3.2999,-3.4344,-3.6352,-4.0346,-4.0156,-4.0213,-4.4984,-4.2851,0.0,0.0,0.0,0.0,0.0,-4.7933,-4.7997,-4.6387,-4.9079,-5.0959,-4.9717,-5.0383,-5.0553,-4.9404,-5.0905,-5.1602,-5.0374,-5.2552,-5.398,-5.398,-5.4321,-5.4512,-5.4512,-5.4512,-5.4512,-5.4512,-5.4512,-5.4512,-5.4512,-5.4399,-5.3232,-5.0995,-5.3283,-5.318,-5.1047,-5.3272,-5.4207,-5.4042,-5.2841,-5.2948,-5.3895,-5.2584,-5.2742,-5.3849,-5.38,-5.3701,-5.3601,-5.3534,-5.3501,-5.3501,0.0,0.0,0.0,0.0,0.0,0.0,0.0,0.0,0.0,0.0,0.0,0.0,0.0,0.0,0.0,0.0,0.0,0.0,0.0,0.0,-2.9665,-2.982,-3.0341,-3.0615,-3.0661,-3.0793,-3.0685,-3.0283,-3.0283,-3.0043,-2.9606,-2.9606,-2.9532,-2.9367,-2.8981,-2.8353,-2.7615,-2.7929,-2.8453,-2.9146,0.0,0.0,0.0,0.0,0.0,0.0,0.0,0.0,0.0,0.0,0.0,0.0,0.0,0.0,0.0,-3.1511,-3.1511,-3.1674,-3.2494,-3.3904,-3.6269,-4.0928,0.0,-4.1022,-4.7603,-4.4231,-4.1607,0.0,0.0,-4.279,-4.6925,-4.6033,-4.547,-4.7906,-5.1335,-5.3256,-5.1959,-5.1678,-5.1586,-5.1401,-5.1167,-5.0896,-5.0701,-5.2517,-5.375,-5.375,-5.4143,-5.4367,-5.4367,-5.4448,-5.4512,-5.4512,-5.4512,-5.4512,-5.4512,-5.4512,-5.3632,-5.1925,-5.3684,-5.3598,-5.1977,-5.3718,-5.4416,-5.4168,-5.2496,-5.2643,-5.399,-5.2195,-5.2472,-5.4045,-5.4013,-5.3915,-5.375,-5.3618,-5.3551,-5.3551,0.0,0.0,0.0,0.0,0.0,0.0,0.0,0.0,0.0,0.0,0.0,0.0,0.0,0.0,0.0,0.0,0.0,0.0,0.0,0.0,-2.9882,-3.0507,-3.0568,-3.0336,-2.9697,-3.0243,-3.024,-2.9666,-2.9666,-2.9651,-2.9606,-2.9606,-2.9277,-2.8697,-2.9265,-2.8813,-2.7675,-2.8933,-2.9804,-3.0432,-3.1137,0.0,0.0,0.0,0.0,0.0,0.0,0.0,0.0,0.0,0.0,0.0,0.0,0.0,-3.1511,-3.1511,-3.1511,-3.179,-3.3001,-3.3904,-3.5312,-3.8871,-3.9534,0.0,-4.7603,-4.4231,0.0,-4.87,-4.781,-4.6707,-4.9763,-4.8472,-4.7629,-4.9712,-5.0771,-5.1924,-5.3565,-5.3774,-5.3774,-5.3741,-5.3146,-5.2703,-5.2703,-5.2889,-5.2972,-5.2972,-5.3651,-5.403,-5.403,-5.4335,-5.4512,-5.4512,-5.4512,-5.4512,-5.4512,-5.4512,-5.4425,-5.427,-5.4425,-5.4425,-5.427,-5.4443,-5.4512,-5.4463,-5.4308,-5.4325,-5.4431,-5.41,-5.4053,-5.4158,-5.4045,-5.398,-5.3948,-5.375,-5.3684,-5.3684,0.0,0.0,0.0,0.0,0.0,0.0,0.0,0.0,0.0,0.0,0.0,0.0,0.0,0.0,0.0,0.0,0.0,0.0,0.0,-3.0142,-3.0187,-2.9584,-3.038,-3.0134,-2.8588,-2.9839,-2.9998,-2.8966,-2.8573,-2.8573,-2.8966,-2.8558,-2.8453,-2.8592,-2.8438,-2.8543,-2.8888,-2.9397,-3.0417,-3.1809,-3.2482,-3.32,0.0,0.0,0.0,0.0,0.0,0.0,0.0,0.0,-3.1511,-3.1466,0.0,-3.1301,-3.1511,-3.1511,-3.1511,-3.1793,-3.311,-3.4227,-3.6039,-4.0353,-4.0034,0.0,0.0,-4.4677,-4.3157,-5.0406,-4.7742,-4.4524,-4.5701,-4.744,-4.901,-5.0045,-5.1524,-5.2779,-5.3514,-5.3617,-5.355,-5.3349,-5.3076,-5.2816,-5.2605,-5.2781,-5.2903,-5.2903,-5.3349,-5.3617,-5.3617,-5.3963,-5.4175,-5.4175,-5.4385,-5.4512,-5.4512,-5.4512,-5.4512,-5.4512,-5.4512,-5.4512,-5.4512,-5.4512,-5.4512,-5.4512,-5.4512,-5.4512,-5.4512,-5.4416,-5.4367,-5.4367,-5.411,-5.398,-5.3965,-5.3668,-5.3584,-5.3584,0.0,0.0,0.0,0.0,0.0,0.0,0.0,0.0,0.0,0.0,0.0,0.0,0.0,0.0,0.0,0.0,0.0,0.0,-3.0284,-3.0708,-3.0594,-2.9857,-3.0541,-3.0249,-2.8731,-2.9878,-2.9774,-2.8278,-2.7824,-2.7839,-2.8263,-2.7809,-2.7839,-2.8263,-2.8259,-2.8738,-2.9651,-3.0265,-3.1405,-3.2856,-3.332,-3.3619,0.0,0.0,0.0,0.0,0.0,0.0,0.0,0.0,-3.1316,0.0,0.0,0.0,0.0,0.0,-3.164,-3.2024,-3.317,-3.4258,-3.6115,-4.0504,0.0,0.0,-4.6525,-4.487,-4.376,-5.0476,-4.8753,-4.5828,-4.5143,-4.7515,-4.9653,-4.9831,-5.1239,-5.2554,-5.318,-5.323,-5.3145,-5.2938,-5.2816,-5.264,-5.2409,-5.2622,-5.2746,-5.2746,-5.3042,-5.323,-5.323,-5.3583,-5.3865,-5.3997,-5.4207,-5.4367,-5.4512,-5.4512,-5.4512,-5.4512,-5.4512,-5.4512,-5.4512,-5.4512,-5.4512,-5.4512,-5.4512,-5.4512,-5.4512,-5.4512,-5.4512,-5.448,-5.4239,-5.416,-5.411,-5.3833,-5.3685,-5.3651,0.0,0.0,0.0,0.0,0.0,0.0,0.0,0.0,0.0,0.0,0.0,0.0,0.0,0.0,0.0,0.0,0.0,0.0,-3.1674,-3.1126,-3.1103,-3.1772,-3.1158,-3.0719,-3.0479,-3.0492,-2.9549,-2.7615,-2.7615,-2.7615,-2.7615,-2.7615,-2.7615,-2.769,-2.9037,-2.9651,-2.9771,-3.1719,-3.2916,-3.3499,-3.3499,-3.3888,-3.4354,0.0,0.0,0.0,0.0,0.0,0.0,0.0,-3.0943,0.0,0.0,0.0,0.0,0.0,-3.1953,-3.2536,-3.3244,-3.3846,-3.5132,0.0,0.0,0.0,-4.6255,-4.4708,-4.3137,-4.8506,-5.1363,-5.2097,-4.9542,-4.9327,-4.9442,-4.9144,-4.9621,-5.0686,-5.262,-5.2903,-5.2903,-5.2903,-5.2605,-5.2409,-5.2409,-5.2409,-5.2409,-5.2409,-5.2711,-5.2903,-5.2903,-5.3196,-5.3583,-5.398,-5.398,-5.4143,-5.448,-5.448,-5.448,-5.448,-5.4512,-5.4512,-5.4512,-5.4512,-5.4512,-5.4512,-5.4512,-5.4512,-5.4512,-5.4512,-5.4512,-5.4512,-5.4512,-5.4512,-5.448,-5.4271,-5.411,-5.3948,0.0,0.0,0.0,0.0,0.0,0.0,0.0,0.0,0.0,0.0,0.0,0.0,0.0,0.0,0.0,0.0,0.0,0.0,-3.1126,-3.1536,-3.1332,-3.0308,-3.0822,-3.07,-2.9754,-2.9821,-2.9592,-2.9022,-2.9022,-2.9022,-2.9022,-2.9022,-2.922,-2.9714,-3.1524,-3.2332,-3.2467,-3.4457,-3.4876,-3.4219,-3.4219,-3.3754,-3.3051,0.0,0.0,0.0,0.0,0.0,0.0,0.0,0.0,0.0,0.0,0.0,0.0,-3.3738,-3.3111,-3.2326,-3.489,-3.4953,0.0,-3.7965,0.0,0.0,0.0,-4.3621,0.0,-4.8514,-4.9942,-4.9807,-4.7237,-4.9376,-5.1003,-4.9359,-5.0557,-5.1891,-5.2487,-5.2551,-5.2551,-5.2551,-5.2445,-5.2409,-5.2409,-5.2409,-5.2409,-5.2409,-5.248,-5.2551,-5.2551,-5.2868,-5.3093,-5.3213,-5.345,-5.365,-5.3749,-5.3749,-5.3749,-5.3732,-5.3996,-5.4271,-5.4512,-5.4512,-5.4512,-5.4512,-5.4512,-5.4512,-5.448,-5.4335,-5.4303,-5.4271,-5.4045,-5.3948,-5.3915,-5.3767,-5.3685,-5.3618,0.0,0.0,0.0,0.0,0.0,0.0,0.0,0.0,0.0,0.0,0.0,0.0,0.0,0.0,0.0,0.0,0.0,0.0,0.0,-3.1811,-3.1411,-3.0526,-3.0955,-3.0907,-3.0246,-3.0302,-3.0357,-3.0357,-2.9834,-2.9606,-2.9621,-2.9834,-3.0148,-3.0597,-3.2602,-3.3499,-3.3589,-3.507,-3.5252,-3.4459,-3.3903,-3.3215,-3.2452,0.0,0.0,0.0,0.0,0.0,0.0,0.0,0.0,0.0,0.0,0.0,0.0,-3.3738,-3.3834,-3.4238,-3.6351,-3.6635,0.0,-4.1231,-4.1563,-4.1239,-4.2315,-4.3976,-4.6225,-4.9689,-5.0591,-5.0226,-4.8713,-5.0619,-5.1943,-5.0634,-5.1512,-5.2409,-5.2409,-5.2409,-5.2409,-5.2409,-5.2409,-5.2409,-5.2409,-5.2409,-5.2409,-5.2409,-5.2409,-5.2409,-5.2409,-5.2587,-5.2781,-5.2903,-5.3093,-5.3264,-5.3382,-5.3382,-5.3382,-5.3416,-5.3799,-5.4127,-5.4321,-5.4448,-5.4512,-5.4512,-5.4512,-5.4512,-5.448,-5.4271,-5.419,-5.4158,-5.3915,-5.3816,-5.3816,-5.3751,-5.3651,-5.3584,0.0,0.0,0.0,0.0,0.0,0.0,0.0,0.0,0.0,0.0,0.0,0.0,0.0,0.0,0.0,0.0,0.0,0.0,0.0,0.0,-3.1432,-3.1729,-3.1353,-3.1249,-3.1511,-3.1511,-3.1525,-3.1585,-3.0372,-2.9789,-2.9891,-3.0432,-3.0746,-3.0956,-3.2901,-3.3709,-3.3634,-3.4384,-3.4548,-3.4219,-3.2991,-3.2452,-3.2333,-3.1735,0.0,0.0,0.0,0.0,0.0,0.0,0.0,0.0,0.0,0.0,-3.4711,-3.2512,-3.4329,-3.715,-3.7642,-3.8469,0.0,-4.5878,-4.4407,-4.2304,-4.4673,-4.5685,-4.7289,-5.1425,-5.2172,-5.2142,-5.234,-5.2409,-5.2409,-5.2409,-5.2409,-5.2409,-5.2409,-5.2409,-5.2409,-5.2409,-5.2409,-5.2409,-5.2409,-5.2409,-5.2409,-5.2409,-5.2409,-5.2409,-5.2409,-5.2409,-5.2551,-5.2834,-5.2834,-5.299,-5.3298,-5.3332,-5.3332,-5.3332,-5.37,-5.3915,-5.3948,-5.4335,-5.4512,-5.4512,-5.4512,-5.4512,-5.448,-5.4271,-5.4175,-5.4175,-5.4013,-5.3948,-5.3948,-5.3948,-5.3849,-5.3684,0.0,0.0,0.0,0.0,0.0,0.0,0.0,0.0,0.0,0.0,0.0,0.0,0.0,0.0,0.0,0.0,0.0,0.0,0.0,0.0,-3.14,-3.1249,-3.1352,-3.1453,-3.1511,-3.1511,-3.1765,-3.2273,-3.1481,-3.1346,-3.1884,-3.2018,-3.2632,-3.3679,-3.5175,-3.5265,-3.4369,-3.5549,-3.4846,-3.2901,-3.2632,-3.2168,-3.1705,-3.1555,-3.1511,0.0,0.0,0.0,0.0,0.0,0.0,0.0,-3.1511,-3.1899,-3.2662,-3.4203,-3.5232,-3.6315,-3.8421,-3.8407,0.0,0.0,-4.1738,-4.3781,-4.9419,-4.9522,-4.8959,-5.097,-5.0544,-5.0336,-5.2059,-5.2409,-5.2409,-5.2409,-5.2409,-5.2409,-5.2409,-5.2409,-5.2409,-5.2409,-5.2409,-5.2409,-5.2409,-5.2409,-5.2409,-5.2409,-5.2409,-5.2409,-5.2409,-5.2409,-5.2445,-5.2516,-5.2516,-5.2535,-5.2605,-5.2605,-5.2605,-5.264,-5.2972,-5.3264,-5.3533,-5.419,-5.4512,-5.4512,-5.4512,-5.4512,-5.448,-5.4175,-5.4045,-5.4013,-5.3718,-5.3601,-5.3601,-5.3601,-5.3584,-5.3551,0.0,0.0,0.0,0.0,0.0,0.0,0.0,0.0,0.0,0.0,0.0,0.0,0.0,0.0,0.0,0.0,0.0,0.0,0.0,0.0,-3.087,-3.094,-3.1234,-3.1587,-3.1974,-3.1974,-3.2303,-3.2976,-3.2647,-3.2647,-3.2991,-3.3305,-3.3814,-3.4533,-3.5237,-3.5162,-3.4518,-3.4562,-3.3784,-3.2452,-3.2138,-3.1809,-3.1511,-3.1511,-3.1511,-3.1511,-3.1511,0.0,0.0,0.0,0.0,0.0,0.0,0.0,-3.3424,-3.3543,-3.4676,-3.6273,-3.8089,0.0,0.0,-4.2695,0.0,-4.7256,-4.9632,-5.0124,-5.0278,-5.0967,-5.0538,-5.0525,-5.2123,-5.2069,-5.1908,-5.2338,-5.2409,-5.2409,-5.2409,-5.2409,-5.2409,-5.2409,-5.2409,-5.2409,-5.2409,-5.2409,-5.2409,-5.2409,-5.2409,-5.2409,-5.2409,-5.2409,-5.2409,-5.2409,-5.2409,-5.2409,-5.2409,-5.2409,-5.2409,-5.2409,-5.2746,-5.3162,-5.3716,-5.4239,-5.4512,-5.4512,-5.4512,-5.4512,-5.448,-5.4207,-5.411,-5.4078,-5.3833,-5.3685,-5.3618,-5.3618,-5.3551,-5.3501,0.0,0.0,0.0,0.0,0.0,0.0,0.0,0.0,0.0,0.0,0.0,0.0,0.0,0.0,0.0,0.0,0.0,0.0,0.0,0.0,0.0,-3.1053,-3.1471,-3.1961,-3.2572,-3.2647,-3.3006,-3.3664,-3.3664,-3.3888,-3.4352,-3.4786,-3.5013,-3.5013,-3.4893,-3.4593,-3.4053,-3.2856,-3.2318,-3.2273,-3.172,-3.1511,-3.1511,-3.1511,-3.1511,-3.1511,-3.1511,-3.1511,-3.1511,-3.1511,0.0,0.0,0.0,0.0,-3.4382,-3.2153,-3.3789,-3.6502,0.0,0.0,-4.2579,-4.6442,-4.8606,0.0,-4.8405,-4.9296,-5.0515,-5.1,-5.1231,-5.1545,-5.2266,-5.1818,-5.1545,-5.2302,-5.2409,-5.2409,-5.2409,-5.2409,-5.2409,-5.2409,-5.2409,-5.2409,-5.2409,-5.2409,-5.2409,-5.2409,-5.2409,-5.2409,-5.2409,-5.2409,-5.2409,-5.2409,-5.2409,-5.2409,-5.2409,-5.2409,-5.2409,-5.2409,-5.2746,-5.3213,-5.3816,-5.4239,-5.4448,-5.4512,-5.4512,-5.4512,-5.448,-5.4271,-5.419,-5.4207,-5.4045,-5.3882,-5.3733,-5.3733,-5.3668,-5.3568,0.0,0.0,0.0,0.0,0.0,0.0,0.0,0.0,0.0,0.0,0.0,0.0,0.0,0.0,0.0,0.0,0.0,0.0,0.0,0.0,0.0,-3.2176,-3.2847,-3.3122,-3.2933,-3.3212,-3.3679,-3.4384,-3.4384,-3.5537,-3.7719,-3.724,-3.7015,-3.7,-3.6462,-3.4936,-3.2721,-3.1959,-3.163,-3.163,-3.154,-3.1511,-3.1511,-3.1511,-3.1511,-3.1511,-3.1511,-3.1511,-3.1511,-3.1511,-3.1511,0.0,0.0,0.0,-3.1959,-3.1615,-3.3845,-3.649,0.0,0.0,-4.2798,0.0,-4.5243,-4.5461,-4.8789,-4.8453,-4.8142,-5.0618,-5.1709,-5.2266,-5.2373,-5.2302,-5.2266,-5.2373,-5.2409,-5.2409,-5.2409,-5.2409,-5.2409,-5.2409,-5.2409,-5.2409,-5.2409,-5.2409,-5.2409,-5.2409,-5.2409,-5.2409,-5.2409,-5.2409,-5.2409,-5.2409,-5.2409,-5.2409,-5.2409,-5.2409,-5.2409,-5.2409,-5.2746,-5.2938,-5.3076,-5.375,-5.4224,-5.4512,-5.4512,-5.4512,-5.448,-5.4271,-5.419,-5.4207,-5.4045,-5.398,-5.3948,-5.3948,-5.3965,-5.3899,0.0,0.0,0.0,0.0,0.0,0.0,0.0,0.0,0.0,0.0,0.0,0.0,0.0,0.0,0.0,0.0,0.0,0.0,0.0,0.0,0.0,-3.2134,-3.2832,-3.3323,-3.3505,-3.3882,-3.4382,-3.5055,-3.5055,-3.6776,0.0,-3.9768,-3.9035,-3.7973,-3.8467,-3.6387,-3.2542,-3.3379,-3.2647,-3.0957,-3.1346,-3.1511,-3.1511,-3.1511,-3.1511,-3.1511,-3.1511,-3.1511,-3.1511,-3.1511,-3.1511,-3.1511,-3.1511,0.0,0.0,0.0,-3.311,-3.4906,-3.7883,-3.9742,-4.1888,0.0,-4.5497,-4.4827,-4.8896,-4.8285,-4.7569,-4.9898,-5.0691,-5.1102,-5.1582,-5.1672,-5.1672,-5.1672,-5.2069,-5.2409,-5.2409,-5.2409,-5.2409,-5.2409,-5.2409,-5.2409,-5.2409,-5.2409,-5.2409,-5.2409,-5.2409,-5.2409,-5.2409,-5.2409,-5.2409,-5.2409,-5.2409,-5.2409,-5.2409,-5.2409,-5.2409,-5.2409,-5.2551,-5.2711,-5.2903,-5.3247,-5.3684,-5.4224,-5.4416,-5.4512,-5.4512,-5.4399,-5.4367,-5.4367,-5.4303,-5.4207,-5.411,-5.411,-5.4078,-5.398,0.0,0.0,0.0,0.0,0.0,0.0,0.0,0.0,0.0,0.0,0.0,0.0,0.0,0.0,0.0,0.0,0.0,0.0,0.0,0.0,0.0,-3.2444,-3.3124,-3.3679,-3.4136,-3.4552,-3.4996,-3.5504,0.0,0.0,-4.0382,-4.0891,-4.0337,-3.8931,-3.9783,-3.7958,-3.4322,-3.516,-3.4068,-3.1824,-3.2303,-3.2108,-3.1511,-3.1511,-3.1511,-3.1511,-3.1511,-3.1511,-3.1511,-3.1511,-3.1511,-3.1525,-3.1705,-3.175,0.0,0.0,0.0,-3.4023,0.0,0.0,-4.0574,-4.5537,-4.4626,-4.3423,-4.6872,-4.655,-4.6109,-4.8294,-4.9142,-4.9702,-5.0345,-5.0631,-5.0838,-5.1081,-5.1672,-5.2142,-5.2373,-5.2409,-5.2409,-5.2409,-5.2409,-5.2409,-5.2409,-5.2409,-5.2409,-5.2409,-5.2409,-5.2409,-5.2409,-5.2409,-5.2409,-5.2409,-5.2409,-5.2409,-5.2409,-5.2409,-5.2409,-5.2409,-5.2409,-5.2551,-5.2781,-5.2868,-5.3213,-5.375,-5.4061,-5.4271,-5.4385,-5.4385,-5.4416,-5.4512,-5.4512,-5.4399,-5.4271,-5.4271,-5.4207,-5.4078,0.0,0.0,0.0,0.0,0.0,0.0,0.0,0.0,0.0,0.0,0.0,0.0,-3.283,-3.2438,-3.2047,-3.174,-3.2212,0.0,0.0,0.0,0.0,-3.3993,-3.4499,0.0,-3.4843,-3.5234,-3.5474,-3.5504,0.0,0.0,-3.7659,-3.9559,-4.0397,-4.0277,-3.9709,-3.932,-3.888,-3.6522,-3.5415,-3.525,-3.5295,-3.3753,-3.1511,-3.1511,-3.1511,-3.1511,-3.1511,-3.1511,-3.1511,-3.1511,-3.1511,-3.1615,-3.2243,-3.2437,-3.2587,0.0,0.0,0.0,0.0,-3.8472,0.0,-4.1205,-4.0207,-3.9223,-4.1355,-4.1746,-4.2455,-4.5241,-4.7339,-4.8682,-4.8723,-4.9343,-5.0135,-5.0951,-5.1156,-5.1471,-5.2302,-5.2409,-5.2409,-5.2409,-5.2409,-5.2409,-5.2409,-5.2409,-5.2409,-5.2409,-5.2409,-5.2409,-5.2409,-5.2409,-5.2409,-5.2409,-5.2409,-5.2409,-5.2409,-5.2409,-5.2409,-5.2409,-5.2409,-5.2409,-5.2445,-5.2746,-5.2903,-5.2972,-5.3298,-5.3683,-5.4013,-5.4013,-5.4207,-5.4512,-5.4512,-5.4512,-5.448,-5.448,-5.448,-5.4448,0.0,0.0,0.0,0.0,0.0,0.0,0.0,0.0,0.0,0.0,0.0,0.0,0.0,-3.2644,-3.2539,-3.2712,-3.2917,0.0,0.0,0.0,0.0,-3.3764,-3.3671,-3.3775,-3.4138,-3.3999,-3.3999,0.0,0.0,-3.4861,-3.6836,-3.7554,-3.8781,-4.0516,-4.3254,-4.1893,-3.7674,-3.9679,-3.7564,-3.323,-3.6641,-3.5382,-3.169,-3.3409,-3.4052,-3.3827,-3.2123,-3.2871,-3.4457,-3.2706,-3.2437,-3.2901,-3.3559,-3.3769,-3.3993,-3.5085,-3.5579,-3.6252,-3.8452,0.0,0.0,-4.0613,-3.8945,-3.7389,-4.0673,-4.1422,-4.1693,-4.269,-4.5495,-4.7386,-4.6085,-4.8013,-4.9742,-4.9519,-5.04,-5.1194,-5.1508,-5.2069,-5.2409,-5.2409,-5.2409,-5.2409,-5.2409,-5.2409,-5.2409,-5.2409,-5.1065,-5.0899,-5.2343,-5.1048,-5.0916,-5.2376,-5.2409,-5.2409,-5.2409,-5.2409,-5.2409,-5.2409,-5.2409,-5.2409,-5.2409,-5.2516,-5.2587,-5.2587,-5.2694,-5.3076,-5.365,-5.3898,-5.3931,-5.3815,-5.4078,-5.4192,-5.4192,-5.4192,-5.4321,-5.448,0.0,0.0,0.0,0.0,0.0,0.0,0.0,0.0,0.0,-3.3514,0.0,0.0,0.0,0.0,-3.295,-3.2988,-3.3016,-3.2918,-3.2776,-3.2742,-3.2845,-3.3152,-3.2792,-3.2879,-3.3448,-3.3149,0.0,0.0,0.0,0.0,0.0,-3.6073,-3.7419,-3.9275,-4.3449,-4.3,-3.929,-4.2147,-4.027,-3.5681,-3.8327,-3.728,-3.4246,-3.5175,-3.5639,-3.5684,-3.4545,-3.5175,-3.6357,-3.5459,-3.4861,-3.4651,-3.5552,-3.534,-3.4996,-3.5893,-3.6148,-3.6447,-3.7749,0.0,0.0,0.0,-3.7599,-3.6522,-3.914,-4.0793,-4.1752,-4.1752,-4.4691,-4.689,-4.5559,-4.7297,-4.8872,-4.8641,-4.9519,-5.0477,-5.1043,-5.1598,-5.2053,-5.2373,-5.2409,-5.2409,-5.2409,-5.2409,-5.2409,-5.2409,-5.1032,-5.085,-5.2343,-5.0999,-5.0848,-5.2269,-5.223,-5.2194,-5.2194,-5.2266,-5.2318,-5.2318,-5.2373,-5.2409,-5.2409,-5.2409,-5.2409,-5.2409,-5.2409,-5.2729,-5.323,-5.3534,-5.3517,-5.3433,-5.3683,-5.3799,-5.3799,-5.3948,-5.4143,-5.4335,0.0,0.0,0.0,0.0,0.0,0.0,0.0,0.0,-3.3532,-3.3532,0.0,0.0,0.0,0.0,0.0,-3.2455,-3.2384,-3.2185,-3.1716,-3.157,-3.1749,-3.2256,0.0,0.0,0.0,0.0,0.0,0.0,0.0,0.0,0.0,0.0,-3.6402,-3.6567,-3.9813,-4.2327,-4.4107,-4.3629,-4.3269,-4.2811,-4.0524,-3.9433,-3.8931,-3.6626,-3.6043,-3.6746,-3.8736,-3.8242,-3.7045,-3.9589,-3.8721,-3.6776,-3.7958,-3.706,-3.5564,-3.5564,-3.5549,-3.5534,0.0,0.0,0.0,-3.5504,-3.5983,-3.6462,-3.6492,-3.952,-4.2306,-4.2306,-4.493,-4.7234,-4.7219,-4.7264,-4.7581,-4.8407,-4.8558,-4.9172,-5.08,-5.1081,-5.1397,-5.2266,-5.2373,-5.2409,-5.2409,-5.2409,-5.2409,-5.2409,-5.2359,-5.2307,-5.2409,-5.2373,-5.2318,-5.2102,-5.1904,-5.1815,-5.1815,-5.203,-5.2102,-5.2102,-5.2318,-5.2409,-5.2409,-5.2409,-5.2409,-5.2409,-5.2409,-5.257,-5.2885,-5.2903,-5.3093,-5.3382,-5.3382,-5.3399,-5.3433,-5.3832,-5.398,-5.4063,0.0,0.0,0.0,0.0,0.0,-3.4356,-3.4182,-3.4153,-3.4153,0.0,0.0,0.0,-3.3882,-3.3208,-3.2629,-3.2426,-3.2005,-3.1701,-3.1551,-3.1518,-3.1603,-3.1852,-3.1249,-3.1219,-3.1897,0.0,0.0,0.0,0.0,0.0,0.0,0.0,0.0,0.0,-3.7464,-3.908,-4.0202,-4.291,-4.1025,-3.6731,-4.2716,-4.0509,-3.4231,-3.9224,-3.9215,-3.6806,-3.926,-4.0397,-4.0883,-4.1617,-4.0397,-3.8422,-3.7345,-3.6956,-3.6881,-3.6881,-3.6567,-3.6207,-3.6207,0.0,0.0,0.0,0.0,0.0,-3.6372,-3.8422,-4.0232,-4.0232,-4.3225,-4.5708,-4.5229,-4.6322,-4.7381,-4.7624,-4.8172,-4.8764,-4.9253,-5.0322,-5.1194,-5.1434,-5.2017,-5.2409,-5.2409,-5.2409,-5.2409,-5.2409,-5.0916,-5.0701,-5.2291,-5.2283,-5.2086,-5.1904,-5.1977,-5.203,-5.203,-5.2211,-5.2318,-5.2318,-5.2373,-5.2409,-5.2409,-5.2409,-5.2409,-5.2409,-5.2409,-5.2445,-5.2551,-5.2816,-5.2799,-5.2694,-5.2956,-5.3025,-5.3059,-5.3179,-5.3551,-5.4013,0.0,0.0,0.0,0.0,0.0,-3.4414,-3.4414,-3.4414,-3.4414,0.0,0.0,0.0,-3.332,-3.276,-3.23,-3.2047,-3.1696,-3.1485,-3.1485,-3.1485,-3.1518,-3.1589,-3.1185,-3.1136,-3.1651,-3.1492,-3.1581,0.0,0.0,0.0,0.0,-3.3589,-3.4144,-3.4563,0.0,0.0,-3.7389,-4.0516,-4.0367,-3.8362,-4.2402,-4.1818,-3.8901,-4.2378,-4.2432,-4.0905,-4.3254,-4.4062,-4.4182,-4.5274,-4.3599,-4.0823,-3.9709,-3.8093,-3.6821,-3.7928,-3.721,-3.6073,-3.6073,-3.5804,-3.5504,-3.5504,0.0,0.0,-3.6731,-3.9035,-4.1092,-4.1399,-4.4392,-4.6501,-4.5005,-4.5678,-4.6381,-4.6097,-4.6482,-4.7236,-4.845,-4.9439,-5.0322,-5.1043,-5.1545,-5.198,-5.2373,-5.2409,-5.2409,-5.2409,-5.1197,-5.0997,-5.2217,-5.2086,-5.1868,-5.1684,-5.1721,-5.1758,-5.1847,-5.205,-5.2194,-5.2283,-5.2354,-5.2409,-5.2409,-5.2409,-5.2409,-5.2409,-5.2409,-5.2409,-5.2409,-5.2605,-5.2587,-5.2409,-5.2605,-5.2676,-5.2711,-5.2834,-5.3179,-5.3584,0.0,0.0,-3.4264,-3.438,-3.4414,-3.4414,-3.4414,-3.4414,-3.438,0.0,-3.4088,-3.3482,-3.2503,-3.2412,-3.2188,-3.164,-3.1527,-3.1485,-3.1485,-3.1485,-3.1485,-3.1485,-3.1485,-3.1622,-3.186,-3.223,-3.2596,0.0,0.0,0.0,0.0,0.0,-3.4623,-3.4653,0.0,0.0,-3.5609,-3.7255,-4.0157,-4.3449,-4.104,-4.306,-4.7324,-4.5544,-4.5289,-4.6202,-4.8536,-4.8102,-4.6743,-4.9075,-4.7146,-4.3633,-4.305,-3.9753,-3.6432,-3.8372,-3.7375,-3.5594,-3.5534,-3.5504,-3.5504,-3.5504,-3.5953,0.0,-3.7255,-4.0106,-4.2886,-4.3808,-4.6337,-4.7727,-4.5394,-4.4975,-4.4751,-4.4092,-4.4013,-4.5012,-4.7737,-4.8378,-4.9119,-5.0478,-5.0935,-5.1434,-5.2302,-5.2409,-5.2409,-5.2409,-5.2409,-5.2302,-5.2066,-5.1904,-5.1721,-5.1462,-5.1296,-5.1333,-5.1536,-5.1721,-5.1941,-5.2139,-5.2302,-5.2409,-5.2409,-5.2409,-5.2409,-5.2409,-5.2409,-5.2409,-5.2409,-5.2409,-5.2409,-5.2409,-5.2409,-5.2409,-5.2461,-5.2746,-5.2868,-5.2938,0.0,-3.3192,-3.3451,-3.4264,-3.4414,-3.4414,-3.4414,-3.4414,-3.4346,-3.4162,-3.3868,-3.333,-3.2503,-3.2412,-3.2356,-3.223,-3.178,-3.1485,-3.1485,-3.1485,-3.1485,-3.1485,-3.1485,-3.157,-3.174,-3.1907,-3.2148,-3.237,0.0,0.0,0.0,0.0,0.0,-3.531,0.0,0.0,-3.5489,-3.5325,-3.6911,-3.9813,-4.291,-4.3584,-4.3135,-4.6918,-4.6199,-4.3733,-4.8386,-4.879,-4.7189,-4.7698,-4.7279,-4.5783,-4.1496,-3.9843,-3.902,-3.6896,-3.6282,-3.6178,-3.5654,-3.5504,-3.5504,-3.5504,-3.5609,0.0,-3.715,-3.8018,-3.9215,-4.1489,-4.25,-4.2965,-4.2965,-4.298,-4.2755,-4.2058,-4.2365,-4.3275,-4.4926,-4.7134,-4.8388,-4.7792,-4.9716,-5.1434,-5.2302,-5.2409,-5.2409,-5.2409,-5.2409,-5.223,-5.1904,-5.1815,-5.1631,-5.1258,-5.1387,-5.1536,-5.1741,-5.1941,-5.2139,-5.2354,-5.2373,-5.2409,-5.2409,-5.2409,-5.2409,-5.2409,-5.2409,-5.2409,-5.2409,-5.2409,-5.2409,-5.2409,-5.2409,-5.2409,-5.2426,-5.248,-5.2676,-5.2903,-3.201,-3.2205,-3.2349,-3.2861,-3.3346,-3.3638,-3.3638,-3.4079,-3.4346,-3.4264,-3.3951,-3.3413,-3.2503,-3.2412,-3.2412,-3.2412,-3.2117,-3.2075,-3.2384,-3.2412,-3.2412,-3.2412,-3.2412,-3.2432,-3.2486,-3.2729,-3.2897,-3.3011,0.0,0.0,0.0,0.0,0.0,-3.5504,0.0,0.0,-3.5489,-3.513,-3.6507,-3.917,-4.2147,-4.3539,-4.4287,-4.8237,-4.8506,-4.713,-4.9778,-5.0092,-4.9105,-4.8132,-4.7578,-4.6845,-4.4182,-4.1773,-3.9589,-3.7943,-3.6761,-3.5923,-3.5594,-3.5504,-3.5504,-3.5504,-3.5504,0.0,0.0,-3.7704,-3.8975,-4.0965,-4.2162,-4.2641,-4.2036,-4.1647,-4.1175,-4.0502,-4.0375,-4.0698,-4.1713,-4.4793,-4.7274,-4.8234,-4.9576,-5.0783,-5.1672,-5.2142,-5.2354,-5.2247,-5.2338,-5.2194,-5.1684,-5.1758,-5.1631,-5.1221,-5.1387,-5.161,-5.1778,-5.1977,-5.2211,-5.2409,-5.2409,-5.2409,-5.2409,-5.2409,-5.2409,-5.2409,-5.2409,-5.2409,-5.2409,-5.2409,-5.2409,-5.2409,-5.2409,-5.2409,-5.2409,-5.2409,-5.2516,-5.264,-3.1018,-3.1204,-3.1278,-3.1462,-3.2132,-3.267,-3.2861,-3.3604,-3.4119,-3.4172,-3.3934,-3.3575,-3.303,-3.2756,-3.279,-3.3156,-3.3297,-3.3368,-3.3361,-3.3761,-3.3817,-3.3304,-3.329,-3.329,-3.329,-3.3577,-3.3716,-3.375,-3.4452,0.0,0.0,0.0,0.0,-3.5504,0.0,0.0,0.0,-3.6267,-3.7778,-4.027,-4.1878,-4.3823,-4.6055,-4.9194,-5.0405,-5.0526,-5.1035,-5.1214,-5.09,-4.8805,-4.7743,-4.7219,-4.6696,-4.3344,-3.9589,-3.9454,-3.7659,-3.5669,-3.5549,-3.5504,-3.5504,-3.5504,-3.5504,-3.5684,0.0,0.0,0.0,-4.0531,-4.2073,-4.2686,-4.11,-4.0367,-3.9753,-3.8975,-3.8572,-3.8618,-3.918,-4.2165,-4.5294,-4.7912,-4.8558,-4.9116,-4.9981,-5.1109,-5.1855,-5.2069,-5.2283,-5.2122,-5.1536,-5.1684,-5.1631,-5.1221,-5.135,-5.1573,-5.1778,-5.1941,-5.2158,-5.2409,-5.2409,-5.2409,-5.2409,-5.2409,-5.2409,-5.2409,-5.2409,-5.2409,-5.2409,-5.2409,-5.2409,-5.2409,-5.2409,-5.2409,-5.2409,-5.2409,-5.2409,-5.2409,-2.9948,-3.0177,-3.0468,-3.1352,-3.1573,-3.1938,-3.2791,-3.3017,-3.3149,-3.3331,-3.3354,-3.3811,-3.4949,-3.4087,-3.4122,-3.5815,-3.6415,-3.5835,-3.3712,-3.5474,-3.5602,-3.3389,-3.329,-3.329,-3.329,-3.3361,-3.3452,-3.3605,-3.4176,0.0,0.0,0.0,0.0,-3.5504,-3.5504,-3.6806,-3.894,-3.894,-4.0449,-4.3065,-4.5618,-4.5469,-4.4272,-4.9224,-4.9703,-4.8057,-5.0391,-5.1214,-5.0825,-4.8282,-4.7369,-4.689,-4.4485,-4.2177,-4.0172,-3.9553,-3.7973,-3.6252,-3.5669,-3.5504,-3.5504,-3.5504,-3.5504,-3.5684,-3.6342,0.0,-3.718,-3.8467,0.0,-3.899,-3.8766,0.0,0.0,-3.7015,-3.7706,-3.8482,-3.8738,-3.9929,-4.1227,-4.2394,-4.4057,-4.5452,-4.6335,-4.8249,-5.0183,-5.1954,-5.2283,-5.2122,-5.1536,-5.1684,-5.1631,-5.1221,-5.1221,-5.1408,-5.1794,-5.1815,-5.2013,-5.2409,-5.2409,-5.2409,-5.2409,-5.2409,-5.2409,-5.2409,-5.2409,-5.2409,-5.2409,-5.2409,-5.2409,-5.2409,-5.2409,-5.2409,-5.2409,-5.2409,-5.2409,-5.2409,-2.9067,-2.9133,-2.9433,-3.0468,-3.0606,-3.0944,-3.1938,-3.2528,-3.2848,-3.2751,-3.3268,-3.432,-3.6123,-3.5869,-3.6461,-3.8688,-3.9125,-3.8829,-3.7786,-3.7374,-3.6644,-3.5489,-3.4192,-3.3466,-3.3466,-3.3466,-3.357,-3.3793,-3.4176,-3.4448,0.0,0.0,0.0,-3.5326,-3.5326,-3.6854,-3.9388,-3.9388,-4.0898,-4.3394,-4.4515,-4.4347,-4.3958,-4.9224,-5.0541,-4.9568,-4.9538,-5.0242,-5.0631,-4.6845,-4.7354,-4.885,-4.4605,-4.2791,-4.2087,-4.1803,-3.8975,-3.6193,-3.7434,-3.7778,-3.7778,-3.7778,-3.7778,-3.7853,-3.8123,-3.7015,-3.6282,-3.7554,0.0,0.0,0.0,0.0,0.0,0.0,-3.7443,-3.7302,-3.7355,-3.7389,-3.8445,-4.1199,-4.296,-4.4919,-4.7489,-4.7007,-4.7539,-4.9871,-4.9951,-4.9747,-4.9466,-5.0961,-5.1631,-5.1221,-5.1296,-5.152,-5.1778,-5.1904,-5.2122,-5.2409,-5.2409,-5.2409,-5.2409,-5.2409,-5.2409,-5.2409,-5.2409,-5.2409,-5.2409,-5.2409,-5.2409,-5.2409,-5.2409,-5.2409,-5.2409,-5.2409,-5.2409,-5.2409,-2.851,-2.851,-2.8736,-2.9471,-2.9575,-2.9909,-3.0944,-3.2566,-3.3679,-3.3606,-3.3991,-3.5231,-3.7695,-3.6954,-3.7451,-4.028,-4.0844,-4.097,-4.0801,-3.9166,-3.8164,-3.8004,-3.5108,-3.3861,-3.4611,-3.3959,-3.3709,-3.3951,-3.4244,-3.4414,0.0,0.0,0.0,-3.5115,-3.518,-3.6737,-3.9346,-4.0151,-4.1974,-4.4441,-4.5158,-4.5514,-4.5873,-4.897,-5.0601,-5.1035,-4.9598,-5.0002,-5.0601,-4.6516,-4.7369,-4.9479,-4.5592,-4.3943,-4.3539,-4.4257,-4.1235,-3.8063,-3.9941,-4.0449,-4.0285,-3.9568,-3.9388,-3.9194,-3.8512,-3.6866,-3.5818,-3.6926,-3.7285,0.0,0.0,0.0,-3.8601,-3.8422,0.0,-3.6542,-3.598,-3.5444,-3.6341,-3.9658,-4.1753,-4.3921,-4.6463,-4.5483,-4.5458,-4.7241,-4.7737,-4.7983,-4.8067,-5.0399,-5.1557,-5.1296,-5.1387,-5.1536,-5.1778,-5.1941,-5.2158,-5.2409,-5.2409,-5.2409,-5.2409,-5.2409,-5.2266,-5.2053,-5.2053,-5.1908,-5.1692,-5.1692,-5.1692,-5.1692,-5.1692,-5.1692,-5.1745,-5.2214,-5.2409,-5.2409,-2.851,-2.851,-2.851,-2.855,-2.855,-2.8882,-2.9871,-3.3263,-3.5959,-3.6576,-3.5827,-3.6592,-3.9989,-3.6907,-3.6075,-3.9783,-4.1213,-4.1594,-4.1043,-4.0745,-4.0575,-4.0575,-3.5911,-3.4508,-3.7133,-3.4838,-3.3764,-3.4094,-3.4312,-3.4481,0.0,0.0,0.0,-3.4935,-3.5115,-3.6669,-3.9268,-4.2002,-4.4695,-4.7399,-4.9942,-5.0975,-5.0705,-4.8327,-4.9015,-5.1214,-5.1154,-5.1169,-5.081,-4.8117,-4.7309,-4.7399,-4.7234,-4.5439,-4.3898,-4.6441,-4.5244,-4.3065,-4.314,-4.317,-4.2557,-4.0016,-3.9388,-3.8751,-3.6207,-3.5564,-3.5699,-3.6372,-3.6985,-3.7614,-3.8302,-3.8945,-3.917,-3.8497,-3.7843,0.0,0.0,-3.4421,-3.4834,-3.6201,-3.9396,-4.1264,-4.0741,-4.3127,-4.4599,-4.4356,-4.6421,-4.79,-4.826,-5.0326,-5.1499,-5.1499,-5.1312,-5.1408,-5.1794,-5.1815,-5.2013,-5.2409,-5.2409,-5.2409,-5.2409,-5.2409,-5.1944,-5.1156,-5.1156,-5.0669,-4.9884,-4.9884,-4.9884,-4.9884,-4.9884,-4.9884,-5.0096,-5.1782,-5.2409,-5.2409,-2.8715,-2.851,-2.8697,-2.9394,-2.8961,-2.8618,-2.8949,-3.1267,-3.3517,-3.5144,-3.6348,-3.8629,-4.2638,-4.2034,-4.1793,-4.3053,-4.4875,-4.5284,-4.3559,-4.3387,-4.3296,-4.316,-4.0111,-3.8099,-3.751,-3.6669,-3.5611,-3.4312,-3.438,-3.4414,0.0,0.0,0.0,0.0,-3.4968,-3.6585,-3.948,-4.2213,-4.49,-4.7384,-4.8267,-4.8626,-4.8716,-4.9568,-5.0451,-5.1214,-5.1214,-5.1214,-5.081,-4.8192,-4.8461,-4.9598,-4.7848,-4.6696,-4.6501,-4.9119,-4.6743,-4.3678,-4.5484,-4.5963,-4.5738,-4.4855,-4.3275,-4.1735,-4.0853,-3.7988,-3.5804,-3.6881,-3.6941,-3.727,-3.8796,-3.8886,-3.8811,-3.9035,-3.8116,-3.6878,0.0,-3.3933,-3.3213,-3.3623,-3.6139,-3.8692,-4.0845,-4.0216,-4.058,-4.2769,-4.321,-4.361,-4.4085,-4.7598,-4.9507,-4.9313,-5.0807,-5.1668,-5.1778,-5.1941,-5.1851,-5.1545,-5.1545,-5.1231,-5.0691,-5.0691,-5.0538,-5.0229,-5.0229,-5.0057,-4.9805,-4.9805,-4.9805,-4.9805,-4.9805,-4.9805,-4.9884,-5.0445,-5.1048,-5.1635,-2.8823,-2.851,-2.8697,-2.9355,-2.9211,-2.9178,-2.9603,-3.153,-3.3967,-3.6823,-3.8143,-4.0252,-4.4128,-4.4005,-4.3924,-4.4541,-4.5411,-4.5884,-4.5924,-4.3576,-4.3234,-4.5619,-4.1832,-3.9837,-4.0131,-3.846,-3.7419,-3.6996,-3.523,-3.4864,-3.5735,0.0,0.0,0.0,-3.4868,-3.5965,-3.8031,-4.1825,-4.4362,-4.6022,-4.7189,-4.8072,-4.8805,-4.9808,-5.0616,-5.1214,-5.1214,-5.1214,-5.096,-4.9269,-4.9823,-5.093,-4.9224,-4.8701,-4.903,-5.072,-4.8761,-4.6474,-4.8237,-4.8701,-4.8461,-4.7534,-4.6022,-4.4456,-4.3514,-4.0674,-3.8527,-3.9364,-3.9394,-3.9439,-4.0008,-3.9948,-3.9723,-3.9469,-3.8093,-3.6462,0.0,-3.3467,-3.2659,-3.2428,-3.5048,-3.7462,-3.9007,-3.8636,-3.897,-4.0649,-4.1049,-4.1469,-4.2075,-4.5929,-4.8207,-4.8415,-5.0017,-5.1059,-5.145,-5.1285,-5.0989,-5.0631,-5.0631,-5.0345,-4.9805,-4.9805,-4.9647,-4.9383,-4.9383,-4.9181,-4.8913,-4.8913,-4.8913,-4.8913,-4.8913,-4.8913,-4.8979,-4.9583,-5.0345,-5.1194,-2.8859,-2.8522,-2.851,-2.851,-2.9376,-3.049,-3.1654,-3.4058,-3.7188,-4.1284,-4.1031,-4.1594,-4.4535,-4.313,-4.2601,-4.4134,-4.289,-4.3698,-4.7502,-4.1624,-4.1014,-4.7811,-4.1508,-3.9996,-4.4591,-4.0288,-3.919,-4.1662,-3.691,-3.5801,-3.8107,0.0,0.0,0.0,-3.4735,-3.4902,-3.5274,-4.0979,-4.3479,-4.3898,-4.689,-4.9284,-5.087,-4.897,-4.9479,-5.1214,-5.1214,-5.1214,-5.1214,-5.1214,-5.1214,-5.1214,-5.1214,-5.1214,-5.1214,-5.1214,-5.1214,-5.1214,-5.1214,-5.1214,-5.0616,-4.8117,-4.7399,-4.6636,-4.4067,-4.3394,-4.3319,-4.3419,-4.3868,-4.3718,-4.1908,-4.2021,-4.1752,-3.9858,-3.7838,-3.5594,-3.3021,-3.3088,-3.3185,-3.2567,-3.59,-3.7431,-3.5364,-3.8251,-3.9642,-3.8177,-3.9923,-4.142,-4.2265,-4.527,-4.751,-4.8757,-4.8939,-4.9552,-5.0783,-4.9828,-4.9512,-4.9726,-4.9726,-4.9742,-4.9686,-4.9686,-4.9262,-4.8532,-4.8532,-4.8061,-4.7309,-4.7309,-4.7309,-4.7309,-4.7309,-4.7309,-4.7495,-4.9141,-5.0252,-5.0989,-2.9412,-2.8775,-2.851,-2.851,-3.0046,-3.173,-3.3076,-3.5774,-3.8519,-4.0777,-4.288,-4.4464,-4.5383,-4.6414,-4.5769,-4.2653,-4.3549,-4.3944,-4.3115,-4.2943,-4.4432,-4.7965,-4.6342,-4.5143,-4.4719,-4.3491,-4.2407,-4.1396,-3.8404,-3.7267,-3.7866,0.0,0.0,0.0,0.0,-3.4883,-3.5489,-4.0903,-4.4657,-4.6935,-4.5798,-4.6815,-4.8925,-4.7938,-4.9075,-5.1214,-5.1214,-5.1214,-5.1214,-5.1214,-5.1214,-5.1214,-5.1214,-5.1214,-5.1214,-5.1214,-5.1214,-5.1214,-5.1214,-5.1214,-5.105,-5.0376,-4.8745,-4.713,-4.6441,-4.4781,-4.3509,-4.3973,-4.3823,-4.3693,-4.4212,-4.2836,-4.1662,-4.1647,-3.8756,-3.6073,-3.4906,-3.4028,-3.3576,-3.3846,-3.521,-3.6046,-3.593,-3.714,-3.8245,-3.8914,-3.9232,-4.029,-4.2332,-4.3066,-4.5065,-4.8709,-4.6977,-4.7545,-5.0767,-4.8646,-4.8019,-4.8913,-4.8913,-4.8558,-4.7934,-4.7934,-4.7822,-4.7624,-4.7624,-4.7495,-4.7309,-4.7309,-4.7309,-4.7309,-4.7309,-4.7309,-4.7424,-4.8532,-4.9035,-4.9318,-2.9316,-2.8715,-2.851,-2.851,-3.1559,-3.4257,-3.5091,-3.7282,-3.9957,-4.3182,-4.4935,-4.6228,-4.7022,-4.8154,-4.7766,-4.4924,-4.4012,-4.3853,-4.4396,-4.2808,-4.3832,-4.8261,-4.7377,-4.6195,-4.4918,-4.4751,-4.4149,-4.2951,-3.949,-3.8375,-3.9406,0.0,0.0,0.0,0.0,-3.4831,-3.5422,-4.0774,-4.501,-4.7955,-4.6336,-4.7182,0.0,-4.8015,-4.9089,-5.1214,-5.1214,-5.1214,-5.1214,-5.1214,-5.1214,-5.1214,-5.1214,-5.1214,-5.1214,-5.1214,-5.1214,-5.1214,-5.1214,-5.1214,-5.1214,-5.1214,-5.0107,-4.9015,-4.9015,-4.7878,-4.692,-4.7264,-4.6997,-4.6698,-4.6621,-4.4676,-4.259,-4.0928,-3.8766,-3.6985,-3.6073,-3.6028,-3.5769,-3.4987,-3.6146,-3.692,-3.6742,-3.7245,-3.8063,-3.9216,-3.9121,-3.9622,-4.1028,-4.2378,-4.4034,-4.5972,-4.5759,-4.6272,-4.7636,-4.5824,-4.5509,-4.6722,-4.6722,-4.6917,-4.7309,-4.7309,-4.7309,-4.7309,-4.7309,-4.7309,-4.7309,-4.7309,-4.7309,-4.7309,-4.7309,-4.7538,-4.7892,-4.7976,-4.8282,-4.8641,-2.8943,-2.851,-2.8595,-2.8871,-3.3196,-3.6865,-3.7565,-3.9289,-4.2066,-4.6542,-4.688,-4.7205,-4.8416,-4.8702,-4.8617,-4.8077,-4.441,-4.3797,-4.7779,-4.241,-4.2005,-4.8545,-4.6776,-4.562,-4.562,-4.5326,-4.5326,-4.5574,-4.0637,-3.9412,-4.1547,0.0,0.0,0.0,0.0,0.0,-3.6197,-4.0763,-4.4679,-4.7807,-4.7628,-4.8693,-5.0226,-4.8832,-4.9475,-5.1167,-5.1167,-5.1167,-5.1214,-5.1214,-5.1214,-5.1214,-5.1214,-5.1214,-5.1214,-5.1214,-5.1214,-5.1214,-5.1214,-5.1214,-5.1214,-5.1214,-5.1214,-5.1214,-5.1214,-5.1214,-5.1214,-5.1214,-5.1214,-5.069,-4.8985,-4.6815,-4.3898,-3.9604,-3.8616,-3.8003,-3.6896,-3.8362,-3.8672,-3.6305,-3.8132,0.0,-3.7921,-3.8036,-3.851,-3.9249,-3.9272,-3.9388,-3.9713,-4.2309,-4.3487,-4.2835,-4.4685,-4.5126,-4.4022,-4.2783,-4.3085,-4.4854,-4.4477,-4.5364,-4.7309,-4.7309,-4.7309,-4.7309,-4.7309,-4.7309,-4.7309,-4.7309,-4.7309,-4.7309,-4.7309,-4.7822,-4.849,-4.7737,-4.8019,-4.8723,-2.9015,-2.851,-2.9063,-3.085,-3.304,-3.6154,-4.0696,-4.4125,-4.6279,-4.6591,-4.7686,-4.7972,-4.6743,-4.7757,-4.7807,-4.5855,-4.4978,-4.4744,-4.5331,-4.4445,-4.5306,-4.8439,-4.8332,-4.8238,-4.8238,-4.7992,-4.7843,-4.7893,-4.3063,-4.0925,-4.1281,-3.6591,0.0,0.0,0.0,0.0,-4.1106,-4.1077,-4.3602,-4.7598,-4.7762,-4.7925,-4.8232,-4.9719,-5.051,-5.0855,-5.0855,-5.1011,-5.1214,-5.1214,-5.1214,-5.1214,-5.1214,-5.1214,-5.1214,-5.1214,-5.1214,-5.1214,-5.1214,-5.1214,-5.1214,-5.1214,-5.1214,-5.1214,-5.1214,-5.1214,-5.1214,-5.1214,-5.1214,-5.1109,-5.0765,-4.7743,-4.4496,-4.2096,-3.985,-3.8302,-3.8093,-3.9305,-3.9839,-3.884,-4.0571,-4.1326,-4.0008,-3.8867,-3.851,-3.9249,-3.9148,-3.9897,-4.1827,-4.0692,-4.1364,-4.438,-4.2475,-4.2958,-4.6285,-4.3155,-4.3659,-4.7814,-4.5449,-4.5364,-4.7309,-4.7309,-4.7309,-4.7309,-4.7309,-4.7309,-4.7309,-4.7309,-4.7309,-4.7309,-4.7309,-4.7822,-4.8573,-4.8407,-4.8872,-4.9383,-3.0398,-2.9256,-2.8919,-3.0218,-3.3906,-3.7638,-4.0408,-4.4686,-4.767,-4.7942,-4.8632,-4.87,-4.7686,-4.8239,-4.8212,-4.6969,-4.5769,-4.5537,-4.6625,-4.5694,-4.6187,-4.8582,-4.8695,-4.8147,-4.6947,-4.7978,-4.7907,-4.6727,-4.3224,-4.1522,-4.1407,-3.6627,-3.4414,-3.4472,0.0,-3.8101,-4.1226,-4.2555,-4.4531,-4.6988,-4.8132,-4.8635,-4.8784,-4.9993,-5.0585,-5.0807,-5.0807,-5.0964,-5.1214,-5.1214,-5.1214,-5.1214,-5.1214,-5.1214,-5.1214,-5.1214,-5.1214,-5.1214,-5.1214,-5.1214,-5.1214,-5.1214,-5.1214,-5.1214,-5.1214,-5.1214,-5.1214,-5.1214,-5.1214,-5.09,-4.9883,-4.8132,-4.6202,-4.4252,-4.1991,-4.0479,-4.0479,-4.1048,-4.1302,-4.0974,-4.2685,-4.3384,-4.2077,-4.0657,-3.9661,-3.9328,-3.9202,-3.9638,-4.0779,-4.0512,-4.1173,-4.299,-4.236,-4.2818,-4.4502,-4.275,-4.3388,-4.6355,-4.4955,-4.5364,-4.7309,-4.7309,-4.7309,-4.7309,-4.7309,-4.7309,-4.7309,-4.7309,-4.7309,-4.7337,-4.7822,-4.849,-4.9222,-4.9222,-4.9742,-5.0306,-3.2469,-3.1043,-3.0134,-3.0999,-3.5353,-3.9095,-4.0169,-4.3864,-4.7077,-4.8674,-4.8781,-4.8681,-4.8481,-4.8595,-4.8489,-4.7928,-4.6579,-4.6182,-4.7234,-4.6372,-4.6524,-4.814,-4.8432,-4.7722,-4.5963,-4.7587,-4.763,-4.5826,-4.3482,-4.2037,-4.1318,-3.7189,-3.5276,-3.5392,-3.7861,-3.9765,-4.1295,-4.4233,-4.6024,-4.708,-4.8735,-4.9488,-4.9732,-4.999,-5.0313,-5.0665,-5.0728,-5.0917,-5.1135,-5.1332,-5.1334,-5.1214,-5.1214,-5.1214,-5.1214,-5.1214,-5.1214,-5.1214,-5.1214,-5.1214,-5.1214,-5.1214,-5.1214,-5.1214,-5.1214,-5.1214,-5.1214,-5.1214,-5.1214,-5.075,-4.9194,-4.8566,-4.7623,-4.5618,-4.3683,-4.2246,-4.1826,-4.2241,-4.2612,-4.2612,-4.422,-4.4816,-4.3521,-4.2153,-4.0783,-3.9399,-3.9051,-3.9139,-3.9699,-4.0365,-4.0818,-4.1083,-4.2145,-4.2669,-4.2572,-4.2414,-4.335,-4.5413,-4.4937,-4.5783,-4.7728,-4.7728,-4.7728,-4.7728,-4.7728,-4.7728,-4.7728,-4.7728,-4.7829,-4.8074,-4.8753,-4.9618,-5.0462,-5.0462,-5.089,-5.1383,-3.4955,-3.457,-3.4859,-3.6831,-3.732,-3.8723,-4.2363,-4.301,-4.4094,-4.7035,-4.7205,-4.705,-4.6998,-4.7722,-4.7531,-4.5991,-4.706,-4.6546,-4.3633,-4.6398,-4.7538,-4.6044,-4.7848,-4.8745,-4.8552,-4.8518,-4.8382,-4.8191,-4.5662,-4.3043,-4.0386,-3.8842,-3.811,-3.8225,-4.0711,-4.2866,-4.4695,-4.5535,-4.7153,-4.9061,-4.9464,-4.9683,-4.9732,-4.999,-5.0135,-5.0183,-5.0438,-5.0647,-5.0959,-5.1807,-5.1708,-5.1214,-5.1214,-5.1214,-5.1214,-5.1214,-5.1214,-5.1214,-5.1214,-5.1214,-5.1214,-5.1214,-5.1214,-5.1214,-5.1214,-5.1214,-5.1214,-5.1214,-5.1214,-5.1154,-5.0975,-4.9494,-4.7623,-4.5618,-4.3683,-4.1767,-3.9948,-4.1787,-4.3308,-4.3308,-4.4591,-4.4915,-4.3532,-4.2237,-4.0872,-3.9421,-3.8215,-3.861,-4.099,-3.901,-3.8584,-4.0339,-4.0018,-4.0994,-4.3441,-4.2755,-4.4603,-4.9006,-4.7048,-4.7174,-4.912,-4.912,-4.912,-4.912,-4.912,-4.912,-4.912,-4.912,-4.9564,-5.0316,-5.0386,-5.1371,-5.2692,-5.2692,-5.2679,-5.2674,-3.7258,-3.6061,-3.5392,-3.6413,-3.789,-3.9588,-4.137,-4.2409,-4.3381,-4.4472,-4.5913,-4.6739,-4.6583,-4.7466,-4.7825,-4.7151,-4.7734,-4.7502,-4.6109,-4.744,-4.7933,-4.7186,-4.7963,-4.8409,-4.8409,-4.8445,-4.8481,-4.8481,-4.4961,-4.2635,-4.1454,-3.9415,-3.9273,-4.0827,-4.2803,-4.4333,-4.5454,-4.6747,-4.778,-4.8624,-4.9044,-4.9242,-4.9291,-4.9683,-5.0174,-5.0657,-5.0769,-5.1199,-5.1861,-5.2371,-5.2207,-5.1872,-5.2276,-5.2396,-5.2321,-5.1917,-5.1813,-5.1723,-5.1334,-5.1214,-5.1214,-5.1214,-5.1214,-5.1214,-5.1214,-5.1214,-5.1214,-5.1214,-5.1214,-5.1214,-5.1214,-5.0571,-4.9523,-4.7938,-4.6723,-4.5364,-4.3793,-4.4108,-4.4971,-4.6195,-4.5749,-4.5796,-4.6848,-4.3602,-4.1538,-4.1734,-3.9771,-3.8853,-3.9512,-3.9672,-4.0712,-4.2863,-4.217,-4.367,-4.776,-4.5769,-4.6281,-4.9352,-4.8503,-4.8506,-4.9314,-4.9314,-4.9314,-4.9314,-4.9314,-4.9314,-4.9314,-4.9314,-4.9419,-4.9701,-5.0789,-5.1492,-5.2071,-5.3138,-5.3498,-5.3444,-3.9489,-3.8153,-3.7076,-3.7244,-3.8988,-4.0327,-4.0028,-4.1517,-4.2444,-4.1749,-4.3994,-4.5714,-4.582,-4.7195,-4.7895,-4.7383,-4.7811,-4.7656,-4.6623,-4.7516,-4.783,-4.7283,-4.7839,-4.812,-4.812,-4.8308,-4.8395,-4.8395,-4.5468,-4.3558,-4.2649,-4.0871,-4.1142,-4.3199,-4.4912,-4.5938,-4.6403,-4.7608,-4.817,-4.8272,-4.8909,-4.9231,-4.9345,-4.993,-5.0575,-5.1181,-5.1181,-5.1672,-5.2347,-5.2837,-5.2832,-5.2733,-5.3099,-5.3174,-5.3099,-5.2621,-5.2486,-5.2351,-5.1693,-5.1513,-5.1468,-5.1274,-5.1214,-5.1214,-5.1214,-5.1214,-5.1214,-5.1214,-5.1214,-5.1214,-5.1214,-5.1214,-5.0735,-4.9224,-4.8596,-4.7758,-4.6232,-4.5812,-4.6139,-4.7562,-4.6154,-4.5941,-4.8201,-4.4522,-4.2301,-4.304,-4.1314,-3.9924,-3.9279,-4.0031,-4.1469,-4.3639,-4.2323,-4.3898,-4.8686,-4.6713,-4.7025,-4.9553,-4.9748,-4.9838,-4.9838,-4.9838,-4.9838,-4.9838,-4.9838,-4.9838,-4.9838,-4.9777,-4.9959,-5.0425,-5.165,-5.2272,-5.273,-5.3983,-5.4293,-5.4036,-4.1627,-4.1341,-4.1112,-4.1112,-4.1182,-4.0676,-3.9056,-4.0162,-4.0676,-3.9056,-4.1249,-4.3373,-4.4522,-4.6701,-4.7411,-4.5765,-4.7137,-4.6623,-4.3208,-4.618,-4.7241,-4.5388,-4.7087,-4.812,-4.812,-4.812,-4.812,-4.812,-4.8064,-4.656,-4.3701,-4.3673,-4.4198,-4.5366,-4.7235,-4.8078,-4.8092,-4.812,-4.8258,-4.8588,-4.9508,-5.0069,-5.0364,-5.0932,-5.133,-5.1599,-5.1599,-5.1751,-5.2155,-5.3053,-5.3577,-5.3694,-5.3335,-5.3174,-5.3174,-5.3174,-5.3174,-5.3025,-5.2366,-5.2187,-5.2037,-5.1379,-5.1214,-5.1214,-5.1214,-5.1214,-5.1214,-5.1214,-5.1214,-5.1214,-5.1214,-5.1214,-5.0571,-4.8611,-4.8297,-4.7593,-4.5589,-4.5946,-4.6351,-4.6346,-4.5264,-4.5002,-4.6209,-4.4543,-4.3121,-4.2458,-4.2389,-4.204,-4.1316,-3.9521,-3.9382,-4.1275,-3.8817,-3.9687,-4.4343,-4.4323,-4.6322,-5.0196,-5.0838,-5.1199,-5.1199,-5.1199,-5.1199,-5.1199,-5.1199,-5.1199,-5.1152,-5.0887,-5.1911,-5.3605,-5.3384,-5.4274,-5.5766,-5.5766,-5.519,-5.4429,-3.9146,-4.0616,-4.1617,-4.0018,-4.072,-4.122,-4.0567,-4.086,-4.1004,-4.0499,-4.1873,-4.3581,-4.5372,-4.6393,-4.7063,-4.7263,-4.6735,-4.6664,-4.7348,-4.7354,-4.7878,-4.9023,-4.7978,-4.7531,-4.7928,-4.691,-4.6601,-4.7101,-4.6469,-4.5703,-4.4781,-4.4781,-4.5681,-4.7213,-4.7802,-4.812,-4.8148,-4.8788,-4.911,-4.9254,-5.034,-5.0714,-5.0677,-5.1069,-5.1414,-5.1646,-5.1646,-5.2142,-5.2845,-5.3308,-5.3663,-5.3943,-5.4209,-5.4401,-5.4461,-5.4012,-5.3877,-5.3743,-5.3054,-5.2875,-5.271,-5.2052,-5.1887,-5.1768,-5.1319,-5.1214,-5.1214,-5.1214,-5.1214,-5.1214,-5.1214,-5.1214,-5.072,-4.9194,-4.9703,-4.9748,-4.8266,-4.8216,-4.8379,-4.8356,-4.6788,-4.6429,-4.8161,-4.6112,-4.4614,-4.4402,-4.3583,-4.2583,-4.1421,-4.2492,-4.4133,-4.6265,-4.5374,-4.6456,-4.9919,-4.7996,-4.8327,-5.0868,-5.1124,-5.1214,-5.1214,-5.1214,-5.1214,-5.1214,-5.1214,-5.1214,-5.1167,-5.112,-5.1324,-5.185,-5.2903,-5.3533,-5.4024,-5.5106,-5.532,-5.5086,-3.9535,-4.0916,-4.1879,-4.0471,-4.1062,-4.1525,-4.076,-4.114,-4.131,-4.0704,-4.1965,-4.3575,-4.5288,-4.6248,-4.7356,-4.8999,-4.8162,-4.8248,-4.989,-4.8995,-4.9138,-5.0746,-4.9266,-4.8609,-4.8981,-4.8062,-4.7779,-4.8191,-4.7645,-4.7348,-4.7348,-4.7348,-4.7985,-4.9102,-4.9102,-4.9102,-4.913,-4.9731,-4.9953,-4.9921,-5.0984,-5.1241,-5.1024,-5.1409,-5.179,-5.2042,-5.1921,-5.2405,-5.3121,-5.3266,-5.3605,-5.3956,-5.4348,-5.4722,-5.4968,-5.465,-5.4581,-5.4431,-5.3758,-5.3563,-5.3339,-5.2426,-5.2202,-5.2022,-5.1364,-5.1214,-5.1214,-5.1214,-5.1214,-5.1214,-5.1214,-5.1214,-5.096,-5.0122,-5.069,-5.093,-5.0122,-4.9614,-4.9314,-4.9314,-4.7519,-4.71,-4.912,-4.7549,-4.6426,-4.6426,-4.4986,-4.4083,-4.3998,-4.4374,-4.544,-4.7363,-4.7262,-4.8394,-5.0951,-4.9192,-4.9269,-5.1214,-5.1214,-5.1214,-5.1214,-5.1214,-5.1214,-5.1214,-5.1214,-5.1214,-5.1167,-5.1073,-5.1371,-5.1972,-5.2947,-5.3648,-5.4264,-5.5271,-5.5629,-5.5548,-4.1891,-4.2007,-4.213,-4.195,-4.2024,-4.1638,-4.0099,-4.1115,-4.1569,-4.0112,-4.1643,-4.337,-4.4646,-4.6261,-4.8192,-5.0502,-5.0643,-5.0689,-5.0875,-5.0812,-5.0812,-5.0998,-5.0826,-5.0755,-5.0798,-5.066,-5.0675,-5.0818,-5.0818,-5.0818,-5.0818,-5.0818,-5.0818,-5.0818,-5.0818,-5.0818,-5.0818,-5.0861,-5.0734,-5.0559,-5.1418,-5.1622,-5.1428,-5.2023,-5.2397,-5.2627,-5.2289,-5.2559,-5.3068,-5.3068,-5.3357,-5.38,-5.3852,-5.4245,-5.4737,-5.5093,-5.5194,-5.5059,-5.4446,-5.4281,-5.3952,-5.2606,-5.2202,-5.1977,-5.1349,-5.1214,-5.1214,-5.1214,-5.1214,-5.1214,-5.1214,-5.1214,-5.1214,-5.1214,-5.1214,-5.1184,-5.1094,-5.0032,-4.9284,-4.9179,-4.7593,-4.7249,-4.9134,-4.879,-4.8431,-4.8297,-4.6561,-4.6322,-4.8192,-4.5409,-4.4363,-4.569,-4.5708,-4.6606,-4.8476,-4.8491,-4.9404,-5.1214,-5.1214,-5.1214,-5.1214,-5.1214,-5.1214,-5.1214,-5.1214,-5.1214,-5.1167,-5.0917,-5.1926,-5.3593,-5.3415,-5.4417,-5.603,-5.6086,-5.5966,-5.5823,-3.924,-4.1026,-4.2307,-4.0831,-4.1582,-4.2232,-4.1638,-4.1852,-4.211,-4.2135,-4.259,-4.3759,-4.6038,-4.6646,-4.7678,-4.9594,-4.9207,-4.9738,-5.1759,-5.0673,-5.0832,-5.2769,-5.0991,-5.0196,-5.0723,-4.9507,-4.9509,-5.0818,-5.0818,-5.0818,-5.0818,-5.0818,-5.0818,-5.0818,-5.0818,-5.0818,-5.0846,-5.1266,-5.148,-5.1432,-5.218,-5.2277,-5.2023,-5.2125,-5.2127,-5.2004,-5.1896,-5.2127,-5.2397,-5.2397,-5.2666,-5.3039,-5.3237,-5.3395,-5.3672,-5.4634,-5.5042,-5.5164,-5.4999,-5.4955,-5.464,-5.3294,-5.2187,-5.1409,-5.1259,-5.1214,-5.1214,-5.1214,-5.1214,-5.1214,-5.1214,-5.1214,-5.1214,-5.1214,-5.1214,-5.087,-4.9868,-4.9509,-4.894,-4.7893,-4.8252,-4.8805,-4.9269,-5.0032,-4.9898,-4.8401,-4.7848,-4.7788,-4.8252,-4.7557,-4.7947,-4.9763,-4.9823,-5.0047,-5.0511,-5.0526,-5.075,-5.1214,-5.1214,-5.1214,-5.1214,-5.1214,-5.1214,-5.1214,-5.1214,-5.1214,-5.1214,-5.112,-5.1819,-5.2918,-5.3403,-5.429,-5.532,-5.5894,-5.6086,-5.6006,-4.045,-4.1743,-4.2698,-4.163,-4.215,-4.2694,-4.2538,-4.2481,-4.268,-4.3226,-4.3511,-4.4319,-4.6025,-4.6901,-4.7728,-4.8479,-4.8722,-4.9328,-5.0625,-4.9816,-5.0283,-5.2363,-5.1109,-5.0892,-5.1962,-5.1114,-5.1106,-5.2041,-5.2041,-5.2041,-5.2041,-5.2041,-5.2041,-5.2041,-5.2041,-5.2041,-5.207,-5.2258,-5.2258,-5.218,-5.2363,-5.2289,-5.2004,-5.2004,-5.195,-5.1787,-5.1787,-5.195,-5.2181,-5.2181,-5.2397,-5.2734,-5.288,-5.3025,-5.3237,-5.3829,-5.4399,-5.486,-5.5128,-5.5194,-5.4865,-5.3518,-5.2187,-5.1214,-5.1214,-5.1214,-5.1214,-5.1214,-5.1214,-5.1214,-5.1214,-5.1214,-5.1214,-5.1214,-5.072,-5.0077,-4.9419,-4.8745,-4.8327,-4.8222,-4.888,-4.9539,-5.0107,-5.0795,-5.078,-4.9703,-4.879,-4.8671,-4.9583,-4.8775,-4.9194,-5.1154,-5.1214,-5.1214,-5.1214,-5.1214,-5.1214,-5.1214,-5.1214,-5.1214,-5.1214,-5.1214,-5.1214,-5.1214,-5.1214,-5.1214,-5.1214,-5.1214,-5.2002,-5.3299,-5.3691,-5.4627,-5.5845,-5.6211,-5.6307,-5.6244,-4.2974,-4.2974,-4.2974,-4.2974,-4.2974,-4.2974,-4.2974,-4.2974,-4.3212,-4.384,-4.433,-4.4869,-4.5547,-4.6911,-4.7684,-4.7377,-4.83,-4.8851,-4.8881,-4.8868,-4.9495,-5.0796,-5.0851,-5.1551,-5.3117,-5.3395,-5.3515,-5.3515,-5.3515,-5.3515,-5.3515,-5.3515,-5.3515,-5.3515,-5.3515,-5.3462,-5.341,-5.316,-5.2894,-5.2627,-5.2289,-5.2004,-5.1787,-5.1787,-5.1787,-5.1787,-5.1787,-5.195,-5.2127,-5.2127,-5.2343,-5.2573,-5.2573,-5.2719,-5.2904,-5.3011,-5.3524,-5.42,-5.486,-5.4979,-5.461,-5.3458,-5.2187,-5.1214,-5.1214,-5.1214,-5.1214,-5.1214,-5.1214,-5.1214,-5.1214,-5.1214,-5.1154,-5.096,-4.9987,-4.9239,-4.9045,-4.8177,-4.8012,-4.9179,-4.9479,-5.0002,-5.1109,-5.1214,-5.1214,-5.1214,-4.9673,-4.9464,-5.1124,-4.9628,-4.9494,-5.1169,-5.1214,-5.1214,-5.1214,-5.1214,-5.1214,-5.1214,-5.1214,-5.1214,-5.1214,-5.1214,-5.1214,-5.1214,-5.1214,-5.1214,-5.1214,-5.1214,-5.2215,-5.3805,-5.3934,-5.5042,-5.6508,-5.6641,-5.658,-5.6424,-4.2918,-4.2974,-4.2974,-4.2974,-4.2974,-4.2974,-4.2974,-4.2974,-4.3338,-4.4367,-4.4568,-4.502,-4.6075,-4.6431,-4.6468,-4.6095,-4.6276,-4.7108,-4.8767,-4.8868,-4.8982,-4.9268,-4.9268,-5.0002,-5.1537,-5.2822,-5.3515,-5.3515,-5.3515,-5.3515,-5.3515,-5.3515,-5.3515,-5.3515,-5.3515,-5.3357,-5.316,-5.2894,-5.2573,-5.2235,-5.195,-5.1841,-5.1787,-5.1787,-5.1787,-5.1787,-5.1787,-5.1841,-5.1841,-5.1841,-5.1896,-5.195,-5.195,-5.195,-5.2113,-5.2516,-5.2783,-5.3088,-5.4149,-5.3977,-5.3443,-5.3234,-5.2187,-5.1214,-5.1214,-5.1214,-5.1214,-5.1214,-5.1214,-5.1214,-5.1214,-5.1214,-5.0855,-4.9748,-4.9449,-4.8925,-4.7773,-4.8401,-4.909,-4.9284,-5.0242,-5.099,-5.1199,-5.1214,-5.1214,-5.1214,-5.093,-5.09,-5.1199,-5.093,-5.09,-5.1214,-5.1214,-5.1214,-5.1214,-5.1214,-5.1214,-5.1214,-5.1214,-5.1214,-5.1214,-5.1214,-5.1214,-5.1214,-5.1214,-5.1214,-5.1214,-5.1214,-5.1819,-5.2903,-5.3675,-5.4611,-5.5595,-5.643,-5.668,-5.6619,-4.2457,-4.2806,-4.2974,-4.2974,-4.2974,-4.2974,-4.2974,-4.2974,-4.3263,-4.4079,-4.4443,-4.4932,-4.5773,-4.6137,-4.6193,-4.5817,-4.5817,-4.6143,-4.6904,-4.6773,-4.7057,-4.7899,-4.7782,-4.874,-5.114,-5.1892,-5.2648,-5.3515,-5.3515,-5.3515,-5.3515,-5.3515,-5.3515,-5.3515,-5.3372,-5.3227,-5.3068,-5.2627,-5.2343,-5.2181,-5.1896,-5.1787,-5.1787,-5.1787,-5.1787,-5.1787,-5.1787,-5.1787,-5.1787,-5.1787,-5.1787,-5.1787,-5.1787,-5.1787,-5.1841,-5.2113,-5.2837,-5.3541,-5.3723,-5.3496,-5.3099,-5.274,-5.1932,-5.1214,-5.1214,-5.1214,-5.1214,-5.1214,-5.1214,-5.1214,-5.1214,-5.1214,-5.102,-5.0421,-4.9733,-4.9105,-4.8446,-4.8925,-4.9314,-4.9314,-5.0421,-5.1214,-5.1214,-5.1214,-5.1214,-5.1214,-5.1214,-5.1214,-5.1214,-5.1214,-5.1214,-5.1214,-5.1214,-5.1214,-5.1214,-5.1214,-5.1214,-5.1214,-5.1214,-5.1214,-5.1214,-5.1214,-5.1214,-5.1214,-5.1214,-5.1214,-5.1214,-5.1214,-5.1727,-5.268,-5.3632,-5.4511,-5.5434,-5.6336,-5.668,-5.668,-4.2061,-4.2457,-4.2862,-4.2974,-4.2974,-4.2974,-4.2974,-4.2974,-4.3175,-4.3727,-4.4166,-4.4706,-4.5409,-4.5861,-4.6042,-4.5939,-4.5951,-4.5817,-4.5574,-4.5208,-4.5537,-4.6607,-4.67,-4.7769,-5.0101,-5.0449,-5.1428,-5.2996,-5.2996,-5.317,-5.3515,-5.3515,-5.3515,-5.3515,-5.3213,-5.3068,-5.2962,-5.2451,-5.2181,-5.2073,-5.1896,-5.1787,-5.1787,-5.1787,-5.1787,-5.1773,-5.1632,-5.1576,-5.1548,-5.1407,-5.1365,-5.1365,-5.1365,-5.1365,-5.1365,-5.1365,-5.2406,-5.3437,-5.3141,-5.2936,-5.2685,-5.2273,-5.1708,-5.1214,-5.1214,-5.1214,-5.1214,-5.1214,-5.1214,-5.1214,-5.1214,-5.1214,-5.1109,-5.081,-4.9927,-4.9314,-4.9314,-4.9314,-4.9419,-4.9733,-5.0601,-5.1214,-5.1214,-5.1214,-5.1214,-5.1214,-5.1214,-5.1214,-5.1214,-5.1214,-5.1214,-5.1214,-5.1214,-5.1214,-5.1214,-5.1214,-5.1214,-5.1214,-5.1214,-5.1214,-5.1214,-5.1214,-5.1214,-5.1214,-5.1214,-5.1214,-5.1214,-5.1214,-5.1603,-5.2396,-5.3299,-5.4089,-5.4787,-5.5948,-5.6375,-5.6375,-4.1879,-4.2118,-4.2344,-4.2918,-4.2974,-4.2974,-4.2974,-4.2974,-4.3175,-4.3727,-4.3827,-4.4279,-4.5372,-4.5522,-4.5748,-4.6203,-4.6253,-4.6253,-4.6253,-4.5878,-4.5635,-4.544,-4.65,-4.7044,-4.6959,-4.835,-4.9833,-5.1373,-5.1373,-5.2122,-5.3515,-5.3515,-5.3515,-5.3515,-5.3213,-5.2962,-5.2734,-5.2343,-5.2073,-5.1841,-5.1787,-5.1787,-5.1787,-5.1787,-5.1787,-5.1716,-5.1154,-5.0944,-5.0913,-5.0336,-5.0139,-5.0139,-5.0139,-5.0139,-5.0139,-5.0139,-5.0545,-5.1241,-5.2212,-5.2024,-5.162,-5.2106,-5.1708,-5.1214,-5.1214,-5.1214,-5.1214,-5.1214,-5.1214,-5.1214,-5.1214,-5.1214,-5.081,-4.9613,-4.9374,-4.9314,-4.9314,-4.9314,-4.9763,-5.093,-5.1154,-5.1214,-5.1214,-5.1214,-5.1214,-5.1214,-5.1214,-5.1214,-5.1214,-5.1214,-5.1214,-5.1214,-5.1214,-5.1214,-5.1214,-5.1214,-5.1214,-5.1214,-5.1214,-5.1214,-5.1214,-5.1214,-5.1214,-5.1214,-5.1214,-5.1214,-5.1214,-5.1214,-5.1261,-5.1386,-5.2351,-5.2725,-5.302,-5.4746,-5.5377,-5.5377,-4.086,-4.1206,-4.1663,-4.2344,-4.2457,-4.2581,-4.2918,-4.2974,-4.3049,-4.3263,-4.3589,-4.3966,-4.4392,-4.4744,-4.5183,-4.5748,-4.5799,-4.5949,-4.6288,-4.6193,-4.5878,-4.5331,-4.572,-4.626,-4.6925,-4.7502,-4.8421,-4.9777,-4.9777,-5.0072,-5.0643,-5.1606,-5.196,-5.188,-5.2544,-5.268,-5.2343,-5.2073,-5.1896,-5.1759,-5.1365,-5.1225,-5.1183,-5.0857,-5.0702,-5.0674,-5.0435,-5.035,-5.0322,-5.0097,-5.0013,-5.0013,-5.0013,-5.0013,-4.9928,-4.9497,-4.954,-4.9751,-5.0112,-5.061,-5.0969,-5.1136,-5.095,-5.0852,-5.1135,-5.1214,-5.1214,-5.1214,-5.1214,-5.1214,-5.1214,-5.1214,-5.105,-5.0556,-5.0481,-5.0481,-5.0481,-5.0481,-5.0661,-5.1154,-5.1214,-5.1214,-5.1214,-5.1214,-5.1214,-5.1214,-5.1214,-5.1214,-5.1214,-5.1214,-5.1214,-5.1214,-5.1214,-5.1214,-5.1214,-5.1214,-5.1214,-5.1214,-5.1214,-5.1214,-5.1214,-5.1214,-5.1214,-5.1214,-5.1214,-5.1214,-5.1214,-5.1214,-5.1214,-5.1339,-5.2858,-5.3124,-5.2814,-5.4621,-5.4968,-5.4469,-4.0165,-4.0513,-4.1033,-4.1651,-4.1935,-4.2231,-4.2625,-4.2862,-4.2974,-4.2974,-4.3313,-4.3614,-4.3777,-4.4141,-4.4593,-4.5171,-4.5221,-4.5447,-4.6012,-4.6213,-4.6059,-4.5514,-4.5453,-4.578,-4.65,-4.6427,-4.6997,-4.8363,-4.8247,-4.8408,-4.8925,-5.0002,-5.0351,-5.0281,-5.1457,-5.1715,-5.1301,-5.1437,-5.1393,-5.1183,-5.08,-5.0646,-5.059,-5.0168,-5.0013,-4.9985,-4.9735,-4.9679,-4.9637,-4.9454,-4.9384,-4.9384,-4.9384,-4.9384,-4.93,-4.8827,-4.8701,-4.8705,-4.8673,-4.9259,-4.9938,-5.0203,-5.039,-5.0581,-5.0914,-5.1088,-5.1214,-5.1214,-5.1214,-5.1214,-5.1214,-5.1214,-5.1214,-5.1214,-5.1214,-5.1214,-5.1214,-5.1214,-5.1214,-5.1214,-5.1214,-5.1214,-5.1214,-5.1214,-5.1214,-5.1214,-5.1214,-5.1214,-5.1214,-5.1214,-5.1214,-5.1214,-5.1214,-5.1214,-5.1214,-5.1214,-5.1214,-5.1214,-5.1214,-5.1214,-5.1214,-5.1214,-5.1214,-5.1214,-5.1214,-5.1214,-5.1214,-5.1214,-5.1214,-5.1354,-5.2606,-5.274,-5.2336,-5.3875,-5.4089,-5.3561,-4.006,-4.0165,-4.0397,-4.0976,-4.1663,-4.2118,-4.2118,-4.2569,-4.2974,-4.2974,-4.2974,-4.3187,-4.374,-4.379,-4.4016,-4.4568,-4.4618,-4.4869,-4.5447,-4.5987,-4.6107,-4.5805,-4.5817,-4.5635,-4.5331,-4.4963,-4.5573,-4.7103,-4.6735,-4.7359,-4.8855,-4.8868,-4.8855,-4.8925,-4.9901,-5.0049,-4.9461,-5.0455,-5.0575,-5.0013,-4.9999,-4.9999,-4.9999,-4.9999,-4.9999,-4.9914,-4.9244,-4.8981,-4.8883,-4.828,-4.812,-4.812,-4.812,-4.812,-4.812,-4.812,-4.812,-4.812,-4.812,-4.812,-4.8373,-4.9438,-5.0086,-5.0501,-5.0501,-5.0867,-5.1182,-5.1214,-5.1214,-5.1214,-5.1214,-5.1214,-5.1214,-5.1214,-5.1214,-5.1214,-5.1214,-5.1214,-5.1214,-5.1214,-5.1214,-5.1214,-5.1214,-5.1214,-5.1214,-5.1214,-5.1214,-5.1214,-5.1214,-5.1214,-5.1214,-5.1214,-5.1214,-5.1214,-5.1214,-5.1214,-5.1214,-5.1214,-5.1214,-5.1214,-5.1214,-5.1214,-5.1214,-5.1214,-5.1214,-5.1214,-5.1214,-5.1214,-5.1214,-5.1214,-5.1214,-5.1214,-5.1308,-5.226,-5.2606,-5.2606,-3.9532,-3.9591,-3.9767,-4.0339,-4.0629,-4.0906,-4.1308,-4.1948,-4.2344,-4.2344,-4.275,-4.3037,-4.3212,-4.3225,-4.3438,-4.4003,-4.4053,-4.4279,-4.4844,-4.5033,-4.5062,-4.4944,-4.5707,-4.5999,-4.5635,-4.5574,-4.5425,-4.5256,-4.4932,-4.4841,-4.4941,-4.5834,-4.6097,-4.5969,-4.8198,-4.8968,-4.8627,-4.9774,-5.0168,-4.9971,-4.9483,-4.9314,-4.9258,-4.8836,-4.8682,-4.8654,-4.842,-4.835,-4.8322,-4.8139,-4.812,-4.812,-4.812,-4.812,-4.812,-4.812,-4.812,-4.812,-4.812,-4.812,-4.8272,-4.8945,-4.9242,-4.9551,-5.0342,-5.0596,-5.0819,-5.1135,-5.1214,-5.1214,-5.1214,-5.1214,-5.1214,-5.1214,-5.1214,-5.1214,-5.1214,-5.1214,-5.1214,-5.1214,-5.1214,-5.1214,-5.1214,-5.1214,-5.1214,-5.1214,-5.1214,-5.1214,-5.1214,-5.1214,-5.1214,-5.1214,-5.1214,-5.1214,-5.1214,-5.1214,-5.1214,-5.1214,-5.1214,-5.1214,-5.1214,-5.1214,-5.1214,-5.1214,-5.1214,-5.1214,-5.1214,-5.1214,-5.1214,-5.1261,-5.1911,-5.1773,-5.1308,-5.226,-5.217,-5.1603,-3.9308,-3.9308,-3.9426,-3.9767,-4.0048,-4.0339,-4.0687,-4.1308,-4.172,-4.172,-4.2231,-4.2638,-4.2638,-4.2862,-4.3112,-4.3451,-4.3677,-4.394,-4.4279,-4.4505,-4.4618,-4.4618,-4.5284,-4.5517,-4.5338,-4.5231,-4.4891,-4.4391,-4.4068,-4.3718,-4.3425,-4.4069,-4.422,-4.4161,-4.6161,-4.6824,-4.6515,-4.8242,-4.8784,-4.8586,-4.8602,-4.8616,-4.8588,-4.8223,-4.812,-4.812,-4.812,-4.812,-4.812,-4.812,-4.812,-4.812,-4.812,-4.812,-4.812,-4.812,-4.812,-4.812,-4.812,-4.812,-4.817,-4.8509,-4.876,-4.9157,-4.999,-5.0342,-5.0629,-5.1073,-5.1214,-5.1214,-5.1214,-5.1214,-5.1214,-5.1214,-5.1214,-5.1214,-5.1214,-5.1214,-5.1214,-5.1214,-5.1214,-5.1214,-5.1214,-5.1214,-5.1214,-5.1214,-5.1214,-5.1214,-5.1214,-5.1214,-5.1214,-5.1214,-5.1214,-5.1214,-5.1214,-5.1214,-5.1214,-5.1214,-5.1214,-5.1214,-5.1214,-5.1214,-5.1214,-5.1214,-5.1214,-5.1214,-5.1214,-5.1214,-5.1214,-5.1261,-5.1819,-5.1696,-5.1261,-5.1834,-5.1696,-5.1214,-3.9308,-3.9308,-3.9308,-3.9308,-3.9767,-4.0106,-4.0106,-4.0629,-4.1033,-4.1033,-4.1606,-4.2049,-4.2118,-4.2569,-4.2918,-4.2974,-4.3438,-4.3727,-4.3727,-4.4204,-4.448,-4.448,-4.448,-4.448,-4.448,-4.4303,-4.4224,-4.4174,-4.3823,-4.3681,-4.3573,-4.3279,-4.3102,-4.3161,-4.407,-4.4186,-4.379,-4.6084,-4.6809,-4.6478,-4.7517,-4.8018,-4.812,-4.812,-4.812,-4.812,-4.812,-4.812,-4.812,-4.812,-4.812,-4.812,-4.812,-4.812,-4.812,-4.812,-4.812,-4.812,-4.812,-4.812,-4.812,-4.812,-4.8473,-4.8945,-4.9537,-5.0038,-5.0581,-5.1041,-5.1167,-5.1214,-5.1214,-5.1214,-5.1214,-5.1214,-5.1214,-5.1214,-5.1214,-5.1214,-5.1214,-5.1214,-5.1214,-5.1214,-5.1214,-5.1214,-5.1214,-5.1214,-5.1214,-5.1214,-5.1214,-5.1214,-5.1214,-5.1214,-5.1214,-5.1214,-5.1214,-5.1214,-5.1214,-5.1214,-5.1214,-5.1214,-5.1214,-5.1214,-5.1214,-5.1214,-5.1214,-5.1214,-5.1214,-5.1214,-5.1214,-5.1214,-5.1214,-5.1214,-5.1214,-5.1214,-5.1214,-5.1214,-3.9308,-3.9308,-3.9308,-3.9308,-3.9426,-3.9473,-3.9473,-4.0001,-4.0397,-4.0397,-4.0918,-4.1549,-4.2061,-4.2231,-4.2513,-4.2974,-4.3087,-4.3162,-4.3162,-4.3263,-4.3338,-4.3338,-4.3338,-4.3338,-4.3338,-4.4122,-4.4302,-4.3876,-4.3602,-4.3206,-4.2772,-4.2442,-4.234,-4.2397,-4.3256,-4.3561,-4.3571,-4.4676,-4.5675,-4.6426,-4.6649,-4.7298,-4.812,-4.812,-4.812,-4.812,-4.812,-4.812,-4.812,-4.812,-4.812,-4.812,-4.812,-4.812,-4.812,-4.812,-4.812,-4.812,-4.812,-4.812,-4.812,-4.812,-4.817,-4.8409,-4.8945,-4.9488,-5.0023,-5.0534,-5.0947,-5.1214,-5.1214,-5.1214,-5.1214,-5.1214,-5.1214,-5.1214,-5.1214,-5.1214,-5.1214,-5.1214,-5.1214,-5.1214,-5.1214,-5.1214,-5.1214,-5.1214,-5.1214,-5.1214,-5.1214,-5.1214,-5.1214,-5.1214,-5.1214,-5.1214,-5.1214,-5.1214,-5.1214,-5.1214,-5.1214,-5.1214,-5.1214,-5.1214,-5.1214,-5.1214,-5.1214,-5.1214,-5.1214,-5.1214,-5.1214,-5.1214,-5.1214,-5.1214,-5.1214,-5.1214,-5.1214,-5.1139,-3.9308,-3.9308,-3.9308,-3.9308,-3.9308,-3.9308,-3.9308,-3.9591,-3.9767,-3.9767,-4.0281,-4.0803,-4.1148,-4.1435,-4.1891,-4.2525,-4.2806,-4.2974,-4.2974,-4.2974,-4.2974,-4.2974,-4.2974,-4.2974,-4.2974,-4.3539,-4.3689,-4.3413,-4.33,-4.305,-4.275,-4.2425,-4.2312,-4.2312,-4.2638,-4.2806,-4.2849,-4.3797,-4.4602,-4.5195,-4.5622,-4.644,-4.748,-4.7363,-4.7633,-4.812,-4.812,-4.812,-4.812,-4.812,-4.812,-4.812,-4.812,-4.812,-4.812,-4.812,-4.812,-4.812,-4.812,-4.812,-4.812,-4.812,-4.812,-4.8221,-4.876,-4.9093,-4.9537,-5.0357,-5.0677,-5.0947,-5.1167,-5.1214,-5.1214,-5.1214,-5.1214,-5.1214,-5.1214,-5.1214,-5.1214,-5.1214,-5.1214,-5.1214,-5.1214,-5.1214,-5.1214,-5.1214,-5.1214,-5.1214,-5.1214,-5.1214,-5.1214,-5.1214,-5.1214,-5.1214,-5.1214,-5.1214,-5.1214,-5.1214,-5.1214,-5.1214,-5.1214,-5.1214,-5.1214,-5.1214,-5.1214,-5.1214,-5.1214,-5.1214,-5.1214,-5.1214,-5.1214,-5.1214,-5.1214,-5.1214,-5.1214,-5.1124,-3.9308,-3.9308,-3.9308,-3.9308,-3.9308,-3.9308,-3.9308,-3.9308,-3.9308,-3.9308,-3.9767,-4.0118,-4.0165,-4.0745,-4.1366,-4.2061,-4.2569,-4.2862,-4.2974,-4.2974,-4.2974,-4.2974,-4.2974,-4.2974,-4.2974,-4.2974,-4.2974,-4.2974,-4.2974,-4.2974,-4.2974,-4.2694,-4.2581,-4.2581,-4.2312,-4.2155,-4.2211,-4.3116,-4.3589,-4.3865,-4.4561,-4.5475,-4.6453,-4.6216,-4.6818,-4.7801,-4.7801,-4.7903,-4.812,-4.812,-4.812,-4.812,-4.812,-4.812,-4.812,-4.812,-4.812,-4.812,-4.812,-4.812,-4.812,-4.812,-4.812,-4.8221,-4.866,-4.8845,-4.9143,-5.0053,-5.0357,-5.0644,-5.0994,-5.1135,-5.1214,-5.1214,-5.1214,-5.1214,-5.1214,-5.1214,-5.1214,-5.1214,-5.1214,-5.1214,-5.1214,-5.1214,-5.1214,-5.1214,-5.1214,-5.1214,-5.1214,-5.1214,-5.1214,-5.1214,-5.1214,-5.1214,-5.1214,-5.1214,-5.1214,-5.1214,-5.1214,-5.1214,-5.1214,-5.1214,-5.1214,-5.1214,-5.1214,-5.1214,-5.1214,-5.1214,-5.1214,-5.1214,-5.1214,-5.1214,-5.1214,-5.1094,-5.105,-5.0945,-3.9308,-3.9308,-3.9308,-3.9308,-3.9308,-3.9308,-3.9308,-3.9308,-3.9308,-3.9308,-3.9356,-3.9591,-4.0165,-4.0745,-4.1366,-4.2061,-4.2162,-4.2457,-4.2974,-4.2974,-4.2974,-4.2974,-4.2974,-4.2974,-4.2974,-4.2974,-4.2974,-4.2974,-4.2974,-4.2974,-4.2974,-4.2974,-4.2918,-4.2918,-4.2581,-4.2469,-4.2413,-4.2369,-4.2905,-4.381,-4.3657,-4.4302,-4.5302,-4.4967,-4.5608,-4.6649,-4.6649,-4.7246,-4.812,-4.812,-4.812,-4.812,-4.812,-4.812,-4.812,-4.812,-4.812,-4.812,-4.812,-4.812,-4.812,-4.812,-4.812,-4.812,-4.817,-4.8559,-4.8945,-4.9108,-4.9844,-5.0501,-5.0581,-5.0947,-5.1214,-5.1214,-5.1214,-5.1214,-5.1214,-5.1214,-5.1214,-5.1214,-5.1214,-5.1214,-5.1214,-5.1214,-5.1214,-5.1214,-5.1214,-5.1214,-5.1214,-5.1214,-5.1214,-5.1214,-5.1214,-5.1214,-5.1214,-5.1214,-5.1214,-5.1214,-5.1214,-5.1214,-5.1214,-5.1214,-5.1214,-5.1214,-5.1214,-5.1214,-5.1214,-5.1214,-5.1214,-5.1214,-5.1214,-5.1214,-5.1154,-5.0539,-5.033,-5.0151,-3.9308,-3.9308,-3.9308,-3.9308,-3.9308,-3.9308,-3.9308,-3.9308,-3.9308,-3.9308,-3.9308,-3.9414,-3.965,-4.0223,-4.0745,-4.1021,-4.1378,-4.1822,-4.2457,-4.2513,-4.2625,-4.2974,-4.2974,-4.2974,-4.2974,-4.2974,-4.2974,-4.2974,-4.2974,-4.2974,-4.2974,-4.2974,-4.2974,-4.2974,-4.2862,-4.2806,-4.275,-4.265,-4.2918,-4.3283,-4.2862,-4.3338,-4.4331,-4.3826,-4.4359,-4.5502,-4.6164,-4.7143,-4.812,-4.812,-4.812,-4.812,-4.812,-4.812,-4.812,-4.812,-4.812,-4.812,-4.812,-4.812,-4.812,-4.812,-4.812,-4.812,-4.812,-4.8272,-4.8559,-4.8859,-4.9305,-4.9795,-5.0405,-5.0677,-5.0899,-5.1167,-5.0994,-5.0899,-5.1167,-5.0994,-5.0914,-5.1167,-5.1214,-5.1214,-5.1214,-5.1214,-5.1214,-5.1214,-5.1214,-5.1214,-5.1214,-5.1214,-5.1214,-5.1214,-5.1214,-5.1214,-5.1214,-5.1214,-5.1214,-5.1214,-5.1214,-5.1214,-5.1214,-5.1214,-5.1214,-5.1214,-5.1214,-5.1214,-5.1214,-5.1214,-5.1214,-5.1214,-5.1214,-5.0943,-5.0539,-4.9942,-4.9703,-4.9553]}]]